[[{"header":{"parameterUnit":"m.s-1","parameterCategory":1,"la1":30.6,"la2":28.766,"lo1":-90.7593,"lo2":-88.6598,"dx":0.0162,"dy":0.0183,"nx":116,"ny":114,"refTime":"2023-02-07T06:00:00:Z","depth":0,"parameterNumber":2,"parameterNumberName":"U-component_of_WINDS"},"data":[0.0,0.0,0.0,0.0,0.0,0.0,0.0,0.0,0.0,0.0,0.0,0.0,0.0,0.0,0.0,0.0,0.0,0.0,0.0,0.0,0.0,0.0,0.0,0.0,0.0,0.0,0.0,0.0,0.0,0.0,0.0,0.0,0.0,0.0,0.0,0.0,0.0,0.0,0.0,0.0,0.0,0.0,0.0,0.0,0.0,0.0,0.0,0.0,0.0,0.0,0.0,0.0,0.0,0.0,0.0,0.0,0.0,0.0,0.0,0.0,0.0,0.0,0.0,0.0,0.0,0.0,0.0,0.0,0.0,0.0,0.0,0.0,0.0,0.0,0.0,0.0,0.0,0.0,0.0,0.0,0.0,0.0,0.0,0.0,0.0,0.0,0.0,0.0,0.0,0.0,0.0,0.0,0.0,0.0,0.0,0.0,0.0,0.0,0.0,0.0,0.0,0.0,0.0,0.0,0.0,0.0,0.0,0.0,0.0,0.0,0.0,0.0,0.0,0.0,0.0,0.0,0.0,0.0,0.0,0.0,0.0,0.0,0.0,0.0,0.0,0.0,0.0,0.0,0.0,0.0,0.0,0.0,0.0,0.0,0.0,0.0,0.0,0.0,0.0,0.0,0.0,0.0,0.0,0.0,0.0,0.0,0.0,0.0,0.0,0.0,0.0,0.0,0.0,0.0,0.0,0.0,0.0,0.0,0.0,0.0,0.0,0.0,0.0,0.0,0.0,0.0,0.0,0.0,0.0,0.0,0.0,0.0,0.0,0.0,0.0,0.0,0.0,0.0,0.0,0.0,0.0,0.0,0.0,0.0,0.0,0.0,0.0,0.0,0.0,0.0,0.0,0.0,0.0,0.0,0.0,0.0,0.0,0.0,0.0,0.0,0.0,0.0,0.0,0.0,0.0,0.0,0.0,0.0,0.0,0.0,0.0,0.0,0.0,0.0,0.0,0.0,0.0,0.0,0.0,0.0,0.0,0.0,0.0,0.0,0.0,0.0,0.0,0.0,0.0,0.0,0.0,0.0,0.0,0.0,0.0,0.0,0.0,0.0,0.0,0.0,0.0,0.0,0.0,0.0,0.0,0.0,0.0,0.0,0.0,0.0,0.0,0.0,0.0,0.0,0.0,0.0,0.0,0.0,0.0,0.0,0.0,0.0,0.0,0.0,0.0,0.0,0.0,0.0,0.0,0.0,0.0,0.0,0.0,0.0,0.0,0.0,0.0,0.0,0.0,0.0,0.0,0.0,0.0,0.0,0.0,0.0,0.0,0.0,0.0,0.0,0.0,0.0,0.0,0.0,0.0,0.0,0.0,0.0,0.0,0.0,0.0,0.0,0.0,0.0,0.0,0.0,0.0,0.0,0.0,0.0,0.0,0.0,0.0,0.0,0.0,0.0,0.0,0.0,0.0,0.0,0.0,0.0,0.0,0.0,0.0,0.0,0.0,0.0,0.0,0.0,0.0,0.0,0.0,0.0,0.0,0.0,0.0,0.0,0.0,0.0,0.0,0.0,0.0,0.0,0.0,0.0,0.0,0.0,0.0,0.0,0.0,0.0,0.0,0.0,0.0,0.0,0.0,0.0,0.0,0.0,0.0,0.0,0.0,0.0,0.0,0.0,0.0,0.0,0.0,0.0,0.0,0.0,0.0,0.0,0.0,0.0,0.0,0.0,0.0,0.0,0.0,0.0,0.0,0.0,0.0,0.0,0.0,0.0,0.0,0.0,0.0,0.0,0.0,0.0,0.0,0.0,0.0,0.0,0.0,0.0,0.0,0.0,0.0,0.0,0.0,0.0,0.0,0.0,0.0,0.0,0.0,0.0,0.0,0.0,0.0,0.0,0.0,0.0,0.0,0.0,0.0,0.0,0.0,0.0,0.0,0.0,0.0,0.0,0.0,0.0,0.0,0.0,0.0,0.0,0.0,0.0,0.0,0.0,0.0,0.0,0.0,0.0,0.0,0.0,0.0,0.0,0.0,0.0,0.0,0.0,0.0,0.0,0.0,0.0,0.0,0.0,0.0,0.0,0.0,0.0,0.0,0.0,0.0,0.0,0.0,0.0,0.0,0.0,0.0,0.0,0.0,0.0,0.0,0.0,0.0,0.0,0.0,0.0,0.0,0.0,0.0,0.0,0.0,0.0,0.0,0.0,0.0,0.0,0.0,0.0,0.0,0.0,0.0,0.0,0.0,0.0,0.0,0.0,0.0,0.0,0.0,0.0,0.0,0.0,0.0,0.0,0.0,0.0,0.0,0.0,0.0,0.0,0.0,0.0,0.0,0.0,0.0,0.0,0.0,0.0,0.0,0.0,0.0,0.0,0.0,0.0,0.0,0.0,0.0,0.0,0.0,0.0,0.0,0.0,0.0,0.0,0.0,0.0,0.0,0.0,0.0,0.0,0.0,0.0,0.0,0.0,0.0,0.0,0.0,0.0,0.0,0.0,0.0,0.0,0.0,0.0,0.0,0.0,0.0,0.0,0.0,0.0,0.0,0.0,0.0,0.0,0.0,0.0,0.0,0.0,0.0,0.0,0.0,0.0,0.0,0.0,0.0,0.0,0.0,0.0,0.0,0.0,0.0,0.0,0.0,0.0,0.0,0.0,0.0,0.0,0.0,0.0,0.0,0.0,0.0,0.0,0.0,0.0,0.0,0.0,0.0,0.0,0.0,0.0,0.0,0.0,0.0,0.0,0.0,0.0,0.0,0.0,0.0,0.0,0.0,0.0,0.0,0.0,0.0,0.0,0.0,0.0,0.0,0.0,0.0,0.0,0.0,0.0,0.0,0.0,0.0,0.0,0.0,0.0,0.0,0.0,0.0,0.0,0.0,0.0,0.0,0.0,0.0,0.0,0.0,0.0,0.0,0.0,0.0,0.0,0.0,0.0,0.0,0.0,0.0,0.0,0.0,0.0,0.0,0.0,0.0,0.0,0.0,0.0,0.0,0.0,0.0,0.0,0.0,0.0,0.0,0.0,0.0,0.0,0.0,0.0,0.0,0.0,0.0,0.0,0.0,0.0,0.0,0.0,0.0,0.0,0.0,0.0,0.0,0.0,0.0,0.0,0.0,0.0,0.0,0.0,0.0,0.0,0.0,0.0,0.0,0.0,0.0,0.0,0.0,0.0,0.0,0.0,0.0,0.0,0.0,0.0,0.0,0.0,0.0,0.0,0.0,0.0,0.0,0.0,0.0,0.0,0.0,0.0,0.0,0.0,0.0,0.0,0.0,0.0,0.0,0.0,0.0,0.0,0.0,0.0,0.0,0.0,0.0,0.0,0.0,0.0,0.0,0.0,0.0,0.0,0.0,0.0,0.0,0.0,0.0,0.0,0.0,0.0,0.0,0.0,0.0,0.0,0.0,0.0,0.0,0.0,0.0,0.0,0.0,0.0,0.0,0.0,0.0,0.0,0.0,0.0,0.0,0.0,0.0,0.0,0.0,0.0,0.0,0.0,0.0,0.0,0.0,0.0,0.0,0.0,0.0,0.0,0.0,0.0,0.0,0.0,0.0,0.0,0.0,0.0,0.0,0.0,0.0,0.0,0.0,0.0,0.0,0.0,0.0,0.0,0.0,0.0,0.0,0.0,0.0,0.0,0.0,0.0,0.0,0.0,0.0,0.0,0.0,0.0,0.0,0.0,0.0,0.0,0.0,0.0,0.0,0.0,0.0,0.0,0.0,0.0,0.0,0.0,0.0,0.0,0.0,0.0,0.0,0.0,0.0,0.0,0.0,0.0,0.0,0.0,0.0,0.0,0.0,0.0,0.0,0.0,0.0,0.0,0.0,0.0,0.0,0.0,0.0,0.0,0.0,0.0,0.0,0.0,0.0,0.0,0.0,0.0,0.0,0.0,0.0,0.0,0.0,0.0,0.0,0.0,0.0,0.0,0.0,0.0,0.0,0.0,0.0,0.0,0.0,0.0,0.0,0.0,0.0,0.0,0.0,0.0,0.0,0.0,0.0,0.0,0.0,0.0,0.0,0.0,0.0,0.0,0.0,0.0,0.0,0.0,0.0,0.0,0.0,0.0,0.0,0.0,0.0,0.0,0.0,0.0,0.0,0.0,0.0,0.0,0.0,0.0,0.0,0.0,0.0,0.0,0.0,0.0,0.0,0.0,0.0,0.0,0.0,0.0,0.0,0.0,0.0,0.0,0.0,0.0,0.0,0.0,0.0,0.0,0.0,0.0,0.0,0.0,0.0,0.0,0.0,0.0,0.0,0.0,0.0,0.0,0.0,0.0,0.0,0.0,0.0,0.0,0.0,0.0,0.0,0.0,0.0,0.0,0.0,0.0,0.0,0.0,0.0,0.0,0.0,0.0,0.0,0.0,0.0,0.0,0.0,0.0,0.0,0.0,0.0,0.0,0.0,0.0,0.0,0.0,0.0,0.0,0.0,0.0,0.0,0.0,0.0,0.0,0.0,0.0,0.0,0.0,0.0,0.0,0.0,0.0,0.0,0.0,0.0,0.0,0.0,0.0,0.0,0.0,0.0,0.0,0.0,0.0,0.0,0.0,0.0,0.0,0.0,0.0,0.0,0.0,0.0,0.0,0.0,0.0,0.0,0.0,0.0,0.0,0.0,0.0,0.0,0.0,0.0,0.0,0.0,0.0,0.0,0.0,0.0,0.0,0.0,0.0,0.0,0.0,0.0,0.0,0.0,0.0,0.0,0.0,0.0,0.0,0.0,0.0,0.0,0.0,0.0,0.0,0.0,0.0,0.0,0.0,0.0,0.0,0.0,0.0,0.0,0.0,0.0,0.0,0.0,0.0,0.0,0.0,0.0,0.0,0.0,0.0,0.0,0.0,0.0,0.0,0.0,0.0,0.0,0.0,0.0,0.0,0.0,0.0,0.0,0.0,0.0,0.0,0.0,0.0,0.0,0.0,0.0,0.0,0.0,0.0,0.0,0.0,0.0,0.0,0.0,0.0,0.0,0.0,0.0,0.0,0.0,0.0,0.0,0.0,0.0,0.0,0.0,0.0,0.0,0.0,0.0,0.0,0.0,0.0,0.0,0.0,0.0,0.0,0.0,0.0,0.0,0.0,0.0,0.0,0.0,0.0,0.0,0.0,0.0,0.0,0.0,0.0,0.0,0.0,0.0,0.0,0.0,0.0,0.0,0.0,0.0,0.0,0.0,0.0,0.0,0.0,0.0,0.0,0.0,0.0,0.0,0.0,0.0,0.0,0.0,0.0,0.0,0.0,0.0,0.0,0.0,0.0,0.0,0.0,0.0,0.0,0.0,0.0,0.0,0.0,0.0,0.0,0.0,0.0,0.0,0.0,0.0,0.0,0.0,0.0,0.0,0.0,0.0,0.0,0.0,0.0,0.0,0.0,0.0,0.0,0.0,0.0,0.0,0.0,0.0,0.0,0.0,0.0,0.0,0.0,0.0,0.0,0.0,0.0,0.0,0.0,0.0,0.0,0.0,0.0,0.0,0.0,0.0,0.0,0.0,0.0,0.0,0.0,0.0,0.0,0.0,0.0,0.0,0.0,0.0,0.0,0.0,0.0,0.0,0.0,0.0,0.0,0.0,0.0,0.0,0.0,0.0,0.0,0.0,0.0,0.0,0.0,0.0,0.0,0.0,0.0,0.0,0.0,0.0,0.0,0.0,0.0,0.0,0.0,0.0,0.0,0.0,0.0,0.0,0.0,0.0,0.0,0.0,0.0,0.0,0.0,0.0,0.0,0.0,0.0,0.0,0.0,0.0,0.0,0.0,0.0,0.0,0.0,0.0,0.0,0.0,0.0,0.0,0.0,0.0,0.0,0.0,0.0,0.0,0.0,0.0,0.0,0.0,0.0,0.0,0.0,0.0,0.0,0.0,0.0,0.0,0.0,0.0,0.0,0.0,0.0,0.0,0.0,0.0,0.0,0.0,0.0,0.0,0.0,0.0,0.0,0.0,0.0,0.0,0.0,0.0,0.0,0.0,0.0,0.0,0.0,0.0,0.0,0.0,0.0,0.0,0.0,0.0,0.0,0.0,0.0,0.0,0.0,0.0,0.0,0.0,0.0,0.0,0.0,0.0,0.0,0.0,0.0,0.0,0.0,0.0,0.0,0.0,0.0,0.0,0.0,0.0,0.0,0.0,0.0,0.0,0.0,-2.912,0.0,0.0,0.0,0.0,0.0,0.0,0.0,0.0,0.0,0.0,0.0,0.0,0.0,0.0,0.0,0.0,0.0,0.0,0.0,0.0,0.0,0.0,0.0,0.0,0.0,0.0,0.0,0.0,0.0,0.0,0.0,0.0,0.0,0.0,0.0,0.0,0.0,0.0,0.0,2.761,2.7739,2.8068,2.8397,2.9056,3.0043,0.0,0.0,0.0,0.0,0.0,0.0,0.0,0.0,0.0,0.0,0.0,0.0,0.0,0.0,0.0,0.0,0.0,0.0,0.0,0.0,0.0,0.0,0.0,0.0,0.0,0.0,0.0,0.0,0.0,0.0,0.0,0.0,0.0,0.0,0.0,0.0,0.0,0.0,0.0,0.0,0.0,0.0,0.0,0.0,0.0,0.0,0.0,0.0,0.0,0.0,0.0,0.0,0.0,0.0,0.0,0.0,0.0,0.0,0.0,0.0,0.0,0.0,0.0,0.0,0.0,0.0,0.0,0.0,0.0,0.0,0.0,-2.9804,0.0,0.0,0.0,0.0,0.0,0.0,0.0,0.0,0.0,0.0,0.0,0.0,0.0,0.0,0.0,0.0,0.0,0.0,0.0,0.0,0.0,0.0,0.0,0.0,2.761,2.761,2.761,0.0,0.0,0.0,0.0,0.0,0.0,0.0,0.0,2.761,2.761,2.761,2.7709,2.8098,2.8786,2.9445,3.0073,3.0702,3.115,0.0,0.0,0.0,0.0,0.0,0.0,0.0,0.0,0.0,0.0,0.0,0.0,0.0,0.0,0.0,0.0,0.0,0.0,0.0,0.0,0.0,0.0,0.0,0.0,0.0,0.0,0.0,0.0,0.0,0.0,0.0,0.0,0.0,0.0,0.0,0.0,0.0,0.0,0.0,0.0,0.0,0.0,0.0,0.0,0.0,0.0,0.0,0.0,0.0,0.0,0.0,0.0,0.0,0.0,0.0,0.0,0.0,0.0,0.0,0.0,0.0,0.0,0.0,-2.332,-2.3359,-2.3359,-2.5721,-2.6685,-2.6678,-2.8937,-2.988,-2.9804,0.0,0.0,0.0,0.0,0.0,0.0,0.0,0.0,0.0,0.0,0.0,0.0,0.0,0.0,0.0,0.0,0.0,0.0,0.0,0.0,0.0,0.0,2.761,2.761,2.761,2.761,2.761,0.0,0.0,0.0,0.0,0.0,0.0,2.761,2.761,2.761,2.761,2.8158,2.8816,2.9475,3.0073,3.0731,3.139,3.0881,3.0541,3.045,0.0,0.0,0.0,0.0,0.0,0.0,0.0,0.0,0.0,0.0,0.0,0.0,0.0,0.0,0.0,0.0,0.0,0.0,0.0,0.0,0.0,0.0,0.0,0.0,0.0,0.0,0.0,0.0,0.0,0.0,0.0,0.0,0.0,0.0,0.0,0.0,0.0,0.0,0.0,0.0,0.0,-0.0,-0.0,0.0,0.0,0.0,0.0,0.0,0.0,0.0,0.0,0.0,0.0,0.0,0.0,0.0,-2.0297,-2.1821,-2.2098,-2.2681,-2.3711,-2.4062,-2.4258,-2.433,-2.6691,-2.7428,-2.7195,-2.9472,0.0,-2.9804,-2.9804,0.0,0.0,0.0,0.0,0.0,0.0,0.0,0.0,0.0,0.0,0.0,0.0,0.0,0.0,0.0,0.0,0.0,0.0,0.0,0.0,0.0,2.8319,2.8222,2.8575,2.8622,2.8463,2.8125,0.0,0.0,0.0,0.0,2.761,2.761,2.761,2.7769,2.8158,2.9175,3.0013,3.0702,3.1719,3.2347,3.2617,3.2317,3.1752,3.0955,3.051,0.0,0.0,0.0,0.0,0.0,0.0,0.0,0.0,0.0,0.0,0.0,0.0,0.0,0.0,0.0,0.0,0.0,0.0,0.0,0.0,0.0,0.0,0.0,0.0,0.0,0.0,0.0,0.0,0.0,0.0,0.0,0.0,0.0,0.0,0.0,0.0,0.0,0.0,0.0,-0.0,-0.0,-0.0,-0.2682,-0.5554,0.0,0.0,0.0,0.0,0.0,0.0,0.0,0.0,0.0,-1.747,-1.9036,-2.0255,-2.1097,-2.263,-2.3572,-2.4141,-2.4336,-2.4414,-2.4506,-2.6864,-2.7805,-2.7689,-3.0007,-3.0758,-3.0231,-2.993,-3.0062,-3.0495,0.0,0.0,0.0,0.0,-3.4013,-3.4177,0.0,0.0,0.0,0.0,0.0,0.0,0.0,0.0,0.0,0.0,0.0,0.0,2.9361,2.9154,2.9092,2.9393,2.943,2.9186,2.8511,2.8367,0.0,0.0,2.746,2.741,2.761,2.779,2.8158,2.8846,3.0133,3.112,3.175,3.2946,3.3484,3.3484,3.3484,3.2856,3.1721,3.1131,3.0291,2.9254,0.0,0.0,0.0,0.0,0.0,0.0,0.0,0.0,0.0,0.0,0.0,0.0,0.0,0.0,0.0,0.0,0.0,0.0,0.0,0.0,0.0,0.0,0.0,0.0,0.0,0.0,0.0,0.0,0.0,0.0,0.0,0.0,0.0,0.0,0.0,0.0,0.0,-0.0,-0.0,-0.0,-0.2684,-0.555,0.0,0.0,0.0,0.0,0.0,0.0,-1.431,-1.5417,-1.6326,-1.6914,-1.8783,-2.0053,-2.0702,-2.2939,-2.4291,-2.459,-2.4707,-2.4746,-2.4839,-2.7252,-2.8231,-2.8206,-3.0542,-3.1311,-3.0758,-3.0231,-2.9905,-2.9856,-3.0545,-3.082,-3.1044,-3.2947,-3.3671,-3.3808,0.0,0.0,0.0,0.0,0.0,0.0,0.0,0.0,0.0,0.0,0.0,2.9361,2.9406,2.9982,3.011,2.947,2.9501,2.929,2.8542,2.7959,2.761,2.761,2.6961,2.6931,2.761,2.8218,2.8876,2.9535,3.0851,3.1809,3.2467,3.3185,3.3484,3.3484,3.3484,3.3125,3.2467,3.2408,3.1574,3.0147,2.9317,0.0,0.0,0.0,0.0,0.0,0.0,0.0,0.0,0.0,0.0,0.0,0.0,0.0,0.0,0.0,0.0,0.0,0.0,0.0,0.0,0.0,0.0,0.0,0.0,0.0,0.0,0.0,0.0,0.0,0.0,0.0,0.0,0.0,0.0,0.0,0.0,0.0,0.0,-0.0,-0.2684,0.0,0.0,0.0,0.0,-0.8405,-1.1048,-1.2771,-1.31,-1.5377,-1.6927,-1.7515,-1.8369,-1.9465,-2.0983,-2.2567,-2.3954,-2.5039,-2.5469,-2.5664,-2.5761,-2.8244,-2.9082,-2.8723,-3.1101,-3.1863,-3.1311,-3.0783,-3.0256,-2.9779,-2.9856,-2.9856,-3.0062,-3.1974,-3.2664,-3.2947,0.0,0.0,0.0,0.0,0.0,0.0,0.0,0.0,0.0,3.0518,2.9892,2.9879,3.1106,3.1155,3.1165,3.1303,3.0972,3.0288,2.9242,2.8134,2.757,2.761,2.6931,2.7111,2.8218,2.8876,2.9774,3.0821,3.2138,3.3125,3.3784,3.4472,3.4801,3.4801,3.4801,3.4412,3.3754,3.3335,3.2284,3.0845,3.0506,2.9334,0.0,0.0,0.0,0.0,0.0,0.0,0.0,0.0,0.0,0.0,0.0,0.0,0.0,0.0,0.0,0.0,0.0,0.0,0.0,0.0,0.0,0.0,0.0,0.0,0.0,0.0,0.0,0.0,0.0,0.0,0.0,0.0,0.0,0.0,0.0,0.0,0.0,-0.0,-0.2684,0.0,-0.8494,-0.8615,-0.8934,-0.9745,-1.1512,-1.3057,-1.4387,-1.5833,-1.7374,-1.8991,-1.9884,-2.1081,-2.2857,-2.4189,-2.5102,-2.5508,-2.5664,-2.611,-2.6935,-2.868,-2.9761,-3.0407,-3.2031,-3.2441,-3.1913,-3.1712,-3.111,-3.0306,-3.0306,-3.0306,-3.0413,-3.1325,-3.2264,-3.3318,0.0,0.0,0.0,0.0,0.0,0.0,0.0,0.0,0.0,3.0813,3.0584,3.0978,3.2495,3.2756,3.2896,3.3084,3.2519,3.1499,2.9925,2.8591,2.7779,2.761,2.738,2.7679,2.8577,2.9684,3.0881,3.2198,3.3275,3.4173,3.4831,3.528,3.5519,3.5519,3.5519,3.525,3.4801,3.4352,3.3295,3.1915,3.1435,3.039,2.9018,0.0,0.0,0.0,0.0,0.0,0.0,0.0,0.0,0.0,0.0,0.0,0.0,0.0,0.0,0.0,0.0,0.0,0.0,0.0,0.0,0.0,0.0,0.0,0.0,0.0,0.0,0.0,0.0,0.0,0.0,0.0,0.0,0.0,0.0,0.0,-0.0784,-0.2802,-0.3916,-0.5669,-0.856,-0.8642,-0.918,-1.0636,-1.1792,-1.3292,-1.5153,-1.6279,-1.7626,-1.9165,-2.0696,-2.2097,-2.3278,-2.5032,-2.5879,-2.5742,-2.5742,-2.611,-2.703,-2.868,-2.9852,-3.0687,-3.2351,-3.2867,-3.2516,-3.2516,-3.1964,-3.1135,-3.0959,-3.0884,-3.0889,-3.155,-3.2589,-3.3956,0.0,0.0,0.0,0.0,0.0,0.0,0.0,3.0751,3.092,3.0243,3.1393,3.2577,3.3355,3.4709,3.5284,3.4573,3.3951,3.2662,3.0619,2.9234,2.8222,2.766,2.8248,2.8637,2.8749,3.0638,3.2287,3.3576,3.4297,3.4895,3.5489,3.5489,3.5519,3.5519,3.5519,3.5549,3.5579,3.5579,3.4801,3.3483,3.1944,3.1656,3.1868,0.0,0.0,0.0,0.0,0.0,0.0,0.0,0.0,0.0,0.0,0.0,0.0,0.0,0.0,0.0,0.0,0.0,0.0,0.0,0.0,0.0,0.0,0.0,0.0,0.0,0.0,0.0,0.0,0.0,0.0,0.0,0.0,0.0,-0.0,-0.0,-0.2242,-0.8227,-0.6396,-0.5669,-0.8323,-0.8629,-0.9363,-1.0839,-1.2021,-1.3445,-1.5293,-1.6586,-1.7462,-1.8036,-2.086,-2.222,-2.2253,-2.5024,-2.6172,-2.5762,-2.5742,-2.5742,-2.5917,-2.8308,-2.9418,-2.9692,-3.1977,-3.3068,-3.3068,-3.3068,-3.2742,-3.219,-3.1637,-3.1411,-3.1574,-3.2462,-3.3426,-3.4743,0.0,0.0,0.0,0.0,0.0,0.0,0.0,3.0704,3.0616,3.0881,3.134,3.2293,3.3989,3.4573,3.4734,3.4592,3.3479,3.1908,2.9908,2.8529,2.7937,2.8336,2.8979,3.0251,3.2246,3.3308,3.4492,3.588,3.6546,3.6687,3.629,3.629,3.625,3.6207,3.6207,3.6477,3.6896,3.6896,3.6656,3.6178,3.4371,3.3006,3.2048,0.0,0.0,0.0,0.0,0.0,0.0,0.0,0.0,0.0,0.0,0.0,0.0,0.0,0.0,0.0,0.0,0.0,0.0,0.0,0.0,0.0,0.0,0.0,0.0,0.0,0.0,0.0,0.0,0.0,0.0,0.0,0.0,-0.0,-0.0,-0.0,-0.2242,-0.8227,-0.8414,-0.8289,-0.8816,-0.8981,-0.969,-1.1109,-1.2593,-1.4028,-1.5584,-1.7265,-1.8727,-1.9939,-2.1407,-2.2888,-2.4474,-2.5428,-2.6016,-2.6211,-2.5898,-2.6648,-2.8402,-2.8215,-2.951,-3.2064,-3.1865,-3.2239,-3.3068,-3.3068,-3.2993,-3.2792,-3.2215,-3.1989,-3.1938,-3.1838,-3.3172,-3.5328,0.0,0.0,0.0,0.0,0.0,0.0,0.0,3.0677,3.0697,3.0746,3.1582,3.2813,3.4327,3.4776,3.4981,3.5018,3.3458,3.1759,3.0021,2.895,2.8794,2.9817,3.0803,3.2332,3.4503,3.5253,3.6115,3.7238,3.725,3.7024,3.6631,3.6566,3.6516,3.6507,3.6746,3.7075,3.7404,3.7404,3.7404,3.7315,3.6178,3.505,3.3755,3.164,3.0788,3.0521,2.865,2.7854,2.7601,2.7267,0.0,0.0,0.0,0.0,0.0,0.0,0.0,0.0,0.0,0.0,0.0,0.0,0.0,0.0,0.0,0.0,0.0,0.0,0.0,0.0,0.0,0.0,0.0,0.0,-0.0,-0.0,-0.0,-0.2379,-0.4889,-0.6987,-0.8552,-0.938,-0.9157,-0.9205,-1.0152,-1.228,-1.3282,-1.4744,-1.6771,-1.7942,-1.9181,-2.0808,-2.2017,-2.3504,-2.5326,-2.599,-2.6309,-2.6387,-2.5937,-2.6476,-2.784,-2.8215,-2.951,0.0,-3.1865,-3.2438,-3.3068,-3.3068,-3.3068,0.0,0.0,0.0,0.0,0.0,-3.4392,-3.5969,0.0,0.0,0.0,0.0,0.0,0.0,0.0,3.0649,3.0852,3.0209,3.1968,3.3558,3.4303,3.4912,3.5284,3.5351,3.3439,3.1733,3.0555,3.0101,3.0479,3.1903,3.3205,3.4587,3.5991,3.6589,3.7206,3.7937,3.7144,3.6722,3.6753,3.6641,3.664,3.6626,3.7255,3.7554,3.7644,3.7644,3.7644,3.7644,3.7386,3.7067,3.6186,3.2602,3.182,3.2407,2.9931,2.8737,2.8267,2.8267,0.0,0.0,0.0,0.0,0.0,0.0,0.0,0.0,0.0,0.0,0.0,0.0,0.0,0.0,0.0,0.0,0.0,0.0,0.0,0.0,0.0,0.0,0.0,0.0,-0.0,-0.0,-0.0,-0.5322,-0.8274,-0.5743,-0.7886,-0.9545,-0.9388,-0.9408,-1.057,-1.3517,-1.3878,-1.5241,-1.8033,0.0,0.0,0.0,0.0,-2.4037,-2.5272,-2.6446,-2.6836,-2.6465,-2.6016,-2.5801,-2.6093,-2.8236,-2.9326,-2.9784,-3.1977,-3.2982,-3.3068,-3.3068,-3.3068,-3.3068,-3.3068,-3.3068,-3.33,-3.5278,-3.6132,-3.6526,0.0,0.0,0.0,0.0,0.0,0.0,0.0,3.0243,3.0277,3.0142,3.1495,3.278,3.3525,3.322,3.3186,3.3795,3.1907,3.0653,3.0491,3.0974,3.2112,3.4036,3.4943,3.6055,3.7412,3.7528,3.7947,3.869,3.7905,3.7589,3.7589,3.7437,3.7319,3.7255,3.7913,3.8512,3.902,3.902,3.902,3.8889,3.7477,3.7034,3.696,3.4566,3.3532,3.3093,3.1036,2.9899,2.9443,2.9443,2.8688,2.7763,2.7763,2.6438,0.0,0.0,0.0,0.0,0.0,0.0,0.0,0.0,0.0,0.0,0.0,0.0,0.0,0.0,0.0,0.0,0.0,0.0,0.0,0.0665,-0.0,-0.0,-0.0,-0.3339,-0.6542,-0.8623,-0.9419,-0.9662,-0.9395,-0.9598,-1.0509,-1.2238,-1.3663,-1.513,-1.6446,-1.8236,-1.9555,-2.0345,-2.2241,-2.3793,-2.4877,-2.6294,-2.6973,-2.6894,0.0,0.0,-2.7738,-2.7841,-2.905,-3.0866,-3.14,-3.2152,-3.3068,-3.3068,-3.3068,-3.3068,-3.3068,-3.3068,-3.324,-3.4511,-3.5521,-3.6369,0.0,0.0,0.0,0.0,0.0,0.0,0.0,3.0649,3.0649,3.0649,3.1321,3.2085,3.2814,3.1892,3.1466,3.1876,3.0333,2.9708,3.0473,3.1848,3.3707,3.6214,3.702,3.7864,3.8938,3.8937,3.9102,3.9506,3.8745,3.8327,3.8307,3.8154,3.803,3.7943,3.896,3.9589,3.9918,4.0277,4.0397,4.0293,3.9461,3.8708,3.7784,3.4748,3.3468,3.2997,3.1519,3.0658,3.0206,3.0206,2.9667,2.8846,2.8267,2.6953,2.5462,0.0,0.0,0.0,0.0,0.0,0.0,0.0,0.0,0.0,0.0,0.0,0.0,0.0,0.0,0.5946,0.0,0.0,0.3997,0.4036,0.1718,-0.1173,-0.4451,-0.4934,-0.6133,-0.9433,-0.9834,-0.97,-0.9612,-0.9734,-1.0748,-1.314,-1.4064,-1.5568,-1.7653,-1.884,-1.9832,-2.0868,-2.2323,-2.3844,-2.5056,-2.6161,-2.6699,-2.6699,-2.6269,-2.633,-2.6972,-2.8062,-2.9143,-3.0395,-3.1601,-3.2525,-3.3068,-3.3068,-3.3068,-3.3068,-3.3068,-3.3068,-3.324,-3.4262,-3.5359,-3.6369,0.0,0.0,0.0,0.0,0.0,0.0,0.0,0.0,3.092,3.0784,3.1016,3.1323,3.1624,3.0493,2.9648,2.9443,2.9036,2.9383,3.0712,3.2952,3.5365,3.8024,3.8971,3.9564,3.9901,4.0036,4.0104,4.0104,3.9301,3.8943,3.901,3.8872,3.8641,3.8452,3.9798,4.0397,4.0457,4.1115,4.1384,4.1384,4.0973,3.9838,3.8126,3.442,3.304,3.283,3.1818,3.106,3.0608,3.0482,3.0156,2.9624,2.8426,2.736,2.6318,2.5126,2.3134,0.0,0.0,0.0,0.0,0.0,0.0,0.0,0.0,0.0,0.8863,0.9017,0.8632,0.8461,0.8515,0.4402,0.2138,0.5808,0.2793,-0.2261,-0.8877,-0.7517,-0.6803,-0.9509,-0.9849,-0.9822,-0.9822,-1.0058,-1.1495,-1.4361,-1.4837,-1.6362,-1.9163,-1.9332,-2.0071,-2.1638,-2.2782,-2.4019,-2.5441,-2.6206,-2.6543,-2.6387,-2.6035,-2.5996,-2.6446,-2.8488,-2.9555,-3.0011,-3.2201,-3.3068,-3.3068,-3.3068,-3.3144,-3.3244,-3.3244,-3.3244,-3.3391,-3.4063,-3.5116,-3.6369,0.0,0.0,0.0,0.0,0.0,0.0,0.0,0.0,0.0,2.933,2.9909,3.0153,2.9462,2.8319,2.7179,2.6061,2.8521,3.0566,3.1546,3.4659,3.7165,3.8802,4.0223,4.0318,3.9049,3.9731,4.0095,4.0095,3.93,3.9189,3.9774,3.9624,3.9168,3.8452,3.9798,4.0397,4.0457,4.1115,4.1384,4.1232,3.9235,3.8031,3.7123,3.4658,3.3707,3.3515,3.1945,3.106,3.0532,3.0055,2.9854,2.9624,2.8426,2.736,2.6318,2.5126,2.3134,2.1033,2.0025,1.7948,1.6089,1.6289,1.4983,1.3854,0.0,0.0,1.0136,1.0406,0.9534,0.8737,0.8783,0.6205,0.3342,0.1187,0.0359,-0.2299,-0.8891,-0.9522,-0.9374,-0.9741,-0.9836,-0.9822,-0.9822,-1.114,-1.2689,-1.448,-1.5902,-1.7346,-1.8871,-1.9225,-2.0217,-2.2014,-2.3168,-2.4347,-2.5662,-2.689,-2.7148,-2.6387,-2.6348,-2.7182,-2.8676,-2.9146,-3.0285,-3.1822,-3.2747,-3.3068,-3.3068,-3.3068,-3.337,-3.3796,-3.3796,-3.3796,-3.3746,-3.3417,-3.4485,-3.6212,0.0,0.0,0.0,0.0,0.0,0.0,0.0,0.0,0.0,0.0,3.0275,3.012,2.9698,2.7886,2.6317,2.5377,2.7759,2.9978,3.1722,3.4951,3.7821,4.0189,4.0865,4.1081,4.0883,4.1184,4.1352,4.1352,4.1045,4.0754,4.0448,4.0452,4.0101,3.9589,4.0546,4.1175,4.1594,4.2252,4.21,4.1405,4.0481,3.8783,3.6649,3.5424,3.3875,3.2316,3.1625,3.0487,0.0,2.8919,2.8234,2.7308,2.6431,2.5859,2.5104,2.3288,2.2082,2.1016,1.9861,1.8226,1.6979,1.7108,1.5621,1.4154,1.4465,1.2526,1.0611,1.0792,0.9876,0.8994,0.9083,0.8129,0.5785,0.0,-0.0,-0.1586,-0.6332,-0.8418,-0.9633,-0.9713,-0.9625,-0.9632,-0.9802,-1.1261,-1.2808,-1.448,-1.6138,-1.764,-1.907,-1.9132,-1.9808,-2.1341,-2.2521,-2.3648,-2.4764,-2.6218,-2.6621,-2.6016,-2.6016,-2.6389,-2.7097,-2.8668,-3.0624,-3.2671,-3.2996,-3.3068,-3.3068,-3.3068,-3.3219,-3.342,-3.342,-3.342,-3.3507,-3.4247,-3.4857,-3.5521,0.0,0.0,0.0,0.0,0.0,0.0,0.0,0.0,0.0,0.0,0.0,3.0129,2.9676,2.7748,2.6244,2.5541,2.7478,2.9589,3.1629,3.4944,3.7922,4.0493,4.117,4.1644,4.1982,4.2388,4.2591,4.2591,4.2591,4.2119,4.1182,4.1182,4.0935,4.0427,4.1085,4.1743,4.2402,4.2713,4.2386,4.1475,4.0717,3.8721,3.6161,3.5083,3.3091,3.0934,3.0611,2.9487,2.8028,2.749,2.6622,2.5628,2.4911,2.4682,2.4341,2.1994,2.0836,2.0116,1.9222,1.8133,1.7246,1.771,1.6361,1.49,1.5047,1.3214,1.1469,1.1523,1.0249,0.911,0.9171,0.9265,0.76,0.2231,0.06,-0.1091,-0.4303,-0.7422,-0.9459,-0.9496,-0.9388,-0.9401,-0.9618,-1.1606,-1.3342,-1.448,-1.6434,-1.8056,-1.9239,-1.9038,-1.9612,-2.1152,-2.2285,-2.3372,-2.4537,-2.5791,-2.6172,-2.5742,-2.5742,-2.5976,-2.656,-2.897,-3.1187,-3.3068,-3.3068,-3.3068,-3.3068,-3.3068,-3.3169,-3.3294,-3.3294,-3.3294,-3.3518,-3.4966,-3.5319,-3.5359,0.0,0.0,0.0,0.0,0.0,0.0,0.0,0.0,0.0,0.0,0.0,0.0,0.0,2.763,2.6858,2.6286,2.8094,2.9898,3.1394,3.4858,3.7449,3.9005,4.1102,4.1948,4.1271,4.2658,4.3403,4.3403,4.3403,4.2883,4.1981,4.1981,4.1372,4.0427,4.1085,4.1743,4.2402,4.1849,4.1587,4.1363,3.8532,3.6664,3.5331,3.3148,3.126,2.9752,2.8736,2.8059,2.7275,2.5776,2.5521,2.5641,2.4527,2.4514,2.4341,2.1994,1.9679,1.7777,1.7777,0.0,1.6171,1.7691,1.7119,1.642,1.6994,1.4815,1.278,1.3214,1.0891,0.8988,0.913,0.9319,0.8341,0.5265,0.2116,-0.106,-0.4106,-0.7301,-0.9388,-0.9191,-0.9164,-0.9164,0.0,-1.2303,-1.4366,-1.4589,-1.7213,-1.8818,-1.8931,-1.8931,-1.9847,-2.1957,-2.2807,-2.3947,-2.5664,-2.6172,-2.6172,-2.5742,-2.5742,-2.66,-2.8443,-3.0882,-3.2374,-3.3068,-3.3068,-3.3068,-3.3068,-3.3068,-3.3395,-3.3872,-3.3872,-3.3872,-3.4048,-3.5122,-3.5789,-3.6132,0.0,0.0,0.0,0.0,0.0,0.0,0.0,0.0,0.0,0.0,0.0,0.0,0.0,0.0,0.0,0.0,2.8306,2.9335,3.07,3.3306,3.5652,3.7449,3.9648,4.0967,4.1204,4.2658,4.3403,4.3403,4.3944,4.3414,4.1981,4.1981,4.1403,4.0397,4.0636,4.1324,4.2342,4.0946,4.0399,4.0206,3.7322,3.5461,3.428,3.2003,2.9935,2.8082,0.0,2.5509,2.5196,2.394,2.3356,2.3125,2.2817,2.3133,2.3367,2.1747,1.9023,1.6791,0.0,0.0,1.6483,1.8028,1.7584,1.6901,1.7101,1.5071,1.3133,1.3158,1.0925,0.9051,0.9003,0.9342,0.9342,0.8344,0.3566,-0.1042,-0.4038,-0.7174,-0.9144,-0.9164,-0.9069,0.0,0.0,0.0,0.0,-1.4144,-1.7122,-1.8838,-1.8651,-1.8637,-1.9304,-2.077,-2.1925,-2.3221,-2.4313,-2.5756,-2.6172,-2.5742,-2.5742,-2.646,-2.7905,-2.9572,-3.0851,-3.1865,-3.2698,-3.3068,-3.3068,-3.3068,-3.3194,-3.3345,-3.3345,-3.3345,-3.3431,-3.3751,-3.4891,-3.629,0.0,0.0,0.0,0.0,0.0,0.0,0.0,0.0,0.0,0.0,0.0,0.0,0.0,0.0,0.0,0.0,0.0,2.9141,3.0294,3.1769,3.3416,3.5271,3.7019,3.8253,3.8987,4.0154,4.0921,4.1133,4.1866,4.1606,4.0483,4.0673,4.0386,3.9679,3.9679,4.0307,4.1189,3.9692,3.8734,3.8062,3.5624,3.3726,3.224,2.9985,2.8236,0.0,2.4265,2.3448,2.3297,2.2324,2.193,2.1894,2.1894,2.1845,2.1765,2.1391,1.912,0.0,0.0,1.8525,1.7358,1.8449,1.7908,1.7181,1.7275,1.5223,1.3209,1.3056,1.089,0.8994,0.879,0.9117,0.9442,0.9442,0.4117,-0.1123,-0.4189,-0.7134,-0.895,-0.9076,-0.8994,-0.8954,0.0,0.0,0.0,-1.3798,-1.6381,-1.7948,-1.8343,-1.833,-1.8822,-1.9851,-2.141,-2.2656,-2.3683,-2.5286,-2.6016,-2.5742,-2.5742,-2.6572,-2.8236,-2.905,-3.0305,-3.1952,-3.2698,-3.3068,-3.3068,-3.3068,-3.3068,-3.3068,-3.3068,-3.3068,-3.3154,-3.3556,-3.4733,-3.6263,0.0,0.0,0.0,0.0,0.0,0.0,0.0,0.0,0.0,0.0,0.0,0.0,0.0,0.0,0.0,0.0,0.0,0.0,3.0186,3.0285,3.0959,3.2482,3.3419,3.4244,3.4872,3.5635,3.6379,3.7003,3.7625,3.778,3.7561,3.8213,3.8341,3.8153,3.8123,3.8471,3.9056,3.7837,3.6513,3.5168,3.3249,3.1396,2.9499,2.73,2.6181,2.5366,2.2864,2.1962,2.1852,2.0954,2.1133,2.1855,2.1934,2.088,0.0,0.0,0.0,1.8544,1.9587,1.927,1.8662,1.8888,1.7974,1.7131,1.7397,1.5094,1.2921,1.289,1.0573,0.8506,0.0,0.0,0.8461,0.8468,0.3734,-0.1186,-0.4443,-0.7194,-0.8955,0.0,0.0,0.0,0.0,0.0,0.0,-1.3768,0.0,-1.649,-1.7941,-1.8063,-1.8559,-1.9569,-2.1179,-2.2639,-2.3683,-2.502,-2.5742,-2.5742,-2.5742,-2.6935,-2.9326,-2.9396,-3.0687,-3.2982,-3.3068,-3.3068,-3.3068,-3.3068,-3.3068,-3.3068,-3.3068,-3.3068,-3.324,-3.4262,-3.5278,-3.605,0.0,0.0,0.0,0.0,0.0,0.0,0.0,0.0,0.0,0.0,0.0,0.0,0.0,0.0,0.0,0.0,0.0,0.0,2.942,2.9121,2.9307,3.0188,3.2015,3.3143,3.3255,3.4613,3.5324,3.5517,3.6228,3.6206,3.5568,3.5724,3.5461,3.4741,3.4168,3.4522,3.5409,3.3278,3.2895,3.3483,3.0161,2.8802,2.8361,2.5884,2.4355,2.3515,2.2412,2.1753,2.1313,2.0742,2.0937,0.0,0.0,2.1658,2.0659,0.0,0.0,1.851,1.9894,1.8958,1.7599,1.7901,1.6924,1.5822,1.5805,1.3499,1.137,1.1075,0.9705,0.7808,0.0,0.0,0.0,0.2294,0.0952,0.0,-0.4443,-0.7567,0.0,-0.9259,0.0,-0.9211,-0.9055,-0.9405,0.0,0.0,-1.5233,-1.6686,-1.7941,-1.8263,-1.8877,-1.9911,-2.1171,-2.2367,-2.3683,-2.502,-2.5742,-2.5742,-2.5742,-2.6572,-2.8049,-2.8958,-3.0214,-3.1777,-3.2698,-3.3068,-3.3068,-3.3068,-3.3068,-3.3068,-3.3068,-3.3068,-3.3154,-3.3386,-3.4327,-3.5538,0.0,0.0,0.0,0.0,0.0,0.0,0.0,0.0,0.0,0.0,0.0,0.0,0.0,0.0,0.0,0.0,0.0,0.0,0.0,2.8436,2.81,2.8591,2.9529,3.0172,3.0454,3.1287,3.1903,3.2165,3.2908,3.3107,3.2946,3.3196,3.2942,3.2105,3.1707,3.1881,3.2283,3.0911,3.068,0.0,0.0,2.7557,2.6657,2.4694,2.3329,2.2436,2.1835,2.159,2.1504,2.1445,0.0,2.1953,2.2852,2.2296,2.1569,2.2986,0.0,1.9684,2.0459,1.9491,1.8184,1.7752,1.6832,1.6064,1.5395,1.3309,1.1353,1.0848,0.9462,0.7782,0.6067,0.2622,0.0,0.0,0.0,0.0,-0.2527,-0.6857,-0.9774,0.0,-0.9566,0.0,-0.9266,-0.9313,-1.057,0.0,-1.4665,-1.5963,-1.7941,-1.821,-1.8794,-1.9821,-2.1043,-2.2667,-2.4609,-2.5333,-2.5742,-2.5742,-2.5742,-2.6648,-2.8402,-2.9143,-3.0328,-3.204,0.0,-3.3068,-3.3068,-3.3068,-3.3068,-3.3068,-3.3068,-3.3068,-3.3154,-3.3641,-3.4357,-3.5405,0.0,0.0,0.0,0.0,0.0,0.0,0.0,0.0,0.0,0.0,0.0,0.0,0.0,0.0,0.0,0.0,0.0,0.0,0.0,0.0,2.7418,2.76,2.7021,2.6991,2.761,2.761,2.7859,2.8457,2.9026,2.9594,3.0133,3.0619,3.0513,2.9898,2.9717,2.9662,2.9527,2.9481,2.9065,2.8407,2.8108,2.6696,2.4707,0.0,2.2585,2.1824,2.1351,2.1477,2.2031,2.2272,2.2388,2.2598,2.3066,2.2744,2.241,2.3577,2.2604,2.1114,2.1065,2.0202,1.902,1.7884,1.7147,1.6278,1.5068,1.3271,1.1692,1.0914,0.8974,0.7585,0.7918,0.3638,-0.0,-0.0,0.0,-0.0,-0.0,-0.532,-0.9363,-0.9771,-0.9683,-0.9571,-0.9395,-0.9517,-1.0817,-1.3675,-1.373,-1.4977,-1.7886,-1.8103,-1.8573,-1.9849,-2.1456,-2.3384,-2.5645,-2.5742,-2.5742,-2.5742,-2.5742,-2.703,-2.9396,-2.9396,-3.0777,-3.3068,-3.3068,0.0,-3.3068,-3.3068,-3.3068,-3.3068,-3.3068,-3.3068,-3.324,-3.4262,-3.4767,-3.5295,0.0,0.0,0.0,0.0,0.0,0.0,0.0,0.0,0.0,0.0,0.0,0.0,0.0,0.0,0.0,0.0,0.0,0.0,0.0,0.0,0.0,2.758,2.752,2.749,2.761,2.761,2.767,2.7739,2.791,2.803,2.8068,2.7612,2.7267,2.7133,2.637,2.6256,2.6631,2.6427,2.6544,2.6703,2.5088,2.4154,2.3599,2.1756,0.0,0.0,2.095,2.1457,2.2291,2.1701,2.1976,2.2656,2.3437,2.3551,2.3577,2.4108,2.2709,2.1065,2.1377,1.9686,1.7884,1.7687,1.5644,1.3559,1.2983,1.0932,0.0,0.8636,0.6453,0.5336,0.761,0.3638,-0.0,-0.0,-0.0,-0.0,-0.0,-0.3352,-0.6699,0.0,-0.9834,-0.968,-0.9408,0.0,0.0,0.0,0.0,-1.5233,-1.83,-1.841,-1.932,-2.1269,-2.3683,-2.5216,-2.5742,-2.5742,-2.5742,-2.5742,-2.5742,-2.703,-2.9396,-2.9396,-3.0777,-3.3068,-3.3068,0.0,-3.3068,-3.3068,-3.3068,-3.3068,-3.3068,-3.3068,-3.324,-3.4262,-3.4177,-3.3779,0.0,0.0,0.0,0.0,0.0,0.0,0.0,0.0,0.0,0.0,0.0,0.0,0.0,0.0,0.0,0.0,0.0,0.0,0.0,0.0,0.0,0.0,0.0,0.0,2.761,2.761,2.761,0.0,0.0,2.7408,2.7049,0.0,0.0,2.5768,2.5314,2.5318,2.5769,2.5658,2.5642,2.5652,2.4707,2.3672,2.2616,0.0,0.0,0.0,0.0,2.2122,2.2785,2.2347,2.2465,2.291,2.332,2.3613,2.3867,2.4297,2.2763,2.1131,2.1689,1.9762,1.7582,1.7582,1.5756,1.3696,1.2656,0.0,0.0,0.8192,0.5892,0.3966,0.3881,0.1776,0.0,-0.0,-0.0,-0.0,-0.0,-0.2656,0.0,-0.9162,-0.9641,-0.9537,0.0,0.0,0.0,0.0,0.0,-1.6028,-1.8154,-1.9477,-2.0674,-2.1659,-2.4295,-2.5742,-2.5742,-2.5742,-2.5742,-2.5742,-2.5742,-2.703,-2.9396,-2.9396,-3.0777,-3.3068,-3.3068,0.0,-3.3068,-3.3068,-3.3068,-3.3068,-3.3068,-3.3068,-3.3129,-3.3669,-3.4204,-3.4681,0.0,0.0,0.0,0.0,0.0,0.0,0.0,0.0,0.0,0.0,0.0,0.0,0.0,0.0,0.0,0.0,0.0,0.0,0.0,0.0,0.0,0.0,0.0,0.0,0.0,0.0,0.0,0.0,0.0,0.0,0.0,0.0,0.0,0.0,0.0,0.0,2.5611,2.5737,2.5468,0.0,0.0,0.0,0.0,0.0,0.0,0.0,0.0,0.0,2.3057,2.2492,2.2492,2.2668,2.2403,2.2974,2.3887,2.4117,2.2643,2.1163,2.1903,1.9882,1.7569,1.7502,1.5931,1.4061,1.2563,1.0888,0.0,0.8179,0.5877,0.3147,0.0493,-0.0,-0.0386,0.0,-0.0798,-0.0,-0.0,-0.2611,-0.5704,0.0,-0.9415,0.0,-0.9334,0.0,0.0,0.0,0.0,0.0,-1.7941,-2.0327,-2.1744,-2.1744,-2.4295,-2.5742,-2.5742,-2.5742,-2.5742,-2.5742,-2.6014,-2.7295,-2.9396,-2.967,-3.0956,-3.3068,-3.3068,0.0,0.0,-3.3068,-3.3068,-3.3154,-3.3326,-3.3471,-3.3505,-3.3983,-3.5008,-3.6036,0.0,0.0,0.0,0.0,0.0,0.0,0.0,0.0,0.0,0.0,0.0,0.0,0.0,0.0,0.0,0.0,0.0,0.0,0.0,0.0,0.0,0.0,0.0,0.0,0.0,0.0,0.0,0.0,0.0,0.0,0.0,0.0,0.0,0.0,0.0,0.0,0.0,2.6163,0.0,0.0,0.0,0.0,0.0,0.0,0.0,0.0,0.0,0.0,2.2775,2.0584,0.0,2.1302,2.0223,2.1681,2.3764,2.3502,0.0,0.0,2.1903,1.9882,1.7515,1.7248,1.5076,1.2801,1.2071,0.0,0.8144,0.7985,0.5832,0.3207,0.0503,-0.0,-0.1576,-0.6448,-0.3183,-0.0,-0.0,-0.256,-0.5604,-0.8542,0.0,0.0,-0.9191,0.0,0.0,0.0,0.0,0.0,-1.8036,-2.0327,-2.1744,-2.1744,-2.4295,-2.5742,-2.5742,-2.5742,-2.5742,-2.5742,-2.6839,-2.8143,-2.9396,-3.0485,-3.1777,-3.3068,-3.3068,0.0,0.0,-3.3068,-3.3068,-3.324,-3.4204,-3.4594,-3.4733,-3.6682,-3.6835,-3.642,0.0,0.0,0.0,0.0,0.0,0.0,0.0,0.0,0.0,0.0,0.0,0.0,0.0,0.0,0.0,0.0,0.0,0.0,0.0,0.0,0.0,0.0,0.0,0.0,0.0,0.0,0.0,0.0,0.0,0.0,0.0,0.0,0.0,0.0,0.0,0.0,0.0,0.0,0.0,0.0,0.0,0.0,0.0,0.0,0.0,0.0,0.0,0.0,0.0,0.0,0.0,0.0,1.8975,1.9629,2.0997,0.0,2.0523,1.9667,2.0364,1.9107,1.7515,1.7221,1.495,1.2598,1.2051,0.0,0.8052,0.7985,0.5892,0.3153,0.0489,-0.0,-0.1716,-0.7143,-0.623,0.0,-0.2669,-0.4914,-0.7263,-0.8587,-0.892,0.0,0.0,0.0,0.0,0.0,0.0,0.0,-1.7756,-2.0308,-2.1544,-2.1329,-2.4165,-2.5605,-2.5332,-2.5605,-2.5742,-2.5742,-2.703,-2.8086,-2.897,-3.0524,-3.1695,-3.2566,-3.2918,0.0,0.0,-3.3068,-3.3068,-3.324,-3.4262,-3.4677,-3.487,-3.6269,-3.658,-3.6542,0.0,0.0,0.0,0.0,0.0,0.0,0.0,0.0,0.0,0.0,0.0,0.0,0.0,0.0,0.0,0.0,0.0,0.0,0.0,0.0,0.0,0.0,0.0,0.0,0.0,0.0,0.0,0.0,0.0,0.0,0.0,0.0,0.0,0.0,0.0,0.0,0.0,0.0,0.0,0.0,0.0,0.0,0.0,0.0,0.0,0.0,0.0,0.0,0.0,0.0,0.0,1.9974,1.7735,1.7402,1.8076,1.9236,1.8985,1.8528,1.9194,1.8334,1.7248,1.6967,1.4784,1.2516,0.0,0.0,0.8052,0.7985,0.5857,0.3214,0.0482,-0.0,-0.1213,-0.4988,0.0,-0.7324,-0.5403,-0.7009,-0.837,0.0,0.0,0.0,0.0,0.0,0.0,0.0,0.0,0.0,0.0,-2.0231,-2.1478,-2.1016,-2.3962,-2.5391,-2.5078,-2.5371,-2.5605,-2.5742,-2.7315,-2.8348,-2.8679,-3.0808,-3.192,-3.224,-3.2817,0.0,0.0,-3.3018,-3.3224,-3.3469,-3.4653,-3.5386,-3.5734,-3.675,-3.7164,-3.737,0.0,0.0,0.0,0.0,0.0,0.0,0.0,0.0,0.0,0.0,0.0,0.0,0.0,0.0,0.0,0.0,0.0,0.0,0.0,0.0,0.0,0.0,0.0,0.0,0.0,0.0,0.0,0.0,0.0,0.0,0.0,0.0,0.0,0.0,0.0,0.0,0.0,0.0,0.0,0.0,0.0,0.0,0.0,0.0,0.0,0.0,0.0,0.0,0.0,0.0,0.0,0.0,0.0,1.5295,1.5499,1.769,1.8273,1.8156,1.8566,1.7683,1.6647,1.6353,1.4382,1.2323,0.0,0.9895,0.8052,0.7985,0.5857,0.3229,0.049,-0.0,-0.0,-0.0097,-0.4538,0.0,-0.7959,-0.8208,-0.8289,0.0,0.0,0.0,0.0,0.0,0.0,0.0,0.0,0.0,0.0,-2.0231,-2.1478,-2.1016,-2.3684,-2.5078,-2.5059,-2.5078,-2.5293,-2.5742,-2.8215,-2.9149,-2.8679,-3.1734,-3.2767,0.0,0.0,0.0,0.0,-3.2842,-3.3367,-3.3993,-3.5568,-3.6838,-3.7919,-3.8943,-3.9337,-3.9337,0.0,0.0,0.0,0.0,0.0,0.0,0.0,0.0,0.0,0.0,0.0,0.0,0.0,0.0,0.0,0.0,0.0,0.0,0.0,0.0,0.0,0.0,0.0,0.0,0.0,0.0,0.0,0.0,0.0,0.0,0.0,0.0,0.0,0.0,0.0,0.0,0.0,0.0,0.0,0.0,0.0,0.0,0.0,0.0,0.0,0.0,0.0,0.0,0.0,0.0,0.0,0.0,0.0,0.0,0.0,1.6292,1.6524,1.6594,1.6995,1.6851,1.6434,1.5233,1.3667,1.2124,1.0923,0.9213,0.8052,0.7985,0.5857,0.3214,0.0482,-0.0,-0.0559,-0.248,-0.3964,0.0,0.0,0.0,0.0,0.0,0.0,0.0,0.0,0.0,0.0,0.0,0.0,0.0,0.0,-2.0743,-2.1478,-2.1016,-2.3962,-2.5371,-2.5078,-2.5371,-2.5605,-2.5742,-2.8215,-2.888,-2.8076,-3.1064,-3.219,0.0,0.0,0.0,0.0,-3.2566,-3.3239,-3.455,-3.5732,-3.6704,-3.7595,-3.8914,-3.9409,-3.9409,0.0,0.0,0.0,0.0,0.0,0.0,0.0,0.0,0.0,0.0,0.0,0.0,0.0,0.0,0.0,0.0,0.0,0.0,0.0,0.0,0.0,0.0,0.0,0.0,0.0,0.0,0.0,2.7279,2.6947,0.0,0.0,0.0,0.0,0.0,0.0,0.0,0.0,0.0,0.0,0.0,0.0,0.0,2.2559,0.0,0.0,0.0,0.0,0.0,0.0,0.0,0.0,0.0,0.0,0.0,0.0,0.0,1.5671,1.5725,1.6032,1.6233,1.6019,1.4545,1.3139,0.0,1.0323,0.8924,0.8052,0.7985,0.5826,0.3181,0.0477,-0.0,-0.1104,-0.4601,-0.5251,0.0,0.0,0.0,0.0,0.0,0.0,0.0,0.0,0.0,0.0,0.0,0.0,0.0,0.0,-2.082,-2.1595,-2.2008,-2.4309,-2.5352,-2.5059,-2.5352,-2.5759,-2.6476,-2.8228,-2.888,-2.8545,-3.1076,-3.1913,0.0,0.0,0.0,0.0,-3.2365,-3.3282,-3.5063,-3.5596,-3.6747,-3.8177,-3.906,-3.9409,-3.9409,0.0,0.0,0.0,0.0,0.0,0.0,0.0,0.0,0.0,0.0,0.0,0.0,0.0,0.0,0.0,0.0,0.0,0.0,0.0,0.0,0.0,0.0,0.0,0.0,0.0,2.6841,2.6705,2.717,2.6343,2.6159,2.6661,2.6595,0.0,0.0,0.0,0.0,0.0,2.2957,2.1835,2.1309,2.1758,2.2187,0.0,0.0,0.0,0.0,0.0,0.0,0.0,0.0,0.0,0.0,0.0,0.0,0.0,0.0,0.0,0.0,0.0,1.5832,0.0,0.0,0.0,0.0,1.019,0.8924,0.0,0.7985,0.5869,0.3136,0.0476,-0.0185,-0.1719,-0.6115,-0.7463,0.0,0.0,0.0,0.0,0.0,0.0,0.0,0.0,0.0,0.0,0.0,0.0,0.0,0.0,-2.048,-2.1824,-2.3727,-2.4641,-2.5039,-2.5059,-2.5192,-2.6034,-2.7537,-2.8382,-2.9072,-2.9677,-3.1437,-3.1888,0.0,0.0,0.0,0.0,-3.2298,-3.3564,-3.5592,-3.5398,-3.7044,-3.9409,-3.9409,-3.9409,-3.9409,0.0,0.0,0.0,0.0,0.0,0.0,0.0,0.0,0.0,0.0,0.0,0.0,0.0,0.0,0.0,0.0,0.0,0.0,0.0,0.0,0.0,0.0,0.0,0.0,0.0,2.6602,2.6412,2.6243,2.6012,2.6141,2.6578,2.6526,2.6533,2.6533,2.6533,2.5487,2.3841,2.3705,2.2934,2.1777,2.2187,2.2617,0.0,0.0,0.0,0.0,2.3144,2.3144,0.0,0.0,0.0,0.0,0.0,0.0,0.0,0.0,1.5725,0.0,0.0,0.0,0.0,0.0,1.2145,1.1268,0.0,0.8237,0.8052,0.7985,0.0,0.0,0.0,-0.1478,-0.3077,-0.4235,0.0,0.0,0.0,0.0,0.0,0.0,0.0,0.0,0.0,0.0,0.0,0.0,0.0,0.0,0.0,-2.0851,-2.1935,-2.4699,-2.4598,-2.4727,-2.5059,-2.6324,-2.7025,-2.7054,-2.9466,-3.0208,-2.9677,-3.1437,-3.1687,0.0,0.0,0.0,-3.3456,-3.3456,-3.4977,-3.7206,-3.6892,-3.7866,-3.9409,-3.9409,-3.9409,-3.9409,0.0,0.0,0.0,0.0,0.0,0.0,0.0,0.0,0.0,0.0,0.0,0.0,0.0,0.0,0.0,0.0,0.0,0.0,0.0,0.0,0.0,0.0,0.0,0.0,0.0,2.6406,2.6183,2.5906,2.5818,2.6049,2.6533,2.6533,2.6533,2.6465,2.5581,2.4541,2.3475,2.2843,2.2285,2.1894,2.2129,0.0,0.0,0.0,0.0,0.0,2.3144,2.3144,0.0,2.2315,2.0944,1.9405,0.0,0.0,0.0,0.0,1.5832,0.0,0.0,0.0,1.5153,1.2533,1.195,1.1268,0.8627,0.8038,0.8031,0.8004,0.0,0.0,0.0,0.0,0.0,0.0,-0.6632,0.0,0.0,0.0,0.0,0.0,0.0,0.0,0.0,0.0,0.0,0.0,0.0,0.0,0.0,-2.0784,-2.1822,-2.4672,-2.4531,-2.4531,-2.4766,-2.6496,-2.7416,-2.78,-2.9843,-3.0697,-3.0455,-3.1689,-3.1612,0.0,0.0,0.0,-3.3807,-3.3569,-3.5128,-3.771,-3.7063,-3.7825,-3.9439,-3.9414,-3.9371,-3.94,0.0,0.0,0.0,0.0,0.0,0.0,0.0,0.0,0.0,0.0,0.0,0.0,0.0,0.0,0.0,0.0,0.0,0.0,0.0,0.0,0.0,0.0,0.0,0.0,2.6336,2.6217,2.6072,2.572,2.5714,2.5988,2.6533,2.6609,2.6471,2.6164,2.4469,2.3599,2.3158,2.1609,2.1292,2.1894,2.1953,0.0,0.0,0.0,0.0,0.0,0.0,0.0,0.0,2.3144,2.1498,1.9497,1.9497,0.0,0.0,0.0,0.0,0.0,1.5832,1.5832,1.5248,1.2823,1.2037,1.1268,0.8825,0.8137,0.8018,0.8034,0.0,0.0,0.0,-0.0,0.0,0.0,0.0,0.0,0.0,0.0,0.0,0.0,0.0,0.0,0.0,0.0,0.0,0.0,0.0,0.0,0.0,-2.0616,-2.1742,-2.4224,-2.4375,-2.4447,-2.4473,-2.6381,-2.7731,-2.8656,-3.0044,-3.0918,-3.1286,-3.1838,-3.1562,-3.0658,0.0,0.0,-3.4047,-3.3674,-3.5328,-3.7936,-3.7071,-3.7841,-3.9427,-3.9372,-3.961,-4.0025,0.0,0.0,0.0,0.0,0.0,0.0,0.0,0.0,0.0,0.0,0.0,0.0,0.0,0.0,0.0,0.0,0.0,0.0,0.0,0.0,0.0,0.0,0.0,2.6967,2.5632,2.5992,2.5775,2.5,2.5879,2.6433,2.6533,2.6942,2.647,2.5229,2.4945,2.3818,2.2209,2.2303,2.2169,2.1914,2.2266,0.0,0.0,0.0,0.0,0.0,0.0,0.0,0.0,2.3144,2.1498,1.9497,1.9497,0.0,0.0,0.0,0.0,0.0,1.5832,1.5832,1.5439,1.3968,1.2716,1.156,1.0002,0.8825,0.8045,0.7959,0.0,0.0,0.0,-0.0,-0.1044,0.0,0.0,0.0,0.0,0.0,0.0,0.0,0.0,0.0,0.0,0.0,0.0,0.0,0.0,0.0,0.0,-2.1327,-2.2392,-2.3887,-2.4238,-2.4496,-2.476,-2.7608,-2.87,-2.8051,-3.0676,-3.1522,-3.0758,-3.1286,-3.1185,-3.0683,0.0,-3.3216,-3.5228,-3.5535,-3.7082,-3.9162,-3.9,-3.9106,-3.9402,-3.9432,-4.0786,-4.2697,0.0,0.0,0.0,0.0,0.0,0.0,0.0,0.0,0.0,0.0,0.0,0.0,0.0,0.0,0.0,0.0,0.0,0.0,0.0,0.0,0.0,0.0,2.7528,2.6931,2.5825,2.6345,2.6169,2.5234,2.6063,2.6533,2.6465,2.6202,2.5683,2.4945,2.3891,2.2992,2.2339,2.2043,2.2008,2.2246,0.0,0.0,0.0,0.0,0.0,0.0,0.0,0.0,0.0,0.0,2.1498,1.9497,1.9497,0.0,0.0,0.0,0.0,0.0,1.5832,1.5832,1.5534,1.4268,1.2909,1.1365,0.941,0.8428,0.8024,0.797,0.0,0.0,0.0,0.0,-0.4781,0.0,0.0,0.0,0.0,0.0,0.0,0.0,0.0,0.0,0.0,0.0,0.0,0.0,0.0,0.0,0.0,0.0,-2.239,-2.3349,-2.4366,-2.5009,-2.51,-2.8007,-2.9127,-2.8472,-3.1013,-3.1788,-3.106,-3.1587,-3.1863,-3.1913,0.0,-3.4312,-3.6297,-3.6552,-3.775,-3.9409,-3.9409,-3.9371,-3.958,-4.098,-4.2274,-4.3332,0.0,0.0,0.0,0.0,0.0,0.0,0.0,0.0,0.0,0.0,0.0,0.0,0.0,0.0,0.0,0.0,0.0,0.0,0.0,0.0,0.0,0.0,2.7287,2.6946,2.6238,2.669,2.6489,2.5586,2.644,2.6841,2.6841,2.5562,2.485,2.4564,2.2765,2.2137,2.2282,2.1531,2.1719,2.2519,0.0,0.0,0.0,0.0,0.0,0.0,0.0,0.0,0.0,0.0,0.0,0.0,0.0,0.0,0.0,1.5819,1.5725,1.5725,1.5725,1.5778,1.5439,1.3872,1.2909,1.1648,0.9015,0.8428,0.8407,0.8021,0.641,0.0,0.0,-0.7273,0.0,0.0,0.0,0.0,0.0,0.0,0.0,0.0,0.0,0.0,0.0,0.0,0.0,0.0,0.0,0.0,0.0,0.0,-2.2479,-2.3057,-2.4676,-2.5564,-2.5679,-2.8425,-2.9511,-2.8892,-3.0918,-3.1537,-3.1035,-3.1587,-3.2158,-3.2777,-3.3463,-3.5018,-3.6966,-3.7139,-3.8033,-3.9409,-3.9409,-3.9738,-4.0574,-4.2591,-4.3259,-4.3383,0.0,0.0,0.0,0.0,0.0,0.0,0.0,0.0,0.0,0.0,0.0,0.0,0.0,0.0,0.0,0.0,0.0,0.0,0.0,0.0,0.0,0.0,0.0,2.6946,2.6238,2.6578,2.6362,2.5586,2.7193,2.7996,2.7971,2.59,2.4492,2.3599,2.2467,2.1696,2.1311,2.123,2.1719,2.2519,2.2519,0.0,0.0,0.0,0.0,0.0,0.0,0.0,0.0,0.0,0.0,0.0,0.0,0.0,1.6843,1.5787,1.5431,1.5431,1.5431,1.5618,1.5248,1.263,1.2909,1.3102,1.0485,0.9903,0.9509,0.8251,0.7865,0.0,0.0,-0.5112,0.0,0.0,0.0,0.0,0.0,0.0,0.0,0.0,0.0,0.0,0.0,0.0,0.0,0.0,0.0,0.0,0.0,-2.2711,-2.3504,-2.3144,-2.4982,-2.6171,-2.6467,-2.9036,-2.9806,-2.8786,-3.0096,-3.0432,-2.993,-3.0482,-3.1212,-3.217,-3.3278,-3.4913,-3.6893,-3.7526,-3.8413,-3.9409,-3.9409,-4.0872,-4.3055,-4.3223,-4.326,-4.3812,0.0,0.0,0.0,0.0,0.0,0.0,0.0,0.0,0.0,0.0,0.0,0.0,0.0,0.0,0.0,0.0,0.0,0.0,0.0,0.0,0.0,0.0,0.0,2.6289,2.6015,2.6479,2.6686,2.664,2.7293,2.7419,2.7067,2.5039,2.3891,2.3452,2.1811,2.1192,2.125,2.1523,2.1973,2.2539,2.2793,2.2988,0.0,0.0,0.0,0.0,0.0,0.0,0.0,0.0,2.1212,1.9951,1.878,1.7353,1.6007,1.5575,1.5271,1.5164,1.5351,1.5471,1.5123,1.355,1.3488,1.3006,0.9509,0.8726,0.8627,0.8151,0.7972,0.0,0.0,0.0,0.0,0.0,0.0,0.0,0.0,0.0,0.0,0.0,0.0,0.0,0.0,0.0,0.0,0.0,0.0,0.0,0.0,-2.2644,-2.3652,-2.4125,-2.5573,-2.6674,-2.7441,-2.9528,-3.0163,-2.9426,-3.0867,-3.1311,-3.0783,-3.1009,-3.2199,-3.4159,-3.4594,-3.6164,-3.8413,-3.8679,-3.9032,-3.9416,-3.937,-4.1023,-4.3582,-4.5939,-4.6869,-4.7039,0.0,0.0,0.0,0.0,0.0,0.0,0.0,0.0,0.0,0.0,0.0,0.0,0.0,0.0,0.0,0.0,0.0,0.0,0.0,0.0,2.639,2.6176,2.6018,2.5782,2.5558,2.622,2.6755,2.7017,2.7017,2.6776,2.6272,2.4847,2.3897,2.3229,2.203,2.1531,2.166,2.1953,2.2324,2.2734,2.3027,2.3144,0.0,0.0,0.0,0.0,0.0,0.0,0.0,0.0,2.0747,1.9736,1.8103,1.6747,1.5763,1.5228,1.4977,1.4883,1.5177,1.5324,1.5086,1.3622,1.3295,1.2328,0.8817,0.8336,0.8528,0.8038,0.7347,0.4839,-0.1418,0.0,0.0,0.0,0.0,0.0,0.0,0.0,0.0,0.0,0.0,0.0,0.0,0.0,0.0,0.0,0.0,0.0,0.0,-2.2668,-2.3627,-2.4787,-2.588,-2.7035,-2.8084,-2.9727,-3.0432,-3.0055,-3.1336,-3.1662,-3.116,-3.1432,-3.2883,-3.5128,-3.5627,-3.7049,-3.911,-3.932,-3.9666,-3.9966,-3.9606,-4.1023,-4.3772,-4.7605,-4.8981,-4.8957,0.0,0.0,0.0,0.0,0.0,0.0,0.0,0.0,0.0,0.0,0.0,0.0,0.0,0.0,0.0,0.0,0.0,0.0,0.0,2.6945,2.6176,2.5467,2.5721,2.5558,2.4833,2.5912,2.6533,2.6533,2.6533,2.6272,2.5803,2.5827,2.4694,2.2751,2.3213,2.3125,2.25,2.2519,2.2754,2.3125,2.3144,2.3144,2.3144,0.0,0.0,0.0,0.0,0.0,0.0,0.0,2.1302,2.0766,1.8065,1.7026,1.6448,1.4939,1.4522,1.4589,1.4883,1.5177,1.4795,1.2469,1.195,1.117,0.8627,0.9023,0.9608,0.8237,0.5927,0.1614,-0.6535,0.0,0.0,0.0,0.0,0.0,0.0,0.0,0.0,0.0,0.0,0.0,0.0,0.0,0.0,0.0,0.0,0.0,0.0,-2.3144,-2.3627,-2.4787,-2.588,-2.7035,-2.8084,-2.9727,-3.0608,-3.0608,-3.1135,-3.111,-3.0608,-3.1526,-3.2863,-3.4519,-3.6105,-3.7375,-3.8452,-3.914,-4.0184,-4.1277,-3.9934,-4.1056,-4.3817,-4.7604,-4.9019,-4.9018,0.0,0.0,0.0,0.0,0.0,0.0,0.0,0.0,0.0,0.0,0.0,0.0,0.0,0.0,0.0,0.0,0.0,0.0,0.0,2.6945,2.6176,2.5467,2.5721,2.5558,2.4833,2.5912,2.6533,2.6533,2.6841,2.6596,2.5607,2.5015,2.4116,2.3133,2.2595,2.2264,2.209,2.2383,2.2578,2.2715,2.3027,2.3144,2.3144,0.0,0.0,0.0,0.0,0.0,0.0,0.0,0.0,0.0,1.6729,1.5888,1.5459,1.5034,1.4683,1.4589,1.4883,1.4513,0.0,1.3431,0.0,0.0,0.0,0.9023,0.8471,0.8106,0.7389,0.3668,-0.6674,0.0,0.0,0.0,0.0,0.0,0.0,0.0,0.0,0.0,0.0,0.0,0.0,0.0,0.0,0.0,0.0,0.0,0.0,-2.3887,-2.4787,-2.5964,-2.7035,-2.8187,-2.9287,-3.0173,-3.0407,-3.0055,-3.1215,-3.1421,-3.0608,-3.1526,-3.2966,-3.4594,-3.5723,-3.7331,-3.92,-3.998,-4.077,-4.1472,-4.191,-4.4257,-4.746,-4.8563,-4.9019,-4.9018,0.0,0.0,0.0,0.0,0.0,0.0,0.0,0.0,0.0,0.0,0.0,0.0,0.0,0.0,0.0,0.0,0.0,0.0,0.0,0.0,2.629,2.5743,2.5828,2.5766,2.546,2.6113,2.6533,2.6533,2.6791,2.6547,2.568,2.5298,2.457,2.3614,2.3267,2.2784,2.2402,2.2656,2.2754,2.2793,2.3027,2.3144,2.3144,0.0,0.0,0.0,0.0,0.0,0.0,0.0,0.0,0.0,1.5882,1.5164,1.4763,1.4643,1.4213,1.3774,1.4142,1.3481,0.0,1.2362,1.1161,0.9903,0.9312,0.0,0.0,0.0,0.7303,0.4914,-0.5156,0.0,0.0,0.0,0.0,0.0,0.0,0.0,0.0,0.0,0.0,0.0,0.0,0.0,0.0,0.0,0.0,0.0,0.0,-2.4467,-2.5546,-2.7116,-2.7763,-2.8688,-2.9804,-3.0131,-3.0131,-2.9804,-3.1109,-3.1418,-3.0855,-3.2219,-3.3615,-3.5215,-3.6418,-3.7866,-3.9499,-4.0323,-4.095,-4.1511,-4.2775,-4.5635,-4.8993,-4.8992,-4.8976,-4.9018,0.0,0.0,0.0,0.0,0.0,0.0,0.0,0.0,0.0,0.0,3.119,0.0,0.0,0.0,0.0,0.0,0.0,0.0,0.0,0.0,2.6548,2.6293,2.6035,2.6091,2.6508,2.6533,2.6533,2.6533,2.6533,2.6297,2.5898,2.6174,2.561,2.4282,2.4598,2.4125,2.3144,2.3212,2.3212,2.3144,2.3144,2.3144,2.3144,2.3144,0.0,0.0,0.0,0.0,0.0,0.0,0.0,0.0,1.5404,1.4763,1.4469,1.4202,1.3448,1.2727,1.2948,1.2188,0.0,1.0245,0.9903,0.0,0.8237,0.7959,0.7196,0.4526,0.0,0.4993,0.0,0.0,0.0,0.0,0.0,0.0,0.0,0.0,0.0,0.0,0.0,0.0,0.0,0.0,0.0,0.0,0.0,0.0,0.0,-2.4872,-2.5942,-2.8004,-2.8164,-2.8767,-2.9804,-2.9804,-2.9856,-2.9934,-3.0895,-3.1389,-3.1536,-3.3227,-3.4733,-3.6143,-3.7742,-3.8781,-3.9499,-4.0412,-4.0992,-4.1576,-4.2997,-4.5782,-4.8994,-4.9034,-4.9018,-4.9018,0.0,0.0,0.0,0.0,0.0,0.0,0.0,0.0,0.0,0.0,0.0,0.0,0.0,0.0,0.0,0.0,0.0,0.0,0.0,0.0,2.7627,2.7014,2.6112,2.5937,2.6508,2.6533,2.6533,2.6533,2.6533,2.6448,2.632,2.5578,2.4974,2.464,2.4745,2.4125,2.3144,2.4039,2.3887,2.3144,2.3144,2.3144,2.3144,2.3144,2.3144,0.0,0.0,0.0,0.0,0.0,0.0,0.0,1.5147,1.4763,1.4509,1.4442,1.3724,1.2948,1.2995,1.166,0.0,0.0,0.9213,0.8336,0.8038,0.7965,0.7202,0.4526,0.2817,0.0,0.0,0.0,0.0,0.0,0.0,0.0,0.0,0.0,0.0,0.0,0.0,0.0,0.0,0.0,0.0,0.0,0.0,0.0,-2.4702,-2.563,-2.6707,-2.8084,-2.8949,-2.9546,-2.9804,-2.9804,-3.0139,0.0,-3.1829,-3.2664,-3.3394,-3.3808,-3.5146,-3.7159,-3.8023,-3.8781,-3.9469,-4.0883,-4.1444,-4.1678,-4.4484,-4.7013,-4.8994,-4.9034,-4.9018,-4.9018,0.0,0.0,0.0,0.0,0.0,0.0,0.0,0.0,0.0,0.0,0.0,0.0,0.0,0.0,0.0,0.0,0.0,0.0,0.0,0.0,0.0,0.0,2.6971,2.6585,2.6508,2.6533,2.6533,2.6533,2.6533,2.6735,2.7261,2.6159,2.5599,2.5546,2.5041,2.4125,2.3144,2.3714,2.3627,2.3144,2.3144,2.3144,2.3144,2.3144,2.3144,2.3144,2.3144,0.0,0.0,0.0,0.0,0.0,0.0,0.0,1.4223,1.3595,1.3161,1.2586,0.0,0.0,0.0,0.9197,0.0,0.8045,0.7952,0.7972,0.7604,0.6235,0.0,0.0,0.0,0.0,0.0,0.0,0.0,0.0,0.0,0.0,0.0,0.0,0.0,0.0,0.0,0.0,0.0,0.0,0.0,-2.38,-2.5546,-2.6152,-2.7221,-2.8846,-2.9443,-2.9804,-2.9804,-3.0292,-3.0696,-3.1241,-3.2593,-3.3739,-3.4706,-3.4706,-3.5503,-3.7015,-3.7644,-3.8302,-3.9062,-4.0567,-4.1426,-4.1928,-4.3975,-4.655,-4.8983,-4.8996,-4.9018,-4.9018,0.0,0.0,0.0,0.0,0.0,0.0,0.0,0.0,0.0,0.0,0.0,0.0,0.0,0.0,0.0,0.0,0.0,0.0,0.0,0.0,0.0,0.0,2.7668,2.7162,2.6533,2.6533,2.6533,2.6533,2.6565,2.7118,2.8097,2.7037,2.6566,2.673,2.563,2.4467,2.3387,2.3387,2.3299,2.3144,2.3144,2.3144,2.3144,2.3144,2.3144,2.3038,2.2785,2.13,1.9331,1.883,0.0,0.0,0.0,0.0,1.3561,1.2589,1.2163,0.0,0.0,0.0,0.9003,0.8195,0.8045,0.0,0.7965,0.7985,0.8006,0.0,0.0,0.0,0.0,0.0,0.0,0.0,0.0,0.0,0.0,0.0,0.0,0.0,0.0,0.0,0.0,0.0,0.0,0.0,0.0,-2.4296,-2.64,-2.6648,-2.7706,-2.9702,-2.9804,-2.9856,-3.0062,-3.0846,-3.1389,-3.1683,-3.3463,-3.4677,-3.5519,-3.5519,-3.5878,-3.6507,-3.7135,-3.7773,-3.8482,-4.0086,-4.1081,-4.1718,-4.2977,-4.5755,-4.9012,-4.8984,-4.9018,-4.9018,0.0,0.0,0.0,0.0,0.0,0.0,0.0,0.0,0.0,0.0,0.0,0.0,0.0,0.0,0.0,0.0,0.0,0.0,0.0,0.0,0.0,0.0,2.7069,2.6577,2.6533,2.6533,2.6533,2.6533,2.6942,2.7494,2.8097,2.7037,2.6978,2.7844,2.6789,2.563,2.4532,2.4532,2.3953,2.3144,2.3144,2.3144,2.3144,2.3144,2.3144,2.2911,2.164,2.0272,1.8919,1.7212,1.5706,0.0,0.0,0.0,0.0,1.2322,0.0,0.0,0.0,0.0,0.8042,0.0,0.7952,0.7972,0.0,0.0,0.8019,0.0,0.0,0.0,0.0,0.0,0.0,0.0,0.0,0.0,0.0,0.0,0.0,0.0,0.0,0.0,0.0,0.0,0.0,0.0,-2.4039,-2.5126,-2.64,-2.736,-2.8426,-2.9779,-2.9804,-3.0216,-3.1044,-3.1119,-3.2019,-3.3671,-3.4773,-3.5359,-3.5519,-3.5519,-3.5878,-3.6507,-3.7135,-3.7707,-3.8299,-4.0219,-4.0515,-4.0068,-4.3196,-4.6294,-4.8965,-4.9012,-4.9018,-4.9018,0.0,0.0,0.0,0.0,0.0,0.0,0.0,0.0,0.0,0.0,0.0,0.0,0.0,0.0,0.0,0.0,0.0,0.0,0.0,0.0,0.0,0.0,0.0,2.7471,2.6533,2.6533,2.6533,2.6533,2.7017,2.757,2.8122,2.7878,2.796,2.8004,2.6953,2.588,2.4787,2.4125,2.356,2.3144,2.3144,2.3144,2.3105,2.2871,2.293,2.2892,2.1305,2.0097,1.8869,1.7131,1.5662,1.4382,1.3382,0.0,0.0,0.0,0.0,0.0,0.9212,0.8444,0.7712,0.0,0.7875,0.7851,0.797,0.0,0.0,0.0,0.0,0.0,0.0,0.0,0.0,0.0,0.0,0.0,0.0,0.0,0.0,0.0,0.0,0.0,0.0,0.0,0.0,0.0,-2.4553,-2.5525,-2.7279,-2.7844,-2.8609,-2.9779,-2.9804,-3.0292,-3.1167,-3.1756,-3.2975,-3.4839,-3.5294,-3.5519,-3.5519,-3.5519,-3.5899,-3.656,-3.6919,-3.7517,-3.8278,-3.9624,-3.9872,-3.9747,-4.3264,-4.6397,-4.8991,-4.8999,-4.8978,-4.9018,0.0,0.0,0.0,0.0,0.0,0.0,0.0,0.0,0.0,0.0,0.0,0.0,0.0,0.0,0.0,0.0,0.0,0.0,0.0,0.0,0.0,0.0,0.0,0.0,2.6533,2.6533,2.6533,2.6533,2.7017,2.757,2.8122,2.8674,2.8744,2.8426,2.7139,2.6047,2.5126,2.3714,2.3144,2.3144,2.3144,2.3144,2.3105,2.2793,2.2871,2.2892,2.1194,1.987,1.8754,1.7085,1.5605,0.0,0.0,0.0,0.0,0.0,0.0,0.0,0.0,0.0,0.7563,0.7705,0.7712,0.7821,0.0,0.0,0.0,0.0,0.0,0.0,0.0,0.0,0.0,0.0,0.0,0.0,0.0,0.0,0.0,0.0,0.0,0.0,0.0,0.0,0.0,0.0,-2.5041,-2.6025,-2.8004,-2.8347,-2.8949,-2.9779,-2.9804,-3.0343,-3.1536,-3.2763,-3.4041,-3.5519,-3.5519,-3.5519,-3.5519,-3.5519,-3.5976,-3.6689,-3.7094,-3.7623,-3.8261,-3.9532,-4.0291,-4.0961,-4.3564,-4.59,-4.7962,-4.8693,-4.8972,-4.9018,0.0,0.0,0.0,0.0,0.0,0.0,0.0,0.0,0.0,0.0,0.0,0.0,0.0,0.0,0.0,0.0,0.0,0.0,0.0,0.0,0.0,0.0,0.0,0.0,0.0,2.6533,2.6533,2.6533,2.7017,2.757,2.8122,2.8674,2.9151,2.9624,2.7464,2.6483,2.6235,2.4059,0.0,0.0,2.3144,2.3144,2.3144,2.3125,2.3125,2.2853,2.0948,0.0,0.0,1.6385,0.0,0.0,0.0,0.0,0.0,0.0,0.0,0.0,0.0,0.7485,0.0,0.7677,0.7855,0.0,0.0,0.0,0.0,0.0,0.0,0.0,0.0,0.0,0.0,0.0,0.0,0.0,0.0,0.0,0.0,0.0,0.0,0.0,0.0,0.0,0.0,0.0,-2.5797,-2.6871,-2.8004,-2.9106,-2.9702,-2.9804,-2.9804,-3.0722,-3.2522,-3.4409,-3.5424,-3.5519,-3.5519,-3.5519,-3.5519,-3.5519,-3.6012,-3.706,-3.8122,-3.8339,-3.8026,-4.0729,-4.2841,-4.4339,-4.4529,-4.4658,-4.5135,-4.7962,-4.8972,-4.9018,0.0,0.0,0.0,0.0,0.0,0.0,0.0,0.0,0.0,0.0,0.0,0.0,0.0,0.0,0.0,0.0,0.0,0.0,0.0,0.0,0.0,0.0,0.0,0.0,0.0,2.6782,2.6533,2.6533,2.7017,2.757,2.8122,2.8674,2.9227,2.9702,2.7464,2.6483,2.6318,2.4059,0.0,0.0,0.0,0.0,2.3105,2.2832,0.0,0.0,0.0,0.0,0.0,0.0,0.0,0.0,0.0,0.0,0.0,0.0,0.0,0.0,0.0,0.0,0.0,0.73,0.738,0.6596,0.0,0.0,0.0,0.0,0.0,0.0,0.0,0.0,0.0,0.0,0.0,0.0,0.0,0.0,0.0,0.0,0.0,0.0,0.0,0.0,0.0,0.0,0.0,-2.7302,-2.9106,-2.9624,-3.0062,-3.0696,-3.0696,-3.1609,-3.3463,-3.4839,-3.5519,-3.5519,-3.5519,-3.5503,-3.5488,-3.5488,-3.5703,-3.6111,-3.7526,-3.8534,-3.9523,-4.2445,-4.4024,-4.4587,-4.4598,-4.4606,-4.4968,-4.7878,-4.8991,-4.9018,0.0,0.0,0.0,0.0,0.0,0.0,0.0,0.0,0.0,0.0,0.0,0.0,0.0,0.0,0.0,0.0,0.0,0.0,0.0,0.0,0.0,0.0,0.0,0.0,0.0,0.0,0.0,0.0,2.6841,2.7394,2.8122,2.8473,2.9051,2.9702,2.7464,2.6483,0.0,0.0,0.0,2.3144,0.0,0.0,2.3105,0.0,0.0,0.0,0.0,0.0,0.0,0.0,0.0,0.0,0.0,0.0,0.0,0.0,0.0,0.0,0.7055,0.0,0.0,0.0,0.0,0.3432,0.0,0.0,0.0,0.0,0.0,0.0,0.0,0.0,0.0,0.0,0.0,0.0,0.0,0.0,0.0,0.0,0.0,0.0,0.0,0.0,0.0,0.0,0.0,0.0,-2.9702,-2.9804,-3.0216,-3.1167,-3.1829,-3.2735,-3.4013,-3.5001,-3.5519,-3.5519,-3.5503,-3.5485,-3.5493,-3.5491,-3.5524,-3.5636,-3.7657,-3.9149,-4.0308,-4.3369,-4.4597,-4.4587,-4.4587,-4.4596,-4.4968,-4.7928,-4.8984,-4.9018,0.0,0.0,0.0,0.0,0.0,0.0,0.0,0.0,0.0,0.0,0.0,0.0,0.0,0.0,0.0,0.0,0.0,0.0,0.0,0.0,0.0,0.0,0.0,0.0,0.0,0.0,0.0,0.0,0.0,0.0,0.0,0.0,2.865,2.9599,2.7464,2.6461,2.6295,0.0,2.3144,2.3144,0.0,2.3144,2.3144,0.0,0.0,0.0,2.259,2.1797,0.0,1.8902,0.0,0.0,0.0,0.0,0.0,0.0,0.0,0.0,0.0,0.0,0.0,0.0,0.0,0.0,0.0,0.0,0.0,0.0,0.0,0.0,0.0,0.0,0.0,0.0,0.0,0.0,0.0,0.0,0.0,0.0,0.0,0.0,0.0,0.0,0.0,0.0,-2.6565,-2.7464,-2.9702,-2.9856,-3.0292,-3.1167,-3.3017,-3.4013,-3.4013,-3.5001,-3.5519,-3.5489,-3.552,-3.5493,-3.5554,-3.5537,-3.5552,-3.5786,-3.8795,-4.015,-4.0495,-4.3394,-4.4587,-4.4587,-4.4587,-4.4596,-4.4968,-4.7928,-4.8984,-4.9018,0.0,0.0,0.0,0.0,0.0,0.0,0.0,0.0,0.0,0.0,0.0,0.0,0.0,0.0,0.0,0.0,0.0,0.0,0.0,0.0,0.0,0.0,0.0,0.0,0.0,0.0,0.0,0.0,0.0,0.0,0.0,0.0,0.0,0.0,2.614,2.5101,2.474,2.3594,0.0,2.3144,2.3144,2.3144,0.0,0.0,0.0,0.0,0.0,2.0873,1.9642,0.0,1.6713,1.5134,0.0,0.0,0.0,0.0,0.0,0.0,0.6998,0.0,0.0,0.0,0.0,0.0,0.0,0.0,0.0,0.0,0.0,0.0,0.0,0.0,0.0,0.0,0.0,0.0,0.0,0.0,0.0,0.0,0.0,0.0,0.0,0.0,0.0,0.0,-2.7197,-2.8267,-2.9702,-3.1071,-3.1974,-3.2164,-3.4041,-3.5067,-3.5067,-3.5359,-3.5519,-3.5489,-3.552,-3.6073,-3.716,-3.6006,-3.6702,-3.8897,-3.9761,-4.1352,-4.3423,-4.427,-4.4587,-4.4587,-4.4643,-4.4582,-4.4968,-4.792,-4.8999,-4.9018,0.0,0.0,0.0,0.0,0.0,0.0,0.0,0.0,0.0,0.0,0.0,0.0,0.0,0.0,0.0,0.0,0.0,0.0,0.0,0.0,0.0,0.0,0.0,0.0,0.0,0.0,0.0,0.0,0.0,0.0,0.0,0.0,0.0,0.0,0.0,0.0,0.0,0.0,0.0,0.0,2.3144,0.0,0.0,2.3144,2.3144,0.0,0.0,0.0,1.9991,1.8071,1.5824,0.0,0.0,0.0,0.0,0.0,0.0,0.5604,0.6545,0.3453,0.0,0.0,0.0,0.0,-0.6389,-0.6589,0.0,0.0,0.0,0.0,0.0,0.0,0.0,0.0,0.0,0.0,0.0,0.0,0.0,0.0,0.0,0.0,0.0,-2.4125,-2.5294,-2.64,-2.7522,-2.8743,-3.0266,-3.1756,-3.2806,-3.3157,-3.4706,-3.5519,-3.5519,-3.5519,-3.5529,-3.548,-3.5493,-3.5962,-3.683,-3.7232,-3.8413,-4.0171,-4.1437,-4.2969,-4.4599,-4.4597,-4.4587,-4.4587,-4.4562,-4.5336,-4.6625,-4.8388,-4.8972,-4.9018,0.0,0.0,0.0,0.0,0.0,0.0,0.0,0.0,0.0,0.0,0.0,0.0,0.0,0.0,0.0,0.0,0.0,0.0,0.0,0.0,0.0,0.0,0.0,0.0,0.0,0.0,0.0,0.0,0.0,0.0,0.0,0.0,0.0,0.0,0.0,0.0,0.0,0.0,0.0,2.3144,2.3144,2.3144,0.0,0.0,2.3057,2.2775,2.1569,2.1016,2.0567,1.8226,1.4823,0.0,0.0,0.0,0.0,0.0,0.5297,0.3879,0.5229,0.2455,-0.1637,0.0,0.0,0.0,-0.6545,-0.6593,-0.6654,0.0,0.0,0.0,0.0,0.0,0.0,0.0,0.0,0.0,0.0,0.0,0.0,0.0,0.0,0.0,-2.3299,-2.4296,-2.5462,-2.6543,-2.7683,-2.911,-3.1093,-3.2092,-3.3017,-3.3945,-3.5001,-3.5519,-3.5519,-3.5494,-3.548,-3.5493,-3.5506,-3.5489,-3.5572,-3.8687,-4.0087,-4.0257,-4.2943,-4.4297,-4.4605,-4.4618,-4.4587,-4.4564,-4.4596,-4.6438,-4.8992,-4.9018,-4.9006,-4.9018,0.0,0.0,0.0,0.0,0.0,0.0,0.0,0.0,0.0,0.0,0.0,0.0,0.0,0.0,0.0,0.0,3.1482,3.1482,0.0,0.0,0.0,0.0,0.0,0.0,0.0,0.0,0.0,0.0,0.0,0.0,0.0,0.0,0.0,0.0,0.0,0.0,0.0,0.0,0.0,2.3144,2.3144,0.0,2.3144,2.3144,2.2492,2.148,2.0296,1.9222,1.8133,1.6669,1.4092,1.1436,0.0,0.0,0.0,0.7007,0.0,0.0,0.0,0.0,0.0,0.0,0.0,0.0,-0.6383,-0.6424,-0.6498,0.0,0.0,0.0,0.0,0.0,0.0,0.0,0.0,0.0,0.0,0.0,0.0,0.0,0.0,0.0,-2.4382,-2.5462,-2.6625,-2.7683,-2.887,-2.996,-3.1093,-3.2092,-3.3017,-3.3945,-3.5001,-3.5519,-3.5519,-3.5516,-3.5492,-3.5493,-3.5534,-3.5527,-3.5572,-3.8687,-4.0104,-4.0146,-4.0702,-4.2362,-4.4597,-4.4609,-4.4632,-4.4596,-4.4624,-4.6372,-4.9018,-4.9006,-4.8984,-4.9018,0.0,0.0,0.0,0.0,0.0,0.0,0.0,0.0,0.0,0.0,0.0,0.0,0.0,0.0,0.0,0.0,3.1682,3.1482,0.0,0.0,0.0,0.0,0.0,0.0,0.0,0.0,0.0,0.0,0.0,0.0,0.0,0.0,0.0,0.0,0.0,0.0,0.0,0.0,2.3248,2.3144,2.3144,0.0,2.3144,2.3144,2.2315,2.1105,1.9935,1.8303,1.6546,1.5068,1.3228,0.0,0.0,0.8902,0.7231,0.0,0.5422,0.3105,0.0,0.0,0.0,-0.6798,0.0,0.0,0.0,-0.6756,-0.7163,0.0,0.0,0.0,0.0,0.0,0.0,0.0,0.0,0.0,0.0,0.0,0.0,0.0,0.0,0.0,-2.4702,-2.6273,-2.7787,-2.8846,-2.9935,-3.0921,-3.1829,-3.2806,-3.3739,-3.4706,-3.5228,-3.5519,-3.5519,-3.552,-3.5921,-3.6648,-3.5872,-3.6303,-3.784,-3.9428,-4.0068,-4.018,-4.1701,-4.3234,-4.4618,-4.4609,-4.4586,-4.4725,-4.6195,-4.7717,-4.9025,-4.9012,-4.9018,-4.9018,0.0,0.0,0.0,0.0,0.0,0.0,0.0,0.0,0.0,0.0,0.0,0.0,0.0,0.0,0.0,0.0,0.0,0.0,0.0,0.0,0.0,0.0,0.0,3.2077,0.0,0.0,0.0,0.0,0.0,0.0,0.0,0.0,0.0,0.0,0.0,0.0,0.0,0.0,0.0,2.3144,0.0,2.3144,2.3144,2.3144,2.2227,2.0747,1.9298,1.7375,1.521,1.392,1.2487,1.1065,0.9675,0.8382,0.0,0.0,0.0,0.0,0.0,0.0,0.0,0.0,0.0,-0.6654,0.0,0.0,0.0,0.0,0.0,0.0,0.0,0.0,0.0,0.0,0.0,0.0,0.0,0.0,0.0,0.0,0.0,0.0,0.0,-2.7116,-2.8767,-2.9702,-3.0696,-3.1609,-3.2522,-3.3533,-3.4476,-3.5424,-3.5519,-3.5519,-3.5519,-3.5491,-3.6129,-3.7329,-3.6722,-3.7689,-4.0087,-4.0086,-4.0422,-4.11,-4.3532,-4.4627,-4.4606,-4.4609,-4.4596,-4.4901,-4.7894,-4.9001,-4.8999,-4.9012,-4.9018,-4.9018,3.119,3.119,0.0,0.0,0.0,0.0,0.0,0.0,0.0,0.0,0.0,0.0,0.0,0.0,0.0,0.0,0.0,0.0,3.2492,0.0,0.0,0.0,0.0,0.0,3.3782,0.0,0.0,0.0,0.0,0.0,0.0,0.0,0.0,0.0,2.8106,0.0,0.0,0.0,2.3801,0.0,2.3144,2.3144,0.0,2.3144,2.1676,1.9405,1.7016,1.5317,1.4064,0.0,1.2151,0.9957,0.0,0.8475,0.7346,0.7135,0.0,0.0,0.0,0.0,0.0,0.0,-0.6813,0.0,0.0,0.0,-0.6885,-0.7683,0.0,0.0,0.0,0.0,0.0,0.0,0.0,0.0,0.0,0.0,0.0,0.0,0.0,0.0,0.0,-2.8291,-2.9624,-2.9804,-3.0696,-3.1609,-3.2522,-3.3533,-3.4476,-3.5424,-3.5519,-3.5519,-3.5519,-3.5491,-3.5618,-3.5797,-3.8368,-3.9784,-4.0087,-4.0086,-4.1542,-4.4126,-4.4443,-4.4584,-4.4609,-4.4586,-4.4615,-4.4901,-4.7894,-4.901,-4.8984,-4.8984,-4.9018,-4.9018,3.119,3.119,0.0,0.0,0.0,0.0,0.0,0.0,0.0,0.0,0.0,0.0,0.0,0.0,0.0,0.0,0.0,3.337,0.0,0.0,0.0,0.0,0.0,0.0,0.0,0.0,0.0,0.0,2.863,0.0,0.0,0.0,0.0,0.0,2.8994,0.0,2.736,0.0,2.4955,0.0,0.0,0.0,0.0,2.3144,2.1587,1.9222,1.6655,1.4949,1.3776,0.0,1.1492,0.0,0.0,0.0,0.0,0.0,0.0,0.0,0.0,0.0,0.0,0.0,0.0,0.0,-0.677,0.0,-0.8577,0.0,0.0,0.0,0.0,0.0,0.0,0.0,0.0,0.0,0.0,0.0,0.0,0.0,0.0,0.0,0.0,0.0,0.0,0.0,-3.1462,-3.2379,-3.3394,-3.4341,-3.5067,-3.5519,-3.5519,-3.5519,-3.5519,-3.549,-3.5493,-3.5551,-3.8659,-4.0104,-4.0104,-4.0098,-4.1774,-4.4599,-4.4606,-4.4631,-4.4587,-4.4562,-4.5621,-4.7276,-4.8507,-4.9025,-4.9018,-4.9018,-4.9018,-4.9018,3.1461,0.0,0.0,0.0,0.0,0.0,0.0,0.0,0.0,0.0,0.0,0.0,3.5926,3.5525,0.0,0.0,3.5183,3.459,0.0,0.0,3.3836,3.3785,3.3754,0.0,0.0,0.0,0.0,0.0,0.0,0.0,0.0,0.0,0.0,0.0,0.0,2.888,2.7602,0.0,2.5797,2.4702,2.356,2.3144,2.3038,2.2403,2.1033,1.9222,1.6655,1.4758,1.3199,1.2231,1.0779,0.0,0.802,0.0,0.0,0.0,0.0,0.0,-0.3764,0.0,0.0,0.0,0.0,0.0,0.0,0.0,0.0,0.0,0.0,0.0,0.0,0.0,0.0,0.0,0.0,0.0,0.0,0.0,0.0,0.0,0.0,0.0,0.0,0.0,0.0,-3.1119,-3.2092,-3.3017,-3.3945,-3.4971,-3.5519,-3.5519,-3.5519,-3.5494,-3.5473,-3.549,-3.5949,-3.6819,-3.899,-4.012,-4.0132,-4.099,-4.2517,-4.4593,-4.4631,-4.4621,-4.4632,-4.4606,-4.638,-4.8967,-4.8991,-4.9006,-4.9018,-4.9018,-4.8956,-4.8962,3.2104,3.1664,0.0,0.0,0.0,0.0,0.0,0.0,0.0,0.0,0.0,0.0,0.0,0.0,0.0,0.0,0.0,3.6411,3.5678,0.0,3.4632,3.4475,3.4442,3.4771,0.0,0.0,0.0,0.0,0.0,0.0,0.0,0.0,0.0,0.0,0.0,2.8047,2.6565,2.6483,2.5797,2.4702,2.356,2.3144,2.2862,0.0,1.9588,1.9222,1.6655,0.0,0.0,1.195,1.019,0.0,0.0,0.0,0.0,0.0,0.0,0.0,0.0,0.0,0.0,-0.7061,0.0,0.0,0.0,0.0,-0.8959,0.0,0.0,0.0,0.0,0.0,0.0,0.0,0.0,0.0,0.0,0.0,0.0,0.0,0.0,0.0,0.0,0.0,0.0,-3.1119,-3.2092,-3.3017,-3.3945,-3.4971,-3.5519,-3.5519,-3.5519,-3.5507,-3.5523,-3.5488,-3.7023,-3.9929,-4.008,-4.0107,-4.0207,-4.3098,-4.4524,-4.4593,-4.4631,-4.4575,-4.4606,-4.4599,-4.6312,-4.8991,-4.8978,-4.8984,-4.9018,-4.9018,-4.8996,-4.8976,0.0,0.0,0.0,0.0,0.0,0.0,0.0,3.5622,0.0,0.0,0.0,0.0,0.0,3.7516,3.7595,0.0,0.0,3.74,3.7078,3.6444,0.0,0.0,0.0,3.4961,0.0,0.0,0.0,3.1683,3.0213,0.0,0.0,0.0,0.0,0.0,0.0,2.7702,0.0,0.0,0.0,0.0,0.0,2.3144,2.2862,0.0,0.0,1.9222,1.6655,1.4076,0.0,1.195,1.0104,0.7882,0.7744,0.7773,0.7674,0.6317,0.2,0.0,0.0,0.0,-0.7088,-0.7061,0.0,0.0,0.0,0.0,0.0,0.0,0.0,0.0,0.0,0.0,0.0,0.0,0.0,0.0,0.0,0.0,0.0,0.0,0.0,0.0,0.0,0.0,0.0,-3.2046,-3.3017,-3.3973,-3.4905,-3.5294,-3.5514,-3.5495,-3.5495,-3.5514,-3.548,-3.7497,-4.0092,-4.3059,-4.3064,-4.3037,-4.3098,-4.4164,-4.4606,-4.4597,-4.4609,-4.4575,-4.4707,-4.6709,-4.8141,-4.8991,-4.9012,-4.9018,-4.9018,-4.9018,-4.8996,-4.927,3.2584,0.0,0.0,0.0,0.0,0.0,0.0,0.0,0.0,0.0,3.7009,0.0,3.8193,0.0,3.8369,0.0,3.8371,3.8143,3.7815,3.7086,0.0,3.6197,3.5718,0.0,0.0,0.0,0.0,3.1683,3.0771,3.0139,0.0,0.0,0.0,0.0,0.0,2.7002,2.5639,0.0,2.4787,0.0,0.0,2.2862,0.0,0.0,1.9497,1.9222,0.0,1.4076,1.195,1.195,1.0104,0.7889,0.7855,0.7203,0.6641,0.7277,0.0546,-0.6764,-0.5285,-0.5908,0.0,-0.7054,-0.7401,0.0,-0.7753,0.0,0.0,0.0,0.0,0.0,0.0,0.0,0.0,0.0,0.0,0.0,0.0,0.0,0.0,0.0,0.0,0.0,0.0,0.0,-3.1267,-3.2522,-3.2933,-3.3858,0.0,0.0,-3.5532,-3.5511,-3.5525,-3.5919,-3.6906,-4.0123,-4.265,-4.4587,-4.4627,-4.4613,-4.4584,-4.4584,-4.4597,-4.4587,-4.4598,-4.4619,-4.4817,-4.7801,-4.9044,-4.8972,-4.9012,-4.9018,-4.9018,-4.9018,-4.9661,-5.0837,0.0,0.0,0.0,0.0,3.5115,0.0,0.0,0.0,3.6806,0.0,3.7483,3.8227,3.8971,3.9039,3.9309,3.9969,3.9315,0.0,3.7879,3.7024,0.0,0.0,3.5489,3.5519,3.5519,0.0,0.0,3.2593,3.1683,3.0696,2.9779,0.0,0.0,0.0,2.6776,0.0,2.4178,2.4514,2.4702,2.4617,2.356,2.2403,2.1212,1.9951,1.9497,1.9131,1.656,1.4076,1.1853,1.1853,1.0083,0.8011,0.7993,0.6187,0.4454,0.6845,0.0729,-0.6956,-0.7032,-0.7101,-0.7081,-0.7156,0.0,0.0,0.0,0.0,-1.2439,0.0,0.0,0.0,0.0,0.0,0.0,0.0,0.0,0.0,0.0,0.0,0.0,0.0,0.0,0.0,0.0,-2.9856,-3.0696,-3.2451,-3.2105,-3.2945,0.0,0.0,-3.5511,-3.5473,-3.5633,-3.6965,-3.962,-4.2954,-4.4596,-4.4627,-4.4597,-4.4587,-4.4587,-4.4587,-4.4587,-4.4621,-4.4562,-4.4716,-4.5035,-4.7861,-4.8972,-4.9018,-4.9018,-4.9018,-4.9018,-4.9018,-5.0832,-5.3327,3.3653,3.4661,3.5318,0.0,3.5013,3.4979,0.0,0.0,0.0,0.0,3.8261,3.9005,3.9715,3.9817,3.9648,3.9229,3.9016,0.0,0.0,0.0,0.0,3.6322,3.5782,3.5519,3.5519,3.4543,0.0,3.2593,3.1683,3.0696,2.9779,0.0,0.0,0.0,0.0,0.0,2.3401,2.3501,2.356,2.356,2.3212,2.2403,0.0,0.0,1.8948,1.7855,1.5305,1.3307,1.1755,1.0779,0.9323,0.7889,0.7997,0.6063,0.3521,0.2408,-0.1035,-0.4858,-0.6618,-0.7078,-0.7177,-0.7285,-0.8297,-0.9221,0.0,0.0,0.0,0.0,0.0,0.0,0.0,0.0,0.0,0.0,0.0,0.0,0.0,0.0,0.0,0.0,0.0,0.0,0.0,-3.1071,-3.1893,-3.1935,-3.3568,-3.4773,-3.5459,0.0,0.0,-3.5456,-3.7386,-4.0008,-4.3232,-4.4164,-4.461,-4.4631,-4.4609,-4.4587,-4.4587,-4.4587,-4.4598,-4.4596,-4.4572,-4.5833,-4.7928,-4.8659,-4.8972,-4.9018,-4.9018,-4.9018,-4.899,-4.9009,-4.9483,-5.0477,3.4157,0.0,0.0,3.5622,0.0,0.0,3.6062,0.0,0.0,3.7821,3.8531,0.0,3.9546,3.9884,3.9901,3.9473,3.9069,0.0,3.7879,0.0,0.0,3.6102,3.5718,3.5519,3.5519,3.4905,0.0,3.3227,0.0,0.0,3.0059,0.0,0.0,0.0,0.0,2.482,2.3539,2.3221,2.3144,2.3144,2.3144,0.0,0.0,1.977,1.8395,1.656,1.3968,1.2522,1.1755,1.0386,0.9053,0.7923,0.7984,0.6089,0.3271,0.0774,-0.1808,-0.4297,-0.6665,-0.7336,-0.736,-0.7448,-0.8834,-1.0222,-1.0232,-1.2199,-1.3985,0.0,0.0,0.0,0.0,0.0,0.0,0.0,0.0,0.0,0.0,0.0,0.0,0.0,0.0,0.0,0.0,-3.1119,-3.1911,-3.1684,-3.3232,-3.4589,0.0,0.0,0.0,-3.7187,-3.8602,-4.0349,-4.227,-4.3842,-4.461,-4.4587,-4.4587,-4.4587,-4.4587,-4.4598,-4.4619,-4.4673,-4.5959,-4.7454,-4.8991,-4.8999,-4.8978,-4.9018,-4.9018,-4.9018,-4.9018,-4.9024,-4.9853,-5.1234,0.0,0.0,0.0,0.0,0.0,0.0,0.0,3.7009,0.0,3.7956,0.0,3.914,3.914,3.9715,4.0087,4.0087,0.0,3.858,3.7879,3.7024,3.629,3.5489,3.5519,3.5519,3.5519,3.5519,0.0,0.0,0.0,3.1291,3.0349,0.0,0.0,0.0,0.0,0.0,0.0,2.3302,2.3086,2.3144,2.3144,2.1676,1.9497,1.9497,1.7933,1.5439,1.2823,1.195,1.1658,1.019,0.8924,0.8024,0.8034,0.6203,0.3521,0.0772,-0.1913,-0.4577,-0.7,-0.7645,-0.7604,-0.7806,-0.9664,-1.1426,-1.1641,-1.3397,-1.5241,-1.5575,-1.6487,-1.7679,0.0,0.0,0.0,0.0,0.0,0.0,0.0,0.0,0.0,0.0,0.0,0.0,0.0,0.0,-3.1376,-3.1809,-3.2582,-3.3725,0.0,0.0,0.0,-3.9375,-3.939,-3.9406,-3.9372,0.0,-4.4582,-4.4598,-4.4587,-4.4621,-4.4598,-4.4596,-4.4832,-4.5327,-4.7886,-4.8991,-4.8965,-4.9012,-4.9018,-4.9018,-4.9018,-4.9012,-4.8972,-4.8958,-5.1176,-5.409,0.0,0.0,0.0,0.0,0.0,3.7009,3.7618,3.8227,3.8667,3.8768,3.9445,3.9884,3.9884,3.9986,4.0087,4.0087,3.9368,0.0,0.0,0.0,0.0,3.5489,3.5519,3.5519,3.5519,3.5519,3.5001,0.0,3.2539,3.1291,3.0349,0.0,0.0,0.0,0.0,0.0,2.2755,2.2663,0.0,2.3144,2.3144,2.1676,1.9497,1.9497,1.7933,1.5439,1.2823,1.195,1.156,0.9114,0.8237,0.8038,0.7952,0.6116,0.3498,0.08,-0.1874,-0.4574,-0.724,-0.7726,-0.7907,-0.9068,-1.0518,-1.1974,-1.321,-1.4609,-1.5967,-1.7037,-1.8179,-1.9422,-2.0729,0.0,0.0,0.0,0.0,0.0,0.0,0.0,0.0,0.0,0.0,0.0,0.0,0.0,0.0,0.0,0.0,0.0,0.0,0.0,0.0,0.0,-3.9412,0.0,0.0,0.0,-4.4597,-4.4599,-4.4609,-4.4586,-4.4599,-4.4582,-4.5925,-4.8286,-4.8787,-4.8999,-4.9012,-4.8984,-4.9018,-4.9018,-4.9018,-4.8991,-4.8963,-4.9028,-5.2502,-5.7216,0.0,0.0,0.0,0.0,0.0,0.0,0.0,3.9073,0.0,3.9039,3.9309,3.9512,3.9512,3.9851,4.0087,4.0087,3.9714,3.9049,3.7879,3.744,3.6692,3.5554,3.5519,0.0,3.5519,3.5519,3.5001,3.4013,3.223,3.0897,0.0,0.0,0.0,0.0,0.0,2.4341,0.0,0.0,0.0,2.3144,2.3144,2.1676,1.9497,1.9497,1.7933,1.5439,1.2823,1.195,1.1463,0.8924,0.8038,0.8045,0.7979,0.6147,0.3516,0.0806,-0.1902,-0.4563,-0.7279,-0.7909,-0.8132,-0.955,-1.0826,-1.2193,-1.3561,-1.4854,-1.6197,-1.7404,-1.8688,-2.0042,-2.1943,-2.2687,0.0,0.0,0.0,0.0,0.0,0.0,0.0,0.0,0.0,0.0,0.0,0.0,0.0,0.0,0.0,0.0,0.0,0.0,0.0,0.0,0.0,0.0,0.0,0.0,0.0,-4.4641,-4.6167,-4.6075,-4.4675,-4.617,-4.7683,-4.8991,-4.9033,-4.8978,-4.9018,-4.9018,-4.9018,-4.9018,-4.9018,-4.8984,-4.9367,-5.2478,-5.5506,-5.8006,0.0,3.8432,0.0,0.0,3.8274,0.0,3.9064,3.9679,3.9884,3.9309,3.9208,3.9208,3.9208,3.9749,4.0087,4.0087,4.0087,3.9454,3.7937,3.7822,3.7115,3.5554,3.5519,3.5519,3.5519,3.5519,3.5133,0.0,3.2196,3.0733,0.0,0.0,0.0,0.0,0.0,0.0,0.0,0.0,2.3066,2.3057,2.2862,2.1409,1.9497,1.9222,1.7762,1.5439,1.2823,1.195,1.1463,0.8924,0.8038,0.8045,0.7979,0.6147,0.3516,0.0806,-0.1912,-0.4622,-0.7272,-0.7965,-0.8428,-1.0002,-1.117,-1.2339,-1.398,-1.5045,-1.6197,-1.7777,-1.9222,-2.0854,-2.2775,-2.3299,0.0,0.0,0.0,0.0,0.0,0.0,0.0,0.0,0.0,0.0,0.0,0.0,0.0,0.0,0.0,-3.5466,-3.5458,-3.797,-3.9398,0.0,0.0,-4.2126,-4.5524,0.0,-4.7821,-4.5563,-4.7903,-4.7801,-4.563,-4.7962,-4.9025,-4.8999,-4.9012,-4.9018,-4.9018,-4.9018,-4.9018,-4.8984,-4.9006,-4.8992,-4.9699,-5.574,-5.8006,-5.8008,0.0,0.0,0.0,0.0,0.0,0.0,0.0,3.9939,4.0054,3.9986,3.9986,3.9986,3.9986,4.0054,4.0087,4.0087,4.0087,3.9454,3.7937,3.7822,3.7115,3.5554,3.5519,3.5519,3.5519,3.5519,3.5424,0.0,3.2919,3.1391,3.0798,2.8334,0.0,0.0,0.0,0.0,0.0,2.3048,2.2793,2.295,2.1943,2.0674,1.9405,1.8319,1.703,1.5439,1.2823,1.195,1.1463,0.8924,0.8038,0.8045,0.7979,0.6147,0.3516,0.0806,-0.1912,-0.4622,-0.7272,-0.7965,-0.8627,-1.1072,-1.1853,-1.2533,-1.5045,-1.5724,-1.6466,-1.8856,-2.1141,-2.2862,-2.3057,-2.3953,-2.5041,0.0,0.0,0.0,0.0,0.0,0.0,0.0,0.0,0.0,0.0,0.0,0.0,0.0,0.0,-3.5466,-3.5458,-3.797,-3.9373,-3.9391,0.0,-4.5537,-4.8531,-4.8883,-4.8848,-4.8585,-4.8873,-4.8873,-4.8585,-4.8897,-4.8999,-4.8984,-4.8984,-4.9018,-4.9018,-4.9018,-4.9018,-4.9012,-4.8958,-4.8998,-4.9765,-5.5749,-5.802,-5.7987,0.0,0.0,0.0,0.0,0.0,0.0,0.0,4.026,4.0087,4.0087,4.0087,4.0087,4.0087,4.0087,4.0087,4.0087,4.0087,3.961,3.8525,3.8051,3.7294,3.6228,3.5718,3.5519,3.5519,3.5519,3.5198,0.0,0.0,3.1391,3.0616,2.8646,0.0,0.0,0.0,2.4902,2.3992,2.3202,2.2988,2.295,2.1747,2.0567,1.9405,1.8133,1.6822,1.5204,1.2769,1.1763,1.1279,0.8788,0.8038,0.8045,0.7979,0.6147,0.2809,-0.3022,-0.4433,-0.4622,-0.726,-0.7959,-0.8627,-1.1268,-1.195,-1.263,-1.5248,-1.6386,-1.7404,-1.9131,-2.1409,-2.3144,-2.3144,-2.4039,-2.521,0.0,0.0,0.0,0.0,0.0,0.0,0.0,0.0,0.0,0.0,0.0,0.0,0.0,0.0,-3.5511,-3.5488,-3.7963,-3.9375,-3.9395,0.0,-4.3945,-4.8928,-4.8996,-4.8972,-4.9018,-4.8972,-4.8972,-4.8984,-4.8978,-4.9012,-4.9018,-4.9018,-4.9018,-4.9018,-4.9018,-4.9025,-4.9042,-4.9021,-5.1185,-5.4676,-5.708,-5.7996,-5.7997,4.285,0.0,4.1868,0.0,4.1392,4.0788,4.1091,4.072,4.0303,4.0138,4.0087,4.0087,4.0087,4.0087,4.0087,4.0087,4.0087,3.9765,3.8962,3.8189,3.744,3.6661,3.5879,0.0,3.5519,3.5519,3.5133,3.4476,3.2804,0.0,3.0753,0.0,0.0,0.0,2.612,2.5295,2.42,2.3421,2.3144,2.295,2.1391,2.0296,1.9314,1.7777,1.6248,1.4671,1.2587,1.149,1.0761,0.863,0.8004,0.7952,0.7979,0.6659,0.3416,-0.545,-0.667,-0.5632,-0.7466,-0.7959,-0.8627,-1.1268,-1.195,-1.263,-1.5248,-1.6763,-1.8133,-1.9679,-2.1676,-2.3144,-2.3144,-2.4296,-2.5546,-2.64,0.0,0.0,0.0,0.0,0.0,0.0,-3.1366,-3.0958,-2.9879,0.0,0.0,0.0,0.0,0.0,-3.6665,-3.8409,0.0,0.0,0.0,0.0,0.0,-4.9001,-4.9018,-4.9018,-4.9018,-4.9018,-4.9018,-4.9018,-4.9018,-4.9018,-4.9018,-4.9018,-4.9018,-4.9018,-5.0069,-5.1673,-5.166,-5.426,-5.8032,-5.8008,-5.7982,-5.7997,4.3314,4.2837,4.2543,4.3351,4.3032,4.2462,4.1895,4.1251,4.0685,4.0154,4.0087,4.0087,4.0087,4.0087,4.0087,4.0087,4.0087,3.9765,3.8962,3.8189,3.744,0.0,0.0,3.5519,3.5519,3.5519,3.5519,3.5489,0.0,0.0,3.1778,0.0,2.8346,2.7245,2.6725,2.588,2.4702,2.3541,2.3144,2.2862,2.0494,1.9497,1.9222,1.6749,1.5045,1.3741,1.2257,1.099,0.9772,0.8348,0.7929,0.7972,0.7985,0.8006,0.5866,-0.4847,-0.8006,-0.7985,-0.7979,-0.7959,-0.8627,-1.1268,-1.195,-1.263,-1.5248,-1.6763,-1.8411,-2.0747,-2.2227,-2.3144,-2.3144,-2.4978,-2.6483,-2.6483,0.0,0.0,0.0,0.0,0.0,0.0,-3.163,-3.0998,-2.9884,0.0,0.0,0.0,0.0,0.0,0.0,0.0,0.0,-4.4452,-4.3714,0.0,-4.8921,-4.9001,-4.9018,-4.9018,-4.9018,-4.9018,-4.9018,-4.9018,-4.9018,-4.9018,-4.9018,-4.9018,-4.9018,-4.9018,-5.2511,-5.7903,-5.7889,-5.7923,-5.8019,-5.8004,-5.7997,-5.7997,4.3424,4.3277,4.3204,4.3461,4.3069,4.2498,4.1895,4.1296,4.0685,4.0154,4.0087,4.0087,4.0087,4.0087,4.0087,0.0,4.0087,4.0003,0.0,3.8502,3.7706,3.744,3.6196,3.5519,3.5519,3.5519,3.5519,3.5519,0.0,0.0,0.0,2.9809,2.8524,2.6725,2.658,2.5484,2.3627,2.3212,2.3144,2.2843,2.0305,1.9223,1.8921,1.6287,1.4485,1.3182,1.1942,1.0705,0.9534,0.8336,0.7918,0.7679,0.5837,0.6564,0.6268,-0.2711,-0.6559,-0.7985,-0.7959,-0.8634,-0.9805,-1.1463,-1.2619,-1.3692,-1.5439,-1.739,-1.9588,-2.2031,-2.2862,-2.3299,-2.4125,-2.5462,-2.673,-2.7441,-2.9602,0.0,0.0,0.0,0.0,0.0,-3.2642,-3.2435,0.0,-3.5741,0.0,0.0,0.0,0.0,0.0,0.0,0.0,0.0,-4.734,0.0,-4.8993,-4.9005,-4.9018,-4.9018,-4.9018,-4.9018,-4.9018,-4.9018,-4.9018,-4.9018,-4.9018,-4.9018,-4.9148,-5.108,-5.3098,-5.5169,-5.7201,-5.8008,-5.7977,-5.8033,-5.7997,-5.7997,4.3497,4.3497,4.3497,4.3497,4.3069,4.2498,4.1895,4.1296,4.0685,4.0154,4.0087,4.0087,4.0087,4.0087,0.0,4.0087,4.0087,4.0087,4.0087,3.8668,3.7822,3.7822,3.6321,3.5519,3.5519,3.5519,0.0,3.5519,3.3533,3.1609,2.9804,2.9804,2.8633,2.6483,2.6483,2.5231,2.3144,2.3144,2.3047,2.2611,2.0114,1.8957,1.8562,1.5988,1.3948,1.2301,1.161,1.0265,0.8703,0.8098,0.7977,0.7515,0.4814,0.4433,0.3833,-0.2208,-0.5942,-0.7985,-0.8045,-0.9023,-1.0288,-1.156,-1.2909,-1.4447,-1.6734,-1.8395,-2.0223,-2.2599,-2.3144,-2.3474,-2.4617,-2.5714,-2.6894,-2.7924,-2.9819,-3.111,-3.1216,0.0,0.0,0.0,0.0,0.0,0.0,-3.7811,-3.9384,0.0,0.0,0.0,0.0,0.0,0.0,-4.8833,-4.8986,0.0,-4.8988,-4.9001,-4.9018,-4.9018,-4.9018,-4.9018,-4.9018,-4.9018,-4.9018,-4.9018,-4.9018,-4.9018,-4.9148,-5.1477,-5.3077,-5.4296,-5.6523,-5.7642,-5.8015,-5.796,-5.7997,-5.7997,4.3497,4.3497,0.0,0.0,4.3105,0.0,4.1895,4.1296,4.0733,4.0154,4.0087,4.0087,4.0087,4.0087,4.0087,4.0087,0.0,0.0,0.0,3.8668,3.7822,3.7822,3.6321,3.5519,3.5519,3.5519,3.5424,3.5294,3.3463,3.1609,2.9804,2.9804,2.8633,2.6648,2.6565,2.5316,2.3212,2.3144,2.2891,2.233,1.9992,1.8792,1.8116,1.5772,1.3447,1.1263,1.1273,0.9731,0.7638,0.778,0.7862,0.7517,0.4798,0.1912,-0.1009,-0.3316,-0.5942,-0.7985,-0.8045,-0.9023,-1.0386,-1.156,-1.3006,-1.5007,-1.8656,-1.9497,-2.0223,-2.2599,-2.3144,-2.3474,-2.4702,-2.5797,-2.6894,-2.8004,-2.9573,-3.0633,-3.0893,0.0,0.0,0.0,0.0,0.0,0.0,-3.9413,-3.9431,0.0,0.0,0.0,0.0,0.0,-4.2568,-4.8784,-4.8986,-4.9018,-4.9018,-4.9018,-4.9018,-4.9018,-4.9018,-4.9018,-4.9018,-4.9018,-4.9018,-4.9018,-4.9018,-4.9018,-4.9114,-5.061,-5.2705,-5.5027,-5.6038,-5.7036,-5.7997,-5.7997,-5.7997,-5.7997,0.0,0.0,4.3497,4.3497,4.3391,4.2995,4.1979,4.1682,4.1241,4.0204,4.0087,4.0087,4.0087,4.0087,4.0087,4.0087,4.0087,4.0087,4.0087,3.8668,3.7822,3.7822,3.6321,3.5519,3.5519,3.5519,3.4773,3.3255,3.2806,3.1609,2.9804,2.9804,2.9028,2.7683,2.6894,2.5714,2.4382,2.3474,2.2891,2.231,1.9695,1.8496,1.7809,1.5291,1.2925,1.096,1.1121,0.9716,0.7787,0.7936,0.8011,0.7534,0.4818,-0.0602,-0.5866,-0.4425,-0.5942,-0.7985,-0.8045,-0.9706,-1.156,-1.1853,-1.3596,-1.6075,-1.8856,-1.9497,-2.0223,-2.2599,-2.3144,-2.3714,-2.5714,-2.6318,-2.7139,-2.9106,-3.0074,-3.0633,-3.0893,-3.1246,0.0,0.0,-3.5975,-3.8294,-3.9327,-3.94,-3.9414,0.0,0.0,0.0,0.0,-4.1287,-4.4417,-4.8885,-4.8986,-4.9018,-4.9018,-4.9018,-4.9018,-4.9018,-4.9018,-4.9018,-4.9018,-4.9018,-4.9018,-4.9018,-4.9018,-4.9018,-4.9209,-5.1794,-5.3264,-5.4047,-5.597,-5.7244,-5.7997,-5.7997,-5.7997,-5.7997,4.3497,4.3497,4.3497,4.3497,4.3286,4.2846,4.1937,4.1595,4.1059,4.0204,4.0087,4.0087,4.0087,4.0087,4.0087,4.0087,4.0087,4.0087,4.0087,3.8668,3.7822,3.7822,3.6321,3.5519,3.5519,3.5519,3.4773,3.3227,3.2806,3.1829,3.0419,3.0011,2.8949,2.736,2.673,2.5546,2.3973,2.3387,2.2409,2.1306,1.935,1.7924,1.6703,1.4797,1.2697,1.075,1.097,0.963,0.7658,0.7957,0.7925,0.7601,0.6242,-0.0502,-0.7711,-0.6253,-0.6859,-0.7979,-0.8045,-0.9895,-1.2242,-1.3403,-1.5222,-1.7217,-1.9039,-1.9951,-2.0854,-2.2687,-2.356,-2.4382,-2.6152,-2.7076,-2.8069,-2.9571,-3.036,-3.0662,-3.041,-3.0536,0.0,-3.5579,-3.7958,-3.937,-3.943,-3.9427,-3.9384,-3.9402,-3.9387,0.0,-3.939,-4.1842,-4.5062,-4.8875,-4.8988,-4.9018,-4.9018,-4.9018,-4.9018,-4.9018,-4.9018,-4.9018,-4.9018,-4.9018,-4.9018,-4.9018,-4.9479,-4.9658,-4.9845,-5.2325,-5.3611,-5.4215,-5.6051,-5.7299,-5.7997,-5.7997,-5.7997,-5.7997,4.3497,4.3497,4.3497,4.3497,4.3142,4.2616,4.2021,4.1429,4.0827,4.0269,4.0154,4.0087,4.0087,4.0087,4.0087,4.0087,4.0087,4.0087,4.0087,3.8668,3.7822,3.7822,3.6321,3.5519,3.5519,3.5519,3.4905,3.3808,3.2947,3.2046,3.097,3.0139,2.8712,2.6707,2.6476,2.523,2.3387,2.3066,2.1959,2.0111,1.9008,1.7472,1.553,1.4307,1.254,1.0629,1.0758,0.9351,0.7502,0.7831,0.7595,0.7131,0.7772,0.0905,-0.7497,-0.7892,-0.7979,-0.7965,-0.8045,-0.9895,-1.2533,-1.5153,-1.6763,-1.8056,-1.9222,-2.0387,-2.1658,-2.2862,-2.4039,-2.5126,-2.6318,-2.773,-2.9036,-2.9699,-3.0335,-3.0565,-2.9907,0.0,-3.2198,-3.8631,-3.937,-3.9416,-3.9402,-3.9725,-3.9845,-3.9383,-3.9742,-4.0025,-3.9953,-4.2078,-4.5016,-4.8838,-4.8988,-4.9018,-4.9018,-4.9018,-4.9018,-4.9018,-4.9018,-4.9018,-4.9018,-4.9018,-4.9046,-4.9229,-5.0011,-5.0389,-5.0683,-5.2681,-5.3929,-5.4737,-5.6374,-5.7409,-5.7997,-5.7997,-5.7997,-5.7997,4.3497,4.3497,4.3497,4.3497,4.3463,4.3214,4.2655,4.2021,4.1464,4.0874,4.0368,4.0087,4.0087,4.0087,4.0087,4.0087,4.0087,4.0087,4.0087,3.8668,3.7822,3.7822,3.6321,3.5519,3.5519,3.5519,3.4639,3.2806,3.2664,3.1683,3.0011,2.9856,2.9106,2.782,2.6519,2.5426,2.4426,2.3162,2.1693,2.0111,1.9008,1.7472,1.5448,1.3341,1.1858,1.0662,0.9902,0.8777,0.778,0.7898,0.6431,0.501,0.729,0.221,-0.5031,-0.7372,-0.7965,-0.8045,-0.8038,-0.9895,-1.2533,-1.5153,-1.6763,-1.8056,-1.9222,-2.0387,-2.1658,-2.2862,-2.4039,-2.5126,-2.6318,-2.7429,-2.8602,-2.9649,-2.988,-2.9932,-2.9808,0.0,-3.2177,-3.862,-3.94,-3.9384,-3.9397,-4.1407,-4.1771,-3.961,-4.146,-4.2666,-4.272,-4.3091,-4.503,-4.8861,-4.8979,-4.9018,-4.9018,-4.9018,-4.9018,-4.9018,-4.9018,-4.9018,-4.9018,-4.9018,-4.9316,-4.9861,-5.0011,-5.0404,-5.1158,-5.3441,-5.4471,-5.4809,-5.6959,-5.7886,-5.7997,-5.7997,-5.7997,-5.7997,4.3497,4.3497,4.3497,4.3497,4.3497,4.3321,4.277,4.2462,4.2062,4.1429,4.0874,4.0528,4.0528,4.0303,4.0087,4.0087,4.0087,4.0087,4.0087,3.8668,3.7822,3.7822,3.6321,3.5519,3.5519,3.5519,3.4773,3.3394,3.2876,3.1901,3.0545,3.0088,2.887,2.7174,2.6187,2.4962,2.3438,2.2112,2.0552,1.8903,1.7981,1.6551,1.4643,1.293,1.1629,1.0534,0.9578,0.8521,0.7604,0.7883,0.6203,0.3663,0.2084,-0.0997,-0.4522,-0.7166,-0.8556,-0.9213,-0.9895,-1.1551,-1.3584,-1.6183,-1.7762,-1.8948,-2.0206,-2.1391,-2.2403,-2.295,-2.4467,-2.5968,-2.6819,-2.8375,-2.9763,-3.0294,-3.104,0.0,0.0,-3.2741,-3.609,-3.9047,-3.9384,-3.9397,-3.94,-4.0441,-4.125,-4.152,-4.2636,-4.332,-4.3328,-4.5231,-4.7196,-4.8962,-4.9009,-4.9018,-4.9018,-4.9018,-4.9018,-4.9018,-4.9018,-4.9018,-4.9018,-4.9018,-4.9376,-5.0067,-5.0425,-5.1246,-5.2408,-5.435,-5.5385,-5.5942,-5.7427,-5.7997,-5.7997,-5.7997,-5.7997,-5.7997,4.3497,4.3497,4.3497,4.3497,4.3497,4.3356,4.2957,4.277,4.2537,4.2062,4.134,4.092,4.092,4.0417,4.0087,4.0087,4.0087,4.0087,4.0087,3.8668,3.7822,3.7822,3.6321,3.5519,3.5519,3.5519,3.4905,3.3671,3.2947,3.2046,3.082,3.0012,2.844,2.6281,2.5734,2.433,2.2279,2.1022,1.9501,1.7912,1.7063,1.5634,1.3913,1.2504,1.1413,1.0455,0.9195,0.82,0.7547,0.7799,0.6576,0.3818,-0.2845,-0.4472,-0.4522,-0.7166,-0.9145,-1.0681,-1.1658,-1.2909,-1.4543,-1.7016,-1.8596,-1.9861,-2.1016,-2.2208,-2.3144,-2.3474,-2.5232,-2.6918,-2.7554,-2.9474,-3.0941,-3.0941,0.0,0.0,0.0,-3.5333,-3.9408,-3.9416,-3.9354,-3.9384,-3.9432,-3.9417,-4.0501,-4.3119,-4.3287,-4.3275,-4.3297,-4.6924,-4.8989,-4.8992,-4.9005,-4.9018,-4.9018,-4.9018,-4.9018,-4.9018,-4.9018,-4.9018,-4.9018,-4.9168,-4.9639,-5.0349,-5.1034,-5.2207,-5.366,-5.5029,-5.6051,-5.6895,-5.7703,-5.7997,-5.7997,-5.7997,-5.7997,-5.7997,4.3497,4.3497,4.3497,4.3497,4.3497,4.3497,4.3463,4.3032,4.2693,4.2655,4.1639,4.092,4.092,4.0417,4.0087,4.0087,4.0087,4.0087,4.0087,3.8668,3.7822,3.7822,3.6321,3.5519,3.5519,3.5519,3.4572,3.2664,3.2593,3.1683,2.9934,2.9252,2.7859,2.5824,2.4857,2.3481,2.1812,2.0301,1.9011,1.7879,1.68,1.5432,1.3828,1.1563,1.0737,1.0483,0.8351,0.7561,0.7698,0.7638,0.7664,0.5899,-0.4415,-0.5965,-0.4518,-0.726,-0.9821,-1.1755,-1.1853,-1.2909,-1.4543,-1.7016,-1.8596,-1.9861,-2.1016,-2.2208,-2.3387,-2.4467,-2.6062,-2.7577,-2.8622,-2.9967,-3.0941,-3.0941,0.0,0.0,-2.9829,-3.5328,-3.9425,-3.9384,-3.9439,-3.9384,-3.9432,-3.937,-4.0482,-4.3072,-4.3275,-4.334,-4.331,-4.6903,-4.8992,-4.9024,-4.9018,-4.9018,-4.9018,-4.9018,-4.9018,-4.9018,-4.9018,-4.9018,-4.8984,-4.9605,-5.0335,-5.1034,-5.1741,-5.2898,-5.4393,-5.5244,-5.6051,-5.6895,-5.7703,-5.7997,-5.7997,-5.7997,-5.7997,-5.7997,4.3497,4.3497,4.3497,4.3497,4.3497,4.3497,4.3497,4.3321,4.3214,4.3214,4.2185,4.1429,4.1429,4.0625,4.0087,4.0087,4.0087,4.0087,4.0087,3.9102,3.7847,3.6445,3.5782,3.5519,3.5519,3.5519,3.4368,3.2111,3.2111,3.0958,2.875,2.8524,2.7327,2.5251,2.4633,2.3225,2.1302,1.9359,1.8161,1.7401,1.586,1.475,1.3828,1.1477,1.0666,1.0387,0.8019,0.7278,0.7067,0.5593,0.6112,0.5605,-0.4726,-0.7315,-0.6848,-0.8733,-1.0493,-1.2047,-1.2909,-1.4076,-1.5697,-1.8211,-1.9131,-2.0042,-2.1943,-2.2775,-2.3387,-2.4553,-2.6105,-2.7583,-2.8584,-3.006,-3.1456,-3.2181,0.0,-3.1813,-3.1863,-3.6235,-3.9429,-3.9427,-3.9409,-3.9397,-3.9414,-4.089,-4.2198,-4.3248,-4.3315,-4.433,-4.6705,-4.8198,-4.8971,-4.9018,-4.9018,-4.9018,-4.9018,-4.9018,-4.9018,-4.9018,-4.9018,-4.9018,-4.8984,-4.9664,-5.039,-5.1138,-5.179,-5.3281,-5.517,-5.5464,-5.6381,-5.7556,-5.7886,-5.7997,-5.7997,-5.7997,-5.7997,-5.7997,4.3497,4.3497,4.3497,4.3497,4.3497,4.3497,4.3497,4.3497,4.3497,4.3497,4.2505,4.181,4.181,4.056,3.9749,3.9749,3.9512,3.9411,3.9411,3.8493,3.7253,3.5943,3.5619,3.54,3.519,3.519,3.3995,3.1502,3.1502,3.0314,2.8097,2.7921,2.6771,2.4735,2.4243,2.2905,2.0857,1.862,1.7483,1.7123,1.5135,1.3999,1.3294,1.1391,1.0356,0.9836,0.7834,0.7068,0.6732,0.441,0.3049,0.1334,-0.4805,-0.7296,-0.8364,-1.01,-1.1268,-1.2242,-1.398,-1.5425,-1.6936,-1.8948,-1.977,-2.0584,-2.2687,-2.3387,-2.3973,-2.5126,-2.6808,-2.8341,-2.9237,-3.0772,-3.2187,-3.2993,-3.3064,-3.3558,-3.4925,-3.7557,-3.9416,-3.9397,-3.9409,-3.9367,-3.9384,-4.1023,-4.2432,-4.3242,-4.4423,-4.625,-4.8859,-4.8971,-4.9018,-4.9018,-4.9018,-4.9018,-4.9018,-4.9018,-4.9018,-4.9018,-4.9018,-4.9107,-4.9376,-5.0033,-5.0716,-5.1479,-5.2448,-5.39,-5.5611,-5.5868,-5.6785,-5.7997,-5.7997,-5.7997,-5.7997,-5.7997,-5.7997,-5.7997,4.3497,4.3497,4.3497,4.3497,4.3497,4.3497,4.3497,4.3497,4.3497,4.3497,4.2505,4.181,4.1775,4.0112,3.9005,3.9005,3.8328,3.7922,3.7922,3.6542,3.5982,3.6599,3.5879,3.516,3.4472,3.4472,3.3258,3.0798,3.0798,2.9843,2.8072,2.7519,2.6215,2.4296,2.3727,2.2414,2.0489,1.8221,1.7334,1.709,1.4992,1.3379,1.2151,1.1037,0.9923,0.8719,0.7489,0.7074,0.6758,0.4393,-0.1587,-0.7515,-0.4869,-0.5841,-0.8528,-1.117,-1.195,-1.2436,-1.5057,-1.6763,-1.7963,-1.9222,-2.0387,-2.1658,-2.2862,-2.3973,-2.5126,-2.6318,-2.8277,-2.9989,-3.0803,-3.2131,-3.3068,-3.3068,-3.3148,-3.4576,-3.8802,-3.9412,-3.9416,-3.9397,-3.9409,-3.9384,-3.9432,-3.9367,-4.0485,-4.3179,-4.6864,-4.899,-4.8956,-4.9018,-4.9018,-4.9018,-4.9018,-4.9018,-4.9018,-4.9018,-4.8984,-4.9018,-4.9018,-4.9376,-5.0033,-5.077,-5.1494,-5.2196,-5.3734,-5.484,-5.5647,-5.6455,-5.7262,-5.7997,-5.7997,-5.7997,-5.7997,-5.7997,-5.7997,-5.7997,4.3497,4.3497,4.3497,4.3497,4.3497,4.3497,4.3497,4.3497,4.3497,4.3497,4.234,4.1368,4.1044,3.9652,3.8802,3.8986,3.8802,3.8667,3.8667,3.6803,3.5792,3.595,3.4759,3.3993,3.3784,3.3784,3.265,3.0228,3.0228,2.9107,2.6942,2.6791,2.5658,2.3727,2.3593,2.2414,2.0489,1.8221,1.7334,1.709,1.4992,1.3379,1.2151,1.1037,0.9923,0.8719,0.751,0.7088,0.7032,0.6265,-0.0187,-0.7828,-0.7039,-0.7997,-0.9706,-1.1365,-1.2522,-1.368,-1.5343,-1.739,-1.9039,-1.9405,-2.0387,-2.1658,-2.2862,-2.3973,-2.5126,-2.6318,-2.7869,-2.9508,-3.0991,-3.2256,-3.3073,-3.3129,-3.3091,-3.4553,-3.8853,-3.9396,-3.9371,-3.9367,-3.9409,-3.9384,-3.9432,-3.9367,-4.1617,-4.691,-4.8365,-4.9001,-4.9018,-4.9018,-4.9018,-4.9018,-4.9018,-4.9018,-4.9018,-4.9018,-4.9256,-4.9722,-4.9722,-5.009,-5.077,-5.1494,-5.1922,-5.2196,-5.3734,-5.484,-5.5647,-5.6455,-5.7262,-5.7997,-5.7997,-5.7997,-5.7997,-5.7997,-5.7997,-5.7997,4.3497,4.3497,4.3497,4.3497,4.3497,4.3497,4.3497,4.3497,4.3387,4.3057,4.1904,4.0864,4.0299,3.8842,3.806,3.8546,3.8294,3.8125,3.8125,3.6051,3.5006,3.5262,3.3621,3.2826,3.3095,3.3095,3.1915,2.9592,2.9592,2.8517,2.6465,2.6094,2.5063,2.3526,2.3062,2.179,1.9844,1.806,1.709,1.6519,1.4824,1.3124,1.1552,1.0864,0.9575,0.8105,0.734,0.649,0.5551,0.4459,-0.1234,-0.7966,-0.8018,-0.8931,-1.0288,-1.156,-1.2813,-1.4256,-1.6089,-1.8041,-1.9588,-2.0116,-2.1123,-2.2208,-2.295,-2.4296,-2.563,-2.64,-2.8117,-2.9837,-3.0597,-3.2039,-3.3107,-3.3107,-3.3135,-3.4549,-3.8773,-3.9431,-3.9409,-3.9409,-3.9409,-3.9397,-3.943,-4.0365,-4.3142,-4.8596,-4.8976,-4.9018,-4.9018,-4.9018,-4.9018,-4.9018,-4.9018,-4.9018,-4.9018,-4.9256,-4.9605,-5.0033,-5.0279,-5.0823,-5.1494,-5.1922,-5.2289,-5.2627,-5.4195,-5.5133,-5.5684,-5.6822,-5.7556,-5.7997,-5.7997,-5.7997,-5.7997,-5.7997,-5.7997,-5.7997,4.3497,4.3497,4.3497,4.3497,4.3497,4.3461,4.3387,4.3387,4.3094,4.2286,4.1247,4.0263,3.9474,3.7854,3.7022,3.7753,3.7178,3.6772,3.6772,3.4824,3.3886,3.4579,3.2634,3.1809,3.2407,3.2437,3.1302,2.9002,2.9002,2.8103,2.6465,2.5441,2.4492,2.3452,2.2467,2.0874,1.8957,1.7738,1.6683,1.5613,1.4489,1.2687,1.0605,1.0605,0.9139,0.7054,0.7094,0.5631,0.3141,-0.0,-0.419,-0.7972,-0.8045,-0.9023,-1.0386,-1.156,-1.2909,-1.4638,-1.7016,-1.8596,-1.977,-2.1016,-2.2208,-2.3144,-2.3212,-2.4978,-2.6565,-2.6648,-2.8855,-3.0604,-3.0025,-3.1655,-3.3098,-3.3116,-3.338,-3.5049,-3.8859,-3.9402,-3.9409,-3.9409,-3.9409,-3.9409,-3.9379,-4.1883,-4.4982,-4.8734,-4.8978,-4.9018,-4.9018,-4.9018,-4.9018,-4.9018,-4.9018,-4.9018,-4.9018,-4.9722,-5.009,-5.009,-5.0823,-5.1544,-5.2206,-5.2206,-5.259,-5.3408,-5.4913,-5.5647,-5.5831,-5.7373,-5.7997,-5.7997,-5.7997,-5.7997,-5.7997,-5.7997,-5.7997,-5.7997,4.3497,4.3497,4.3497,4.3497,4.3497,4.3277,4.2653,4.2543,4.2286,4.1479,4.0236,3.9226,3.8702,3.7359,3.662,3.6988,3.6874,3.6772,3.6772,3.4824,3.3662,3.3822,3.2333,3.1541,3.1691,3.1749,3.0835,2.9002,2.9002,2.8103,2.6465,2.5441,2.4492,2.3452,2.2467,2.0874,1.8957,1.7738,1.6683,1.5613,1.4489,1.2687,1.0605,1.0605,0.9139,0.7068,0.7125,0.5613,0.259,-0.4127,-0.7131,-0.7972,-0.8045,-0.9608,-1.156,-1.1853,-1.3596,-1.5724,-1.7311,-1.8596,-1.977,-2.1016,-2.2208,-2.3299,-2.4211,-2.5462,-2.673,-2.7602,-2.8937,-3.0253,-3.0948,-3.2168,-3.3065,-3.3122,-3.5925,-3.8318,-3.9244,-3.9402,-3.9409,-3.9409,-3.9409,-3.9391,-3.9405,-4.2378,-4.56,-4.8754,-4.8984,-4.9018,-4.9018,-4.9018,-4.9018,-4.9018,-4.9018,-4.9018,-4.9018,-5.0258,-5.0876,-5.0876,-5.1544,-5.2289,-5.2937,-5.2937,-5.339,-5.4179,-5.517,-5.5941,-5.6638,-5.7593,-5.7997,-5.7997,-5.7997,-5.7997,-5.7997,-5.7997,-5.7997,-5.8097,4.3497,4.3497,4.3497,4.3497,4.3497,4.3204,4.2433,4.2286,4.1882,4.0671,3.9479,3.8542,3.7922,3.6707,3.6068,3.6243,3.6569,3.651,3.5827,3.4398,3.3443,3.313,3.2104,3.1482,3.1482,3.1482,3.0718,2.9002,2.9002,2.8103,2.6465,2.4992,2.4036,2.3452,2.1962,2.0197,1.8141,1.7577,1.637,1.481,1.3717,1.2163,1.0529,1.0009,0.8681,0.7098,0.7106,0.401,-0.0855,-0.6203,-0.8018,-0.8151,-0.8726,-1.0288,-1.2047,-1.2619,-1.4638,-1.6936,-1.8226,-1.9405,-2.0657,-2.1854,-2.2999,-2.4039,-2.4617,-2.5714,-2.6789,-2.7844,-2.8992,-2.9995,-3.053,-3.197,-3.3112,-3.3086,-3.6642,-3.9372,-3.9402,-3.9371,-3.9409,-3.9409,-3.9409,-4.0061,-4.1685,-4.4821,-4.7358,-4.8877,-4.9012,-4.9018,-4.9018,-4.9018,-4.9018,-4.9018,-4.9018,-4.9168,-4.9462,-5.0554,-5.1241,-5.1593,-5.2289,-5.2813,-5.3225,-5.3225,-5.3665,-5.4436,-5.5244,-5.6051,-5.6859,-5.7666,-5.7997,-5.7997,-5.7997,-5.7997,-5.7997,-5.7997,-5.8142,-5.8461,4.3497,4.3497,4.3497,4.3497,4.3497,4.3167,4.2249,4.2103,4.1515,3.99,3.8798,3.7955,3.7243,3.6249,3.5622,3.5622,3.6197,3.6034,3.4673,3.3971,3.3287,3.2656,3.191,3.1482,3.1482,3.1336,3.051,2.9002,2.9002,2.8103,2.6465,2.4469,2.3526,2.3452,2.1451,1.9353,1.7334,1.7334,1.6041,1.3997,1.276,1.166,1.0492,0.9367,0.8177,0.7066,0.6629,0.1997,-0.4434,-0.7129,-0.7965,-0.8237,-0.9608,-1.0877,-1.2134,-1.3488,-1.5684,-1.7963,-1.9131,-2.0387,-2.1569,-2.2775,-2.3973,-2.4872,-2.5041,-2.5964,-2.7035,-2.8187,-2.9138,-2.9825,-2.9797,-3.1266,-3.288,-3.3993,-3.7098,-3.937,-3.9427,-3.9409,-3.9409,-3.9409,-3.9373,-4.0755,-4.4266,-4.7265,-4.9018,-4.8999,-4.8978,-4.9018,-4.9018,-4.9018,-4.9018,-4.9018,-4.9107,-4.9402,-4.9976,-5.0876,-5.1544,-5.2112,-5.285,-5.3225,-5.3225,-5.3225,-5.3702,-5.462,-5.5317,-5.6124,-5.7079,-5.7703,-5.7997,-5.7997,-5.7997,-5.7997,-5.7997,-5.8097,-5.8461,-5.9065,4.3497,4.3497,4.3497,4.3497,4.3497,4.2983,4.1515,4.1258,4.0708,3.9056,3.8006,3.7352,3.721,3.6249,3.5622,3.5622,3.5723,3.5417,3.464,3.3971,3.3287,3.2656,3.191,3.1482,3.1482,3.0837,2.9964,2.9002,2.9002,2.8103,2.6465,2.4469,2.3526,2.3452,2.1451,1.9353,1.7334,1.7334,1.6041,1.3997,1.276,1.1684,1.0632,0.9473,0.8345,0.7026,0.4822,0.0589,-0.4407,-0.7048,-0.7959,-0.8237,-0.9608,-1.0877,-1.2134,-1.3488,-1.5684,-1.7963,-1.9131,-2.0387,-2.1569,-2.2775,-2.3973,-2.5041,-2.6047,-2.7116,-2.8187,-2.9365,-2.9663,-2.9825,-2.9797,-3.0016,-3.2037,-3.7597,-3.9054,-3.937,-3.9427,-3.9409,-3.9409,-3.9409,-3.9412,-4.0792,-4.4262,-4.7283,-4.9044,-4.9012,-4.8984,-4.9018,-4.9018,-4.9018,-4.9018,-4.9018,-4.958,-4.9919,-4.9976,-5.1343,-5.2018,-5.2112,-5.285,-5.3225,-5.3225,-5.3225,-5.4032,-5.5427,-5.5537,-5.6455,-5.785,-5.796,-5.7997,-5.7997,-5.7997,-5.7997,-5.8042,-5.8461,-5.9139,-5.9916,4.3497,4.3497,4.3497,4.3497,4.313,4.2433,4.1295,4.0744,4.001,3.8836,3.7826,3.7173,3.7173,3.6249,3.5622,3.5622,3.5622,3.5178,3.4071,3.377,3.313,3.1992,3.1682,3.1482,3.1482,3.0718,2.9875,2.9002,2.8492,2.767,2.6465,2.4469,2.3526,2.3452,2.1451,1.9353,1.7334,1.7334,1.6148,1.415,1.2209,1.1285,1.0859,0.8958,0.7973,0.6599,-0.0394,-0.4296,-0.6448,-0.7566,-0.845,-0.9312,-1.0681,-1.194,-1.3392,-1.5399,-1.7282,-1.8948,-2.0206,-2.1391,-2.2561,-2.378,-2.4872,-2.6047,-2.7116,-2.825,-2.9218,-2.9663,-2.9787,-2.9801,-2.9812,-2.9782,-3.1941,-3.8351,-3.9383,-3.9387,-3.9367,-3.9409,-4.0141,-4.2062,-4.3773,-4.5049,-4.5798,-4.7765,-4.9018,-4.8984,-4.9018,-4.9018,-4.9018,-4.9018,-4.9168,-4.958,-4.9838,-5.039,-5.1189,-5.179,-5.2335,-5.2725,-5.306,-5.3225,-5.3225,-5.3225,-5.4069,-5.5574,-5.5574,-5.6492,-5.7997,-5.7997,-5.7997,-5.8042,-5.8282,-5.8549,-5.8835,-5.9284,-5.9722,-6.0132]},{"header":{"parameterUnit":"m.s-1","parameterCategory":1,"la1":30.6,"la2":28.766,"lo1":-90.7593,"lo2":-88.6598,"dx":0.0162,"dy":0.0183,"nx":116,"ny":114,"refTime":"2023-02-07T06:00:00:Z","depth":0,"parameterNumber":3,"parameterNumberName":"V-component_of_WINDS"},"data":[0.0,0.0,0.0,0.0,0.0,0.0,0.0,0.0,0.0,0.0,0.0,0.0,0.0,0.0,0.0,0.0,0.0,0.0,0.0,0.0,0.0,0.0,0.0,0.0,0.0,0.0,0.0,0.0,0.0,0.0,0.0,0.0,0.0,0.0,0.0,0.0,0.0,0.0,0.0,0.0,0.0,0.0,0.0,0.0,0.0,0.0,0.0,0.0,0.0,0.0,0.0,0.0,0.0,0.0,0.0,0.0,0.0,0.0,0.0,0.0,0.0,0.0,0.0,0.0,0.0,0.0,0.0,0.0,0.0,0.0,0.0,0.0,0.0,0.0,0.0,0.0,0.0,0.0,0.0,0.0,0.0,0.0,0.0,0.0,0.0,0.0,0.0,0.0,0.0,0.0,0.0,0.0,0.0,0.0,0.0,0.0,0.0,0.0,0.0,0.0,0.0,0.0,0.0,0.0,0.0,0.0,0.0,0.0,0.0,0.0,0.0,0.0,0.0,0.0,0.0,0.0,0.0,0.0,0.0,0.0,0.0,0.0,0.0,0.0,0.0,0.0,0.0,0.0,0.0,0.0,0.0,0.0,0.0,0.0,0.0,0.0,0.0,0.0,0.0,0.0,0.0,0.0,0.0,0.0,0.0,0.0,0.0,0.0,0.0,0.0,0.0,0.0,0.0,0.0,0.0,0.0,0.0,0.0,0.0,0.0,0.0,0.0,0.0,0.0,0.0,0.0,0.0,0.0,0.0,0.0,0.0,0.0,0.0,0.0,0.0,0.0,0.0,0.0,0.0,0.0,0.0,0.0,0.0,0.0,0.0,0.0,0.0,0.0,0.0,0.0,0.0,0.0,0.0,0.0,0.0,0.0,0.0,0.0,0.0,0.0,0.0,0.0,0.0,0.0,0.0,0.0,0.0,0.0,0.0,0.0,0.0,0.0,0.0,0.0,0.0,0.0,0.0,0.0,0.0,0.0,0.0,0.0,0.0,0.0,0.0,0.0,0.0,0.0,0.0,0.0,0.0,0.0,0.0,0.0,0.0,0.0,0.0,0.0,0.0,0.0,0.0,0.0,0.0,0.0,0.0,0.0,0.0,0.0,0.0,0.0,0.0,0.0,0.0,0.0,0.0,0.0,0.0,0.0,0.0,0.0,0.0,0.0,0.0,0.0,0.0,0.0,0.0,0.0,0.0,0.0,0.0,0.0,0.0,0.0,0.0,0.0,0.0,0.0,0.0,0.0,0.0,0.0,0.0,0.0,0.0,0.0,0.0,0.0,0.0,0.0,0.0,0.0,0.0,0.0,0.0,0.0,0.0,0.0,0.0,0.0,0.0,0.0,0.0,0.0,0.0,0.0,0.0,0.0,0.0,0.0,0.0,0.0,0.0,0.0,0.0,0.0,0.0,0.0,0.0,0.0,0.0,0.0,0.0,0.0,0.0,0.0,0.0,0.0,0.0,0.0,0.0,0.0,0.0,0.0,0.0,0.0,0.0,0.0,0.0,0.0,0.0,0.0,0.0,0.0,0.0,0.0,0.0,0.0,0.0,0.0,0.0,0.0,0.0,0.0,0.0,0.0,0.0,0.0,0.0,0.0,0.0,0.0,0.0,0.0,0.0,0.0,0.0,0.0,0.0,0.0,0.0,0.0,0.0,0.0,0.0,0.0,0.0,0.0,0.0,0.0,0.0,0.0,0.0,0.0,0.0,0.0,0.0,0.0,0.0,0.0,0.0,0.0,0.0,0.0,0.0,0.0,0.0,0.0,0.0,0.0,0.0,0.0,0.0,0.0,0.0,0.0,0.0,0.0,0.0,0.0,0.0,0.0,0.0,0.0,0.0,0.0,0.0,0.0,0.0,0.0,0.0,0.0,0.0,0.0,0.0,0.0,0.0,0.0,0.0,0.0,0.0,0.0,0.0,0.0,0.0,0.0,0.0,0.0,0.0,0.0,0.0,0.0,0.0,0.0,0.0,0.0,0.0,0.0,0.0,0.0,0.0,0.0,0.0,0.0,0.0,0.0,0.0,0.0,0.0,0.0,0.0,0.0,0.0,0.0,0.0,0.0,0.0,0.0,0.0,0.0,0.0,0.0,0.0,0.0,0.0,0.0,0.0,0.0,0.0,0.0,0.0,0.0,0.0,0.0,0.0,0.0,0.0,0.0,0.0,0.0,0.0,0.0,0.0,0.0,0.0,0.0,0.0,0.0,0.0,0.0,0.0,0.0,0.0,0.0,0.0,0.0,0.0,0.0,0.0,0.0,0.0,0.0,0.0,0.0,0.0,0.0,0.0,0.0,0.0,0.0,0.0,0.0,0.0,0.0,0.0,0.0,0.0,0.0,0.0,0.0,0.0,0.0,0.0,0.0,0.0,0.0,0.0,0.0,0.0,0.0,0.0,0.0,0.0,0.0,0.0,0.0,0.0,0.0,0.0,0.0,0.0,0.0,0.0,0.0,0.0,0.0,0.0,0.0,0.0,0.0,0.0,0.0,0.0,0.0,0.0,0.0,0.0,0.0,0.0,0.0,0.0,0.0,0.0,0.0,0.0,0.0,0.0,0.0,0.0,0.0,0.0,0.0,0.0,0.0,0.0,0.0,0.0,0.0,0.0,0.0,0.0,0.0,0.0,0.0,0.0,0.0,0.0,0.0,0.0,0.0,0.0,0.0,0.0,0.0,0.0,0.0,0.0,0.0,0.0,0.0,0.0,0.0,0.0,0.0,0.0,0.0,0.0,0.0,0.0,0.0,0.0,0.0,0.0,0.0,0.0,0.0,0.0,0.0,0.0,0.0,0.0,0.0,0.0,0.0,0.0,0.0,0.0,0.0,0.0,0.0,0.0,0.0,0.0,0.0,0.0,0.0,0.0,0.0,0.0,0.0,0.0,0.0,0.0,0.0,0.0,0.0,0.0,0.0,0.0,0.0,0.0,0.0,0.0,0.0,0.0,0.0,0.0,0.0,0.0,0.0,0.0,0.0,0.0,0.0,0.0,0.0,0.0,0.0,0.0,0.0,0.0,0.0,0.0,0.0,0.0,0.0,0.0,0.0,0.0,0.0,0.0,0.0,0.0,0.0,0.0,0.0,0.0,0.0,0.0,0.0,0.0,0.0,0.0,0.0,0.0,0.0,0.0,0.0,0.0,0.0,0.0,0.0,0.0,0.0,0.0,0.0,0.0,0.0,0.0,0.0,0.0,0.0,0.0,0.0,0.0,0.0,0.0,0.0,0.0,0.0,0.0,0.0,0.0,0.0,0.0,0.0,0.0,0.0,0.0,0.0,0.0,0.0,0.0,0.0,0.0,0.0,0.0,0.0,0.0,0.0,0.0,0.0,0.0,0.0,0.0,0.0,0.0,0.0,0.0,0.0,0.0,0.0,0.0,0.0,0.0,0.0,0.0,0.0,0.0,0.0,0.0,0.0,0.0,0.0,0.0,0.0,0.0,0.0,0.0,0.0,0.0,0.0,0.0,0.0,0.0,0.0,0.0,0.0,0.0,0.0,0.0,0.0,0.0,0.0,0.0,0.0,0.0,0.0,0.0,0.0,0.0,0.0,0.0,0.0,0.0,0.0,0.0,0.0,0.0,0.0,0.0,0.0,0.0,0.0,0.0,0.0,0.0,0.0,0.0,0.0,0.0,0.0,0.0,0.0,0.0,0.0,0.0,0.0,0.0,0.0,0.0,0.0,0.0,0.0,0.0,0.0,0.0,0.0,0.0,0.0,0.0,0.0,0.0,0.0,0.0,0.0,0.0,0.0,0.0,0.0,0.0,0.0,0.0,0.0,0.0,0.0,0.0,0.0,0.0,0.0,0.0,0.0,0.0,0.0,0.0,0.0,0.0,0.0,0.0,0.0,0.0,0.0,0.0,0.0,0.0,0.0,0.0,0.0,0.0,0.0,0.0,0.0,0.0,0.0,0.0,0.0,0.0,0.0,0.0,0.0,0.0,0.0,0.0,0.0,0.0,0.0,0.0,0.0,0.0,0.0,0.0,0.0,0.0,0.0,0.0,0.0,0.0,0.0,0.0,0.0,0.0,0.0,0.0,0.0,0.0,0.0,0.0,0.0,0.0,0.0,0.0,0.0,0.0,0.0,0.0,0.0,0.0,0.0,0.0,0.0,0.0,0.0,0.0,0.0,0.0,0.0,0.0,0.0,0.0,0.0,0.0,0.0,0.0,0.0,0.0,0.0,0.0,0.0,0.0,0.0,0.0,0.0,0.0,0.0,0.0,0.0,0.0,0.0,0.0,0.0,0.0,0.0,0.0,0.0,0.0,0.0,0.0,0.0,0.0,0.0,0.0,0.0,0.0,0.0,0.0,0.0,0.0,0.0,0.0,0.0,0.0,0.0,0.0,0.0,0.0,0.0,0.0,0.0,0.0,0.0,0.0,0.0,0.0,0.0,0.0,0.0,0.0,0.0,0.0,0.0,0.0,0.0,0.0,0.0,0.0,0.0,0.0,0.0,0.0,0.0,0.0,0.0,0.0,0.0,0.0,0.0,0.0,0.0,0.0,0.0,0.0,0.0,0.0,0.0,0.0,0.0,0.0,0.0,0.0,0.0,0.0,0.0,0.0,0.0,0.0,0.0,0.0,0.0,0.0,0.0,0.0,0.0,0.0,0.0,0.0,0.0,0.0,0.0,0.0,0.0,0.0,0.0,0.0,0.0,0.0,0.0,0.0,0.0,0.0,0.0,0.0,0.0,0.0,0.0,0.0,0.0,0.0,0.0,0.0,0.0,0.0,0.0,0.0,0.0,0.0,0.0,0.0,0.0,0.0,0.0,0.0,0.0,0.0,0.0,0.0,0.0,0.0,0.0,0.0,0.0,0.0,0.0,0.0,0.0,0.0,0.0,0.0,0.0,0.0,0.0,0.0,0.0,0.0,0.0,0.0,0.0,0.0,0.0,0.0,0.0,0.0,0.0,0.0,0.0,0.0,0.0,0.0,0.0,0.0,0.0,0.0,0.0,0.0,0.0,0.0,0.0,0.0,0.0,0.0,0.0,0.0,0.0,0.0,0.0,0.0,0.0,0.0,0.0,0.0,0.0,0.0,0.0,0.0,0.0,0.0,0.0,0.0,0.0,0.0,0.0,0.0,0.0,0.0,0.0,0.0,0.0,0.0,0.0,0.0,0.0,0.0,0.0,0.0,0.0,0.0,0.0,0.0,0.0,0.0,0.0,0.0,0.0,0.0,0.0,0.0,0.0,0.0,0.0,0.0,0.0,0.0,0.0,0.0,0.0,0.0,0.0,0.0,0.0,0.0,0.0,0.0,0.0,0.0,0.0,0.0,0.0,0.0,0.0,0.0,0.0,0.0,0.0,0.0,0.0,0.0,0.0,0.0,0.0,0.0,0.0,0.0,0.0,0.0,0.0,0.0,0.0,0.0,0.0,0.0,0.0,0.0,0.0,0.0,0.0,0.0,0.0,0.0,0.0,0.0,0.0,0.0,0.0,0.0,0.0,0.0,0.0,0.0,0.0,0.0,0.0,0.0,0.0,0.0,0.0,0.0,0.0,0.0,0.0,0.0,0.0,0.0,0.0,0.0,0.0,0.0,0.0,0.0,0.0,0.0,0.0,0.0,0.0,0.0,0.0,0.0,0.0,0.0,0.0,0.0,0.0,0.0,0.0,0.0,0.0,0.0,0.0,0.0,0.0,0.0,0.0,0.0,0.0,0.0,0.0,0.0,0.0,0.0,0.0,0.0,0.0,0.0,0.0,0.0,0.0,0.0,0.0,0.0,0.0,0.0,0.0,0.0,0.0,0.0,0.0,0.0,0.0,0.0,0.0,0.0,0.0,0.0,0.0,0.0,0.0,0.0,0.0,0.0,0.0,0.0,0.0,0.0,0.0,0.0,0.0,0.0,0.0,0.0,0.0,0.0,0.0,0.0,0.0,0.0,0.0,0.0,0.0,0.0,0.0,0.0,0.0,0.0,0.0,0.0,0.0,0.0,0.0,0.0,0.0,0.0,0.0,0.0,0.0,0.0,0.0,0.0,0.0,0.0,0.0,0.0,0.0,0.0,0.0,0.0,0.0,0.0,0.0,0.0,0.0,0.0,0.0,0.0,0.0,0.0,0.0,0.0,0.0,0.0,0.0,0.0,0.0,-3.6283,0.0,0.0,0.0,0.0,0.0,0.0,0.0,0.0,0.0,0.0,0.0,0.0,0.0,0.0,0.0,0.0,0.0,0.0,0.0,0.0,0.0,0.0,0.0,0.0,0.0,0.0,0.0,0.0,0.0,0.0,0.0,0.0,0.0,0.0,0.0,0.0,0.0,0.0,0.0,-2.3065,-2.3276,-2.3552,-2.3828,-2.4381,-2.5209,0.0,0.0,0.0,0.0,0.0,0.0,0.0,0.0,0.0,0.0,0.0,0.0,0.0,0.0,0.0,0.0,0.0,0.0,0.0,0.0,0.0,0.0,0.0,0.0,0.0,0.0,0.0,0.0,0.0,0.0,0.0,0.0,0.0,0.0,0.0,0.0,0.0,0.0,0.0,0.0,0.0,0.0,0.0,0.0,0.0,0.0,0.0,0.0,0.0,0.0,0.0,0.0,0.0,0.0,0.0,0.0,0.0,0.0,0.0,0.0,0.0,0.0,0.0,0.0,0.0,0.0,0.0,0.0,0.0,0.0,0.0,-3.5519,0.0,0.0,0.0,0.0,0.0,0.0,0.0,0.0,0.0,0.0,0.0,0.0,0.0,0.0,0.0,0.0,0.0,0.0,0.0,0.0,0.0,0.0,0.0,0.0,-2.3065,-2.3065,-2.3065,0.0,0.0,0.0,0.0,0.0,0.0,0.0,0.0,-2.3065,-2.3065,-2.3065,-2.3251,-2.3577,-2.4155,-2.4707,-2.5234,-2.5762,-2.6138,0.0,0.0,0.0,0.0,0.0,0.0,0.0,0.0,0.0,0.0,0.0,0.0,0.0,0.0,0.0,0.0,0.0,0.0,0.0,0.0,0.0,0.0,0.0,0.0,0.0,0.0,0.0,0.0,0.0,0.0,0.0,0.0,0.0,0.0,0.0,0.0,0.0,0.0,0.0,0.0,0.0,0.0,0.0,0.0,0.0,0.0,0.0,0.0,0.0,0.0,0.0,0.0,0.0,0.0,0.0,0.0,0.0,0.0,0.0,0.0,0.0,0.0,0.0,-4.0392,-4.046,-4.046,-3.886,-3.811,-3.7924,-3.6379,-3.5609,-3.5519,0.0,0.0,0.0,0.0,0.0,0.0,0.0,0.0,0.0,0.0,0.0,0.0,0.0,0.0,0.0,0.0,0.0,0.0,0.0,0.0,0.0,0.0,-2.3065,-2.3065,-2.3065,-2.3065,-2.3065,0.0,0.0,0.0,0.0,0.0,0.0,-2.3065,-2.3065,-2.3065,-2.3065,-2.3627,-2.418,-2.4732,-2.5234,-2.5787,-2.6339,-2.5912,-2.6432,-2.7537,0.0,0.0,0.0,0.0,0.0,0.0,0.0,0.0,0.0,0.0,0.0,0.0,0.0,0.0,0.0,0.0,0.0,0.0,0.0,0.0,0.0,0.0,0.0,0.0,0.0,0.0,0.0,0.0,0.0,0.0,0.0,0.0,0.0,0.0,0.0,0.0,0.0,0.0,0.0,0.0,0.0,-5.1367,-5.1211,0.0,0.0,0.0,0.0,0.0,0.0,0.0,0.0,0.0,0.0,0.0,0.0,0.0,-4.2079,-4.2367,-4.2002,-4.1557,-4.1068,-4.1677,-4.2016,-4.1929,-4.0326,-3.9354,-3.8658,-3.7052,0.0,-3.5519,-3.5519,0.0,0.0,0.0,0.0,0.0,0.0,0.0,0.0,0.0,0.0,0.0,0.0,0.0,0.0,0.0,0.0,0.0,0.0,0.0,0.0,0.0,-2.2125,-2.2249,-2.1729,-2.1667,-2.1939,-2.2372,0.0,0.0,0.0,0.0,-2.3065,-2.3065,-2.3065,-2.3301,-2.3627,-2.4481,-2.5184,-2.5762,-2.6615,-2.7143,-2.7369,-2.7118,-2.7,-2.7027,-2.7471,0.0,0.0,0.0,0.0,0.0,0.0,0.0,0.0,0.0,0.0,0.0,0.0,0.0,0.0,0.0,0.0,0.0,0.0,0.0,0.0,0.0,0.0,0.0,0.0,0.0,0.0,0.0,0.0,0.0,0.0,0.0,0.0,0.0,0.0,0.0,0.0,0.0,0.0,0.0,-5.1406,-5.1367,-5.1328,-5.118,-5.0712,0.0,0.0,0.0,0.0,0.0,0.0,0.0,0.0,0.0,-4.5512,-4.3519,-4.2705,-4.3254,-4.2561,-4.2091,-4.1813,-4.2151,-4.2286,-4.2233,-4.0587,-3.971,-3.9361,-3.7724,-3.6656,-3.6028,-3.5669,-3.5198,-3.4773,0.0,0.0,0.0,0.0,-3.1167,-3.1044,0.0,0.0,0.0,0.0,0.0,0.0,0.0,0.0,0.0,0.0,0.0,0.0,-2.0655,-2.1279,-2.1429,-2.0677,-2.0896,-2.1302,-2.1877,-2.2063,0.0,0.0,-2.294,-2.3,-2.3065,-2.3215,-2.3627,-2.4205,-2.5285,-2.6113,-2.676,-2.7645,-2.8097,-2.8097,-2.8097,-2.757,-2.6735,-2.7301,-2.8,-2.8748,0.0,0.0,0.0,0.0,0.0,0.0,0.0,0.0,0.0,0.0,0.0,0.0,0.0,0.0,0.0,0.0,0.0,0.0,0.0,0.0,0.0,0.0,0.0,0.0,0.0,0.0,0.0,0.0,0.0,0.0,0.0,0.0,0.0,0.0,0.0,0.0,0.0,-5.1406,-5.1406,-5.1406,-5.1219,-5.0673,0.0,0.0,0.0,0.0,0.0,0.0,-4.6807,-4.5094,-4.4856,-4.6471,-4.452,-4.3748,-4.4395,-4.337,-4.2717,-4.2591,-4.2794,-4.2861,-4.2807,-4.1173,-4.0318,-4.0096,-3.8397,-3.7315,-3.6656,-3.6028,-3.5639,-3.5424,-3.4677,-3.438,-3.4177,-3.2236,-3.1536,-3.1389,0.0,0.0,0.0,0.0,0.0,0.0,0.0,0.0,0.0,0.0,0.0,-2.0655,-2.059,-2.0994,-2.1083,-2.0635,-2.173,-2.2273,-2.1901,-2.2641,-2.3065,-2.3065,-2.2623,-2.2598,-2.3065,-2.3678,-2.423,-2.4782,-2.5887,-2.6691,-2.7243,-2.7846,-2.8097,-2.8097,-2.8097,-2.7795,-2.7243,-2.7314,-2.7447,-2.7868,-2.8684,0.0,0.0,0.0,0.0,0.0,0.0,0.0,0.0,0.0,0.0,0.0,0.0,0.0,0.0,0.0,0.0,0.0,0.0,0.0,0.0,0.0,0.0,0.0,0.0,0.0,0.0,0.0,0.0,0.0,0.0,0.0,0.0,0.0,0.0,0.0,0.0,0.0,0.0,-5.1406,-5.1219,0.0,0.0,0.0,0.0,-4.7068,-4.692,-4.725,-4.8051,-4.6632,-4.6507,-4.8122,-4.6041,-4.5036,-4.5255,-4.453,-4.3889,-4.3369,-4.4113,-4.4451,-4.4395,-4.2671,-4.1533,-4.0831,-3.91,-3.7973,-3.7315,-3.6686,-3.6058,-3.5489,-3.5424,-3.5424,-3.5198,-3.3255,-3.2522,-3.2236,0.0,0.0,0.0,0.0,0.0,0.0,0.0,0.0,0.0,-1.8977,-1.9879,-2.0249,-1.9437,-1.9944,-2.0432,-2.0719,-2.0793,-2.1306,-2.2337,-2.1981,-2.2127,-2.3065,-2.2598,-2.2749,-2.3678,-2.423,-2.4983,-2.5862,-2.6967,-2.7795,-2.8348,-2.8925,-2.9202,-2.9202,-2.9202,-2.8875,-2.8323,-2.7971,-2.794,-2.8264,-2.8572,-2.9334,0.0,0.0,0.0,0.0,0.0,0.0,0.0,0.0,0.0,0.0,0.0,0.0,0.0,0.0,0.0,0.0,0.0,0.0,0.0,0.0,0.0,0.0,0.0,0.0,0.0,0.0,0.0,0.0,0.0,0.0,0.0,0.0,0.0,0.0,0.0,0.0,0.0,-5.1406,-5.1219,0.0,-4.9432,-4.8856,-4.8202,-4.7367,-4.6607,-4.6685,-4.7804,-4.6644,-4.6468,-4.7601,-4.6004,-4.5209,-4.5346,-4.4783,-4.4368,-4.4181,-4.4451,-4.4327,-4.3739,-4.252,-4.1531,-4.072,-3.9555,-3.8661,-3.8033,-3.7793,-3.7075,-3.6118,-3.6118,-3.6118,-3.5926,-3.4185,-3.341,-3.3028,0.0,0.0,0.0,0.0,0.0,0.0,0.0,0.0,0.0,-1.788,-1.9019,-1.964,-1.8951,-1.9584,-2.0257,-2.0473,-2.0419,-2.0849,-2.2143,-2.1643,-2.1801,-2.3065,-2.2975,-2.3226,-2.3979,-2.4908,-2.5912,-2.7017,-2.7921,-2.8674,-2.9227,-2.9603,-2.9804,-2.9804,-2.9804,-2.9578,-2.9202,-2.8825,-2.8562,-2.836,-2.8428,-2.9092,-2.9919,0.0,0.0,0.0,0.0,0.0,0.0,0.0,0.0,0.0,0.0,0.0,0.0,0.0,0.0,0.0,0.0,0.0,0.0,0.0,0.0,0.0,0.0,0.0,0.0,0.0,0.0,0.0,0.0,0.0,0.0,0.0,0.0,0.0,0.0,0.0,-5.1361,-5.133,-5.1178,-5.0739,-4.9817,-4.9009,-4.8355,-4.7976,-4.6859,-4.674,-4.8058,-4.6945,-4.6832,-4.8037,-4.6757,-4.6068,-4.6184,-4.5391,-4.4823,-4.4587,-4.4587,-4.4327,-4.368,-4.252,-4.1658,-4.1095,-3.995,-3.917,-3.8751,-3.8751,-3.8093,-3.7105,-3.6896,-3.6806,-3.6649,-3.5194,-3.4342,-3.3661,0.0,0.0,0.0,0.0,0.0,0.0,0.0,-1.7754,-1.7852,-1.7461,-1.8125,-1.8809,-1.9258,-2.0039,-2.0371,-1.9961,-2.0703,-2.1211,-2.1241,-2.1632,-2.2249,-2.3005,-2.3703,-2.4029,-2.4017,-2.5594,-2.6972,-2.8049,-2.8525,-2.9151,-2.9779,-2.9779,-2.9804,-2.9804,-2.9804,-2.9829,-2.9854,-2.9854,-2.9202,-2.822,-2.8386,-2.8881,-2.9459,0.0,0.0,0.0,0.0,0.0,0.0,0.0,0.0,0.0,0.0,0.0,0.0,0.0,0.0,0.0,0.0,0.0,0.0,0.0,0.0,0.0,0.0,0.0,0.0,0.0,0.0,0.0,0.0,0.0,0.0,0.0,0.0,0.0,-5.0234,-5.0898,-5.1357,-5.1218,-5.1164,-5.0739,-4.9738,-4.9567,-4.9314,-4.8891,-4.7768,-4.7671,-4.8874,-4.7831,-4.7976,-4.9554,-4.8263,-4.7652,-4.7723,-4.633,-4.5331,-4.4621,-4.4587,-4.4587,-4.444,-4.2769,-4.2013,-4.182,-4.02,-3.9409,-3.9409,-3.9409,-3.902,-3.8362,-3.7704,-3.7434,-3.7297,-3.637,-3.5378,-3.4142,0.0,0.0,0.0,0.0,0.0,0.0,0.0,-1.8449,-1.867,-1.7919,-1.8831,-1.9596,-1.9723,-1.9961,-2.046,-2.1302,-2.1021,-2.122,-2.2232,-2.1596,-2.1534,-2.2039,-2.3677,-2.4279,-2.3536,-2.5443,-2.6467,-2.6309,-2.692,-2.7646,-2.8609,-2.8609,-2.9224,-3.0382,-3.0382,-3.0608,-3.0959,-3.0959,-3.0758,-3.0357,-2.9226,-2.9073,-2.9495,0.0,0.0,0.0,0.0,0.0,0.0,0.0,0.0,0.0,0.0,0.0,0.0,0.0,0.0,0.0,0.0,0.0,0.0,0.0,0.0,0.0,0.0,0.0,0.0,0.0,0.0,0.0,0.0,0.0,0.0,0.0,0.0,-5.1055,-5.1055,-5.125,-5.1357,-5.1218,-5.1663,-5.1604,-5.0645,-5.0933,-5.1041,-5.0631,-5.0041,-4.9739,-4.9806,-4.9787,-4.9756,-4.9662,-4.8365,-4.7985,-4.8556,-4.611,-4.506,-4.5399,-4.4857,-4.3914,-4.2707,-4.2831,-4.1949,-4.013,-4.0239,-3.999,-3.9409,-3.9409,-3.932,-3.908,-3.8392,-3.8123,-3.8063,-3.7278,-3.6201,-3.4717,0.0,0.0,0.0,0.0,0.0,0.0,0.0,-1.8342,-1.8536,-1.7841,-1.8883,-1.9716,-1.9919,-2.0078,-2.0503,-2.1354,-2.0907,-2.1021,-2.2012,-2.1816,-2.1698,-2.1763,-2.3317,-2.4143,-2.3935,-2.5378,-2.6119,-2.5954,-2.6816,-2.7522,-2.8108,-2.8826,-2.9702,-3.0633,-3.0834,-3.111,-3.1386,-3.1386,-3.1386,-3.1311,-3.0357,-2.9935,-2.9995,-3.0554,-3.1467,-3.2587,-3.4448,-3.5492,-3.6133,-3.7018,0.0,0.0,0.0,0.0,0.0,0.0,0.0,0.0,0.0,0.0,0.0,0.0,0.0,0.0,0.0,0.0,0.0,0.0,0.0,0.0,0.0,0.0,0.0,0.0,-5.0,-5.1133,-5.1836,-5.1898,-5.1958,-5.2191,-5.2511,-5.2528,-5.1933,-5.2202,-5.2226,-5.1646,-5.1357,-5.0997,-5.049,-5.0667,-5.0629,-5.0236,-4.9162,-4.8729,-4.891,-4.6647,-4.5568,-4.5703,-4.4925,-4.4064,-4.3075,-4.2831,-4.1949,0.0,-4.0239,-3.9879,-3.9409,-3.9409,-3.9409,0.0,0.0,0.0,0.0,0.0,-3.64,-3.5347,0.0,0.0,0.0,0.0,0.0,0.0,0.0,-1.7695,-1.7812,-1.7441,-1.8457,-1.9375,-1.9805,-2.0156,-2.0371,-2.041,-2.0492,-2.0706,-2.1197,-2.197,-2.2246,-2.1926,-2.2928,-2.3882,-2.4736,-2.5383,-2.5931,-2.6318,-2.736,-2.7924,-2.7947,-2.9671,-3.0473,-3.0733,-3.126,-3.1512,-3.1587,-3.1587,-3.1587,-3.1587,-3.165,-3.1241,-3.077,-3.1074,-3.182,-3.2834,-3.428,-3.5488,-3.6508,-3.6508,0.0,0.0,0.0,0.0,0.0,0.0,0.0,0.0,0.0,0.0,0.0,0.0,0.0,0.0,0.0,0.0,0.0,0.0,0.0,0.0,0.0,0.0,0.0,0.0,-4.9844,-5.1055,-5.2773,-5.2858,-5.2991,-5.3521,-5.3563,-5.3451,-5.3241,-5.3356,-5.3139,-5.2265,-5.2251,-5.1869,-5.0925,0.0,0.0,0.0,0.0,-4.9556,-4.8806,-4.7466,-4.6481,-4.5838,-4.506,-4.4688,-4.4518,-4.2863,-4.2078,-4.1755,-4.02,-3.9481,-3.9409,-3.9409,-3.9409,-3.9409,-3.9409,-3.9409,-3.9162,-3.7175,-3.629,-3.5894,0.0,0.0,0.0,0.0,0.0,0.0,0.0,-1.7461,-1.748,-1.7402,-1.8184,-1.8926,-1.9355,-1.918,-1.916,-1.9512,-1.9553,-2.0002,-2.1152,-2.1688,-2.1967,-2.1893,-2.3569,-2.4434,-2.4296,-2.5672,-2.5959,-2.5126,-2.6295,-2.6812,-2.6812,-2.8468,-2.9951,-3.126,-3.1813,-3.2315,-3.2742,-3.2742,-3.2742,-3.2777,-3.3157,-3.2478,-3.1428,-3.309,-3.3532,-3.3529,-3.5389,-3.5949,-3.5718,-3.5718,-3.6228,-3.6843,-3.6843,-3.7758,0.0,0.0,0.0,0.0,0.0,0.0,0.0,0.0,0.0,0.0,0.0,0.0,0.0,0.0,0.0,0.0,0.0,0.0,0.0,-5.0777,-5.1641,-5.2812,-5.4531,-5.4585,-5.4255,-5.3687,-5.4108,-5.4105,-5.328,-5.4434,-5.4703,-5.3541,-5.38,-5.3203,-5.1377,-5.222,-5.1615,-4.9117,-4.9661,-4.9327,-4.8043,-4.7193,-4.6718,-4.6583,0.0,0.0,-4.439,-4.3493,-4.2269,-4.0961,-4.0554,-4.006,-3.9409,-3.9409,-3.9409,-3.9409,-3.9409,-3.9409,-3.9265,-3.7994,-3.6944,-3.6053,0.0,0.0,0.0,0.0,0.0,0.0,0.0,-1.7695,-1.7695,-1.7695,-1.8634,-1.9184,-1.8945,-1.8974,-1.9,-1.9153,-1.9417,-1.9944,-2.1041,-2.1381,-2.1681,-2.1868,-2.302,-2.366,-2.3628,-2.4449,-2.4553,-2.3973,-2.5041,-2.6096,-2.6948,-2.8621,-3.025,-3.1838,-3.2692,-3.3219,-3.3495,-3.3796,-3.3897,-3.396,-3.4152,-3.3946,-3.3576,-3.4748,-3.4961,-3.4924,-3.6419,-3.6537,-3.5998,-3.5998,-3.5989,-3.6102,-3.6508,-3.744,-3.8469,0.0,0.0,0.0,0.0,0.0,0.0,0.0,0.0,0.0,0.0,0.0,0.0,0.0,0.0,-4.8425,0.0,0.0,-5.078,-5.1287,-5.2472,-5.3776,-5.5015,-5.5013,-5.4893,-5.4898,-5.5066,-5.5011,-5.4511,-5.5203,-5.5293,-5.4211,-5.4383,-5.3849,-5.2379,-5.2835,-5.2346,-5.038,-5.0138,-4.9433,-4.839,-4.6954,-4.6244,-4.6244,-4.55,-4.4923,-4.4449,-4.3211,-4.2205,-4.1264,-4.0447,-3.9809,-3.9409,-3.9409,-3.9409,-3.9409,-3.9409,-3.9409,-3.9265,-3.8219,-3.7098,-3.6053,0.0,0.0,0.0,0.0,0.0,0.0,0.0,0.0,-1.7852,-1.7773,-1.8914,-1.9384,-1.835,-1.887,-1.9254,-1.9212,-1.9402,-2.0006,-2.1107,-2.1195,-2.146,-2.1953,-2.25,-2.2957,-2.3387,-2.3466,-2.3505,-2.3505,-2.4677,-2.6021,-2.7442,-2.916,-3.0737,-3.2265,-3.3395,-3.3897,-3.3947,-3.45,-3.4726,-3.4726,-3.5149,-3.5557,-3.5865,-3.6589,-3.6534,-3.6302,-3.7089,-3.7015,-3.6477,-3.6327,-3.5938,-3.5619,-3.6384,-3.7144,-3.7937,-3.869,-3.9868,0.0,0.0,0.0,0.0,0.0,0.0,0.0,0.0,0.0,-4.7818,-4.8068,-4.8337,-4.8605,-4.8913,-5.0315,-5.1557,-5.1981,-5.3286,-5.4523,-5.5268,-5.5233,-5.5404,-5.6074,-5.5857,-5.5703,-5.5703,-5.5621,-5.5262,-5.4547,-5.442,-5.394,-5.301,-5.3115,-5.2631,-5.1286,-5.0574,-4.9521,-4.81,-4.6794,-4.5974,-4.5703,-4.5094,-4.4801,-4.4673,-4.2837,-4.2013,-4.1881,-4.0121,-3.9409,-3.9409,-3.9409,-3.9499,-3.9619,-3.9619,-3.9619,-3.9444,-3.8501,-3.7329,-3.6053,0.0,0.0,0.0,0.0,0.0,0.0,0.0,0.0,0.0,-1.6934,-1.8328,-1.875,-1.7096,-1.8216,-1.9208,-1.9549,-1.9328,-1.9849,-2.1479,-2.1343,-2.1565,-2.2402,-2.3223,-2.3987,-2.4638,-2.4947,-2.5176,-2.5176,-2.6259,-2.7186,-2.785,-2.9589,-3.1016,-3.2265,-3.3395,-3.3897,-3.3947,-3.45,-3.4726,-3.4906,-3.6909,-3.7373,-3.7123,-3.9174,-3.8605,-3.6735,-3.7238,-3.7015,-3.6387,-3.5818,-3.5579,-3.5619,-3.6384,-3.7144,-3.7937,-3.869,-3.9868,-4.1059,-4.1516,-4.2541,-4.3611,-4.4453,-4.4457,-4.4617,0.0,0.0,-4.6686,-4.7426,-4.8485,-4.9548,-5.0452,-5.1463,-5.2746,-5.4401,-5.4921,-5.5421,-5.6136,-5.6151,-5.6018,-5.5955,-5.578,-5.5703,-5.5703,-5.5375,-5.496,-5.4516,-5.4118,-5.3385,-5.2201,-5.2821,-5.1653,-4.8306,-4.9968,-4.91,-4.5128,-4.6811,-4.7022,-4.5703,-4.5635,-4.5462,-4.523,-4.3008,-4.1876,-4.1658,-4.0081,-3.9409,-3.9409,-3.9409,-3.9768,-4.0277,-4.0277,-4.0277,-4.0217,-3.9473,-3.7965,-3.6212,0.0,0.0,0.0,0.0,0.0,0.0,0.0,0.0,0.0,0.0,-1.8553,-1.873,-1.7233,-1.8023,-1.8599,-1.8437,-1.8989,-2.0031,-2.1498,-2.1314,-2.1836,-2.3203,-2.3594,-2.4078,-2.4565,-2.4746,-2.4847,-2.4847,-2.5276,-2.6466,-2.8453,-2.9121,-3.0771,-3.3219,-3.4022,-3.455,-3.4901,-3.5454,-3.6116,-3.6793,-3.775,-3.8279,-3.862,-3.917,-3.8458,-3.7175,-3.7357,-3.6984,0.0,-3.6194,-3.6138,-3.6404,-3.7572,-3.8157,-3.8657,-3.9733,-4.046,-4.1024,-4.1639,-4.2422,-4.3104,-4.3432,-4.4113,-4.4892,-4.5531,-4.6749,-4.7861,-4.8181,-4.9652,-5.101,-5.151,-5.2815,-5.3909,0.0,-5.5312,-5.5915,-5.5578,-5.5498,-5.534,-5.5088,-5.4587,-5.4626,-5.5588,-5.535,-5.4933,-5.4516,-5.4048,-5.3495,-5.2752,-5.2564,-5.1602,-4.9672,-4.9706,-4.8486,-4.5849,-4.634,-4.6109,-4.506,-4.506,-4.5024,-4.4875,-4.2905,-4.1386,-4.0345,-3.9673,-3.9409,-3.9409,-3.9409,-3.9589,-3.9828,-3.9828,-3.9828,-3.9755,-3.9223,-3.8207,-3.6944,0.0,0.0,0.0,0.0,0.0,0.0,0.0,0.0,0.0,0.0,0.0,-1.901,-1.8185,-1.802,-1.7953,-1.7801,-1.8709,-1.977,-2.0935,-2.11,-2.1894,-2.3379,-2.3769,-2.4043,-2.4238,-2.4473,-2.459,-2.459,-2.459,-2.6064,-2.897,-2.897,-3.0707,-3.3922,-3.4474,-3.5027,-3.5579,-3.6481,-3.7335,-3.8172,-3.8639,-3.906,-3.9291,-3.8793,-3.7899,-3.6866,-3.7134,-3.674,-3.6199,-3.6315,-3.6474,-3.6942,-3.8177,-3.8743,-3.9143,-4.0508,-4.1115,-4.1473,-4.1937,-4.2462,-4.2956,-4.3021,-4.4052,-4.5185,-4.563,-4.7249,-4.8707,-4.8935,-5.0374,-5.1664,-5.201,-5.3223,-5.4078,-5.3782,-5.4958,-5.5575,-5.4675,-5.4536,-5.4339,-5.3857,-5.3241,-5.3318,-5.4549,-5.46,-5.4524,-5.4516,-5.3755,-5.3191,-5.2858,-5.2307,-5.1426,-5.0135,-4.947,-4.8186,-4.6148,-4.5818,-4.5331,-4.4587,-4.4587,-4.4541,-4.4423,-4.2749,-4.1013,-3.9409,-3.9409,-3.9409,-3.9409,-3.9409,-3.9529,-3.9679,-3.9679,-3.9679,-3.9593,-3.9004,-3.8208,-3.7098,0.0,0.0,0.0,0.0,0.0,0.0,0.0,0.0,0.0,0.0,0.0,0.0,0.0,-1.8201,-1.7525,-1.8235,-1.8419,-1.8864,-1.9713,-2.0635,-2.1621,-2.2519,-2.373,-2.4219,-2.3828,-2.4629,-2.5059,-2.5059,-2.5059,-2.6537,-2.9396,-2.9396,-3.1035,-3.3922,-3.4474,-3.5027,-3.5579,-3.7352,-3.8107,-3.8235,-3.9901,-3.9837,-3.8727,-3.847,-3.7255,-3.5614,-3.6289,-3.6076,-3.5546,-3.564,-3.6111,-3.679,-3.7588,-3.8294,-3.9143,-4.0508,-4.1725,-4.2655,-4.2655,0.0,-4.3539,-4.3788,-4.4308,-4.5112,-4.6691,-4.7714,-4.8541,-4.9315,-5.0159,-5.0971,-5.1779,-5.2182,-5.2664,-5.3452,-5.3865,-5.3974,-5.3671,-5.3646,-5.3241,-5.2125,-5.1972,-5.1972,0.0,-5.2764,-5.3616,-5.4446,-5.2977,-5.2055,-5.2013,-5.2013,-5.0707,-4.7903,-4.9189,-4.8295,-4.4677,-4.5331,-4.5331,-4.4587,-4.4587,-4.449,-4.422,-4.2505,-4.0882,-3.9409,-3.9409,-3.9409,-3.9409,-3.9409,-3.9798,-4.0367,-4.0367,-4.0367,-4.0219,-3.9179,-3.7714,-3.629,0.0,0.0,0.0,0.0,0.0,0.0,0.0,0.0,0.0,0.0,0.0,0.0,0.0,0.0,0.0,0.0,-1.8736,-1.9233,-1.9277,-2.041,-2.1211,-2.1621,-2.2891,-2.3652,-2.3789,-2.4629,-2.5059,-2.5059,-2.5371,-2.6866,-2.9396,-2.9396,-3.1058,-3.3897,-3.4098,-3.4675,-3.5529,-3.6545,-3.7838,-3.9338,-3.9329,-3.9557,-3.9609,-3.7804,-3.6476,-3.5462,0.0,-3.511,-3.4999,-3.5493,-3.6485,-3.7552,-3.7786,-3.869,-3.9868,-4.0685,-4.1985,-4.3178,0.0,0.0,-4.4382,-4.4621,-4.551,-4.6434,-4.6985,-4.8166,-4.9013,-4.8683,-4.9792,-5.0682,-5.0413,-5.1027,-5.1662,-5.1951,-5.2653,-5.3037,-5.2775,-5.2717,-5.253,-5.1972,-5.1433,0.0,0.0,0.0,0.0,-5.2786,-5.2308,-5.1756,-5.1242,-5.1206,-5.0289,-4.8344,-4.839,-4.7347,-4.5249,-4.5524,-4.5331,-4.4587,-4.4587,-4.4255,-4.3591,-4.243,-4.1315,-4.0239,-3.9666,-3.9409,-3.9409,-3.9409,-3.9559,-3.9738,-3.9738,-3.9738,-3.9666,-3.9343,-3.7911,-3.6132,0.0,0.0,0.0,0.0,0.0,0.0,0.0,0.0,0.0,0.0,0.0,0.0,0.0,0.0,0.0,0.0,0.0,-1.8744,-1.9114,-1.9851,-2.0679,-2.1614,-2.2574,-2.3327,-2.3774,-2.4486,-2.4954,-2.5206,-2.5655,-2.7019,-2.9144,-2.9415,-3.0849,-3.3294,-3.3294,-3.3822,-3.4715,-3.5427,-3.6757,-3.8228,-3.787,-3.8121,-3.8422,-3.6537,-3.5339,0.0,-3.4654,-3.46,-3.4702,-3.5382,-3.6678,-3.7922,-3.7922,-3.9208,-4.072,-4.0874,-4.2199,0.0,0.0,-4.3908,-4.4927,-4.5377,-4.6348,-4.7205,-4.7462,-4.8282,-4.8871,-4.8306,-4.912,-4.974,-4.9221,-4.9797,-5.0333,-5.0333,-5.0888,-5.1472,-5.1784,-5.1579,-5.1414,-5.1471,-5.101,-5.0779,0.0,0.0,0.0,-5.1949,-5.1562,-5.1038,-5.0398,-5.0362,-4.9679,-4.8222,-4.7807,-4.697,-4.5494,-4.5384,-4.506,-4.4587,-4.4587,-4.4006,-4.2863,-4.2269,-4.133,-4.017,-3.9666,-3.9409,-3.9409,-3.9409,-3.9409,-3.9409,-3.9409,-3.9409,-3.9337,-3.8943,-3.7738,-3.6105,0.0,0.0,0.0,0.0,0.0,0.0,0.0,0.0,0.0,0.0,0.0,0.0,0.0,0.0,0.0,0.0,0.0,0.0,-1.9138,-1.9201,-2.0105,-2.2324,-2.2754,-2.3207,-2.3743,-2.4149,-2.4653,-2.5194,-2.5738,-2.6948,-2.8692,-2.9189,-3.0361,-3.2014,-3.1989,-3.2424,-3.3063,-3.4219,-3.4954,-3.5322,-3.5812,-3.58,-3.5469,-3.4785,-3.412,-3.3661,-3.438,-3.464,-3.4802,-3.5396,-3.6603,-3.7855,-3.799,-3.9686,0.0,0.0,0.0,-4.3688,-4.323,-4.4056,-4.5332,-4.6168,-4.6825,-4.7389,-4.8124,-4.824,-4.8221,-4.8108,-4.819,-4.824,0.0,0.0,-4.8605,-4.8643,-4.8803,-4.94,-5.0782,-5.0387,-5.0144,0.0,0.0,0.0,0.0,0.0,0.0,-5.1835,0.0,-5.0007,-4.963,-4.9627,-4.8985,-4.7536,-4.7568,-4.6935,-4.5494,-4.4906,-4.4587,-4.4587,-4.4587,-4.3739,-4.2078,-4.1981,-4.1095,-3.9481,-3.9409,-3.9409,-3.9409,-3.9409,-3.9409,-3.9409,-3.9409,-3.9409,-3.9265,-3.8219,-3.7175,-3.6207,0.0,0.0,0.0,0.0,0.0,0.0,0.0,0.0,0.0,0.0,0.0,0.0,0.0,0.0,0.0,0.0,0.0,0.0,-1.8742,-1.9275,-2.0048,-2.104,-2.2107,-2.2672,-2.2855,-2.3567,-2.4051,-2.4183,-2.4667,-2.5588,-2.6924,-2.7042,-2.783,-2.9151,-2.9702,-3.0543,-3.1603,-3.2846,-3.4212,-3.5593,-3.5627,-3.5887,-3.6137,-3.498,-3.4782,-3.5026,-3.4677,-3.5324,-3.6182,-3.5746,-3.6265,0.0,0.0,-3.989,-4.0329,0.0,0.0,-4.3872,-4.3906,-4.5209,-4.6759,-4.7563,-4.8126,-4.8336,-4.793,-4.8265,-4.8289,-4.7034,-4.7176,-4.7289,0.0,0.0,0.0,-4.7757,-4.8467,0.0,-5.0782,-5.1399,0.0,-5.251,0.0,-5.2241,-5.1356,-5.1373,0.0,0.0,-5.1016,-5.0601,-4.963,-5.0178,-4.9825,-4.8367,-4.7273,-4.6372,-4.5494,-4.4906,-4.4587,-4.4587,-4.4587,-4.4006,-4.2986,-4.2332,-4.1396,-4.0309,-3.9666,-3.9409,-3.9409,-3.9409,-3.9409,-3.9409,-3.9409,-3.9409,-3.9337,-3.909,-3.7792,-3.6164,0.0,0.0,0.0,0.0,0.0,0.0,0.0,0.0,0.0,0.0,0.0,0.0,0.0,0.0,0.0,0.0,0.0,0.0,0.0,-1.9452,-2.0136,-2.1643,-2.2151,-2.2531,-2.2741,-2.3257,-2.3607,-2.391,-2.435,-2.5062,-2.5973,-2.6287,-2.6915,-2.7908,-2.83,-2.9214,-3.0502,-3.1182,-3.233,0.0,0.0,-3.403,-3.474,-3.4302,-3.4586,-3.5218,-3.5457,-3.629,-3.7246,-3.7144,0.0,-3.8024,-3.958,-4.0431,-4.078,-4.0628,0.0,-4.4471,-4.4636,-4.5917,-4.7372,-4.8119,-4.82,-4.8009,-4.7735,-4.7588,-4.7289,-4.6525,-4.6508,-4.6502,-4.6087,-4.6176,0.0,0.0,0.0,0.0,-5.0327,-5.1223,-5.2099,0.0,-5.3567,0.0,-5.2549,-5.2818,-5.2541,0.0,-5.1142,-5.0629,-4.963,-5.0031,-4.9606,-4.815,-4.6987,-4.5965,-4.5089,-4.4776,-4.4587,-4.4587,-4.4587,-4.3914,-4.2707,-4.2205,-4.1362,-4.01,0.0,-3.9409,-3.9409,-3.9409,-3.9409,-3.9409,-3.9409,-3.9409,-3.9337,-3.887,-3.7659,-3.6186,0.0,0.0,0.0,0.0,0.0,0.0,0.0,0.0,0.0,0.0,0.0,0.0,0.0,0.0,0.0,0.0,0.0,0.0,0.0,0.0,-2.0474,-2.2955,-2.2673,-2.2648,-2.3065,-2.3065,-2.3376,-2.3879,-2.4356,-2.4833,-2.5285,-2.5921,-2.6524,-2.7157,-2.747,-2.8271,-2.9527,-2.9739,-3.0362,-3.1137,-3.1355,-3.1957,-3.2788,0.0,-3.4284,-3.5096,-3.6612,-3.7577,-3.8159,-3.8967,-3.9171,-3.914,-3.9952,-4.1032,-4.1926,-4.146,-4.3192,-4.528,-4.5432,-4.6462,-4.7674,-4.8153,-4.7757,-4.7276,-4.7429,-4.6665,-4.6038,-4.6349,-4.6167,-4.594,-4.6082,-4.6224,-4.6289,-4.6289,0.0,-4.8125,-4.9687,-5.0619,-5.1777,-5.3371,-5.422,-5.428,-5.328,-5.3972,-5.3766,-5.1941,-5.1239,-5.0563,-4.9816,-4.9738,-4.9021,-4.7335,-4.6542,-4.5648,-4.4643,-4.4587,-4.4587,-4.4587,-4.4587,-4.368,-4.1981,-4.1981,-4.1028,-3.9409,-3.9409,0.0,-3.9409,-3.9409,-3.9409,-3.9409,-3.9409,-3.9409,-3.9265,-3.8219,-3.712,-3.6074,0.0,0.0,0.0,0.0,0.0,0.0,0.0,0.0,0.0,0.0,0.0,0.0,0.0,0.0,0.0,0.0,0.0,0.0,0.0,0.0,0.0,-2.304,-2.299,-2.2965,-2.3065,-2.3065,-2.3115,-2.3276,-2.3315,-2.3416,-2.3552,-2.4322,-2.4767,-2.4972,-2.6717,-2.7911,-2.8684,-2.987,-3.0806,-3.1543,-3.2695,-3.3245,-3.3547,-3.4816,0.0,0.0,-3.8585,-3.911,-3.9001,-4.0178,-3.985,-3.9242,-4.0595,-4.1205,-4.146,-4.1967,-4.3623,-4.5432,-4.6105,-4.7234,-4.8153,-4.8267,-4.8147,-4.768,-4.6422,-4.6426,0.0,-4.6033,-4.5916,-4.5941,-4.6095,-4.6224,-4.6289,-4.6289,-4.7031,-4.8125,-4.9687,-5.114,-5.2661,0.0,-5.5066,-5.4895,-5.3356,0.0,0.0,0.0,0.0,-5.1424,-5.0622,-5.0582,-4.9362,-4.6671,-4.5494,-4.4797,-4.4587,-4.4587,-4.4587,-4.4587,-4.4587,-4.368,-4.1981,-4.1981,-4.1028,-3.9409,-3.9409,0.0,-3.9409,-3.9409,-3.9409,-3.9409,-3.9409,-3.9409,-3.9265,-3.8219,-3.7135,-3.6065,0.0,0.0,0.0,0.0,0.0,0.0,0.0,0.0,0.0,0.0,0.0,0.0,0.0,0.0,0.0,0.0,0.0,0.0,0.0,0.0,0.0,0.0,0.0,0.0,-2.3065,-2.3065,-2.3065,0.0,0.0,-2.3305,-2.3721,0.0,0.0,-2.5994,-2.7028,-2.8242,-2.9513,-3.0175,-3.1106,-3.2104,-3.2788,-3.3495,-3.417,0.0,0.0,0.0,0.0,-3.9501,-3.9664,-4.0314,-4.0114,-3.9681,-4.0392,-4.0899,-4.1339,-4.2083,-4.3727,-4.5574,-4.6779,-4.771,-4.8306,-4.8306,-4.7782,-4.699,-4.6026,0.0,0.0,-4.5876,-4.5519,-4.5335,-4.5499,-4.5199,0.0,-4.5547,-4.6367,-4.75,-4.9141,-5.0673,0.0,-5.332,-5.399,-5.4087,0.0,0.0,0.0,0.0,0.0,-5.1223,-5.0218,-4.9132,-4.7833,-4.6448,-4.5214,-4.4587,-4.4587,-4.4587,-4.4587,-4.4587,-4.4587,-4.368,-4.1981,-4.1981,-4.1028,-3.9409,-3.9409,0.0,-3.9409,-3.9409,-3.9409,-3.9409,-3.9409,-3.9409,-3.9307,-3.8223,-3.7164,-3.6071,0.0,0.0,0.0,0.0,0.0,0.0,0.0,0.0,0.0,0.0,0.0,0.0,0.0,0.0,0.0,0.0,0.0,0.0,0.0,0.0,0.0,0.0,0.0,0.0,0.0,0.0,0.0,0.0,0.0,0.0,0.0,0.0,0.0,0.0,0.0,0.0,-3.0522,-3.0672,-3.145,0.0,0.0,0.0,0.0,0.0,0.0,0.0,0.0,0.0,-4.0138,-4.0368,-4.0368,-4.0269,-4.0417,-4.0814,-4.1373,-4.2411,-4.3965,-4.5645,-4.724,-4.7998,-4.8269,-4.8086,-4.727,-4.6352,-4.5687,-4.5352,0.0,-4.5799,-4.5402,-4.5007,-4.5232,-4.457,-4.4256,0.0,-4.5696,-4.6601,-4.8359,-4.9814,-5.1049,0.0,-5.2721,0.0,-5.2933,0.0,0.0,0.0,0.0,0.0,-4.963,-4.7599,-4.6365,-4.6365,-4.5214,-4.4587,-4.4587,-4.4587,-4.4587,-4.4587,-4.4384,-4.3469,-4.1981,-4.1788,-4.0894,-3.9409,-3.9409,0.0,0.0,-3.9409,-3.9409,-3.9337,-3.9192,-3.9017,-3.8884,-3.7577,-3.657,-3.5723,0.0,0.0,0.0,0.0,0.0,0.0,0.0,0.0,0.0,0.0,0.0,0.0,0.0,0.0,0.0,0.0,0.0,0.0,0.0,0.0,0.0,0.0,0.0,0.0,0.0,0.0,0.0,0.0,0.0,0.0,0.0,0.0,0.0,0.0,0.0,0.0,0.0,-3.118,0.0,0.0,0.0,0.0,0.0,0.0,0.0,0.0,0.0,0.0,-4.0254,-4.1286,0.0,-4.092,-4.1464,-4.1427,-4.1578,-4.3512,0.0,0.0,-4.724,-4.7998,-4.8122,-4.7388,-4.7099,-4.6553,-4.5051,0.0,-4.5607,-4.5873,-4.5841,-4.5864,-4.613,-4.5469,-4.5129,-4.5877,-4.5514,-4.5703,-4.7305,-4.8839,-5.0157,-5.1048,0.0,0.0,-5.2125,0.0,0.0,0.0,0.0,0.0,-4.9554,-4.7599,-4.6365,-4.6365,-4.5214,-4.4587,-4.4587,-4.4587,-4.4587,-4.4587,-4.3798,-4.2925,-4.1981,-4.1198,-4.0309,-3.9409,-3.9409,0.0,0.0,-3.9409,-3.9409,-3.9265,-3.8323,-3.7919,-3.7738,-3.5734,-3.4955,-3.4712,0.0,0.0,0.0,0.0,0.0,0.0,0.0,0.0,0.0,0.0,0.0,0.0,0.0,0.0,0.0,0.0,0.0,0.0,0.0,0.0,0.0,0.0,0.0,0.0,0.0,0.0,0.0,0.0,0.0,0.0,0.0,0.0,0.0,0.0,0.0,0.0,0.0,0.0,0.0,0.0,0.0,0.0,0.0,0.0,0.0,0.0,0.0,0.0,0.0,0.0,0.0,0.0,-4.1878,-4.1619,-4.1209,0.0,-4.4263,-4.5502,-4.7115,-4.7892,-4.8122,-4.7315,-4.7057,-4.6609,-4.4976,0.0,-4.5663,-4.5873,-4.5519,-4.5085,-4.4802,-4.4023,-4.3677,-4.4469,-4.433,0.0,-4.6995,-4.7756,-4.8601,-4.9971,-5.0587,0.0,0.0,0.0,0.0,0.0,0.0,0.0,-4.8783,-4.7267,-4.62,-4.574,-4.4973,-4.435,-4.3876,-4.435,-4.4587,-4.4587,-4.368,-4.2635,-4.1373,-4.0876,-4.0025,-3.8811,-3.923,0.0,0.0,-3.9409,-3.9409,-3.9265,-3.8219,-3.7843,-3.7558,-3.5487,-3.4713,-3.4526,0.0,0.0,0.0,0.0,0.0,0.0,0.0,0.0,0.0,0.0,0.0,0.0,0.0,0.0,0.0,0.0,0.0,0.0,0.0,0.0,0.0,0.0,0.0,0.0,0.0,0.0,0.0,0.0,0.0,0.0,0.0,0.0,0.0,0.0,0.0,0.0,0.0,0.0,0.0,0.0,0.0,0.0,0.0,0.0,0.0,0.0,0.0,0.0,0.0,0.0,0.0,-4.0281,-4.2037,-4.1753,-4.1082,-4.2703,-4.3924,-4.5007,-4.6338,-4.7146,-4.7388,-4.6617,-4.6536,-4.6307,0.0,0.0,-4.5663,-4.5873,-4.5247,-4.4572,-4.4177,-4.3164,-4.2756,-4.3779,0.0,-4.436,-4.6523,-4.6901,-4.7471,0.0,0.0,0.0,0.0,0.0,0.0,0.0,0.0,0.0,0.0,-4.7088,-4.6059,-4.5326,-4.4595,-4.3978,-4.3436,-4.3944,-4.435,-4.4587,-4.3502,-4.2226,-4.0958,-4.0515,-3.9595,-3.8422,-3.911,0.0,0.0,-3.9349,-3.9073,-3.8502,-3.7652,-3.7127,-3.6682,-3.4875,-3.4204,-3.4094,0.0,0.0,0.0,0.0,0.0,0.0,0.0,0.0,0.0,0.0,0.0,0.0,0.0,0.0,0.0,0.0,0.0,0.0,0.0,0.0,0.0,0.0,0.0,0.0,0.0,0.0,0.0,0.0,0.0,0.0,0.0,0.0,0.0,0.0,0.0,0.0,0.0,0.0,0.0,0.0,0.0,0.0,0.0,0.0,0.0,0.0,0.0,0.0,0.0,0.0,0.0,0.0,0.0,-4.1739,-4.1455,-4.324,-4.3844,-4.4104,-4.4822,-4.5472,-4.5736,-4.4929,-4.527,-4.559,0.0,-4.5099,-4.5663,-4.5873,-4.5247,-4.4766,-4.4958,-4.3555,-4.293,-4.4531,-4.4103,0.0,-4.5719,-4.6547,-4.7009,0.0,0.0,0.0,0.0,0.0,0.0,0.0,0.0,0.0,0.0,-4.7088,-4.6059,-4.5326,-4.4079,-4.3436,-4.3403,-4.3436,-4.3809,-4.4587,-4.2831,-4.1629,-4.0958,-3.9895,-3.905,0.0,0.0,0.0,0.0,-3.914,-3.8384,-3.6773,-3.6353,-3.5574,-3.4594,-3.3556,-3.3154,-3.3154,0.0,0.0,0.0,0.0,0.0,0.0,0.0,0.0,0.0,0.0,0.0,0.0,0.0,0.0,0.0,0.0,0.0,0.0,0.0,0.0,0.0,0.0,0.0,0.0,0.0,0.0,0.0,0.0,0.0,0.0,0.0,0.0,0.0,0.0,0.0,0.0,0.0,0.0,0.0,0.0,0.0,0.0,0.0,0.0,0.0,0.0,0.0,0.0,0.0,0.0,0.0,0.0,0.0,0.0,0.0,-4.3286,-4.3615,-4.3798,-4.4564,-4.537,-4.5772,-4.5197,-4.541,-4.5644,-4.5062,-4.5283,-4.5663,-4.5873,-4.5247,-4.4572,-4.4177,-4.3164,-4.2731,-4.368,-4.3138,0.0,0.0,0.0,0.0,0.0,0.0,0.0,0.0,0.0,0.0,0.0,0.0,0.0,0.0,-4.6864,-4.6059,-4.5326,-4.4595,-4.3944,-4.3436,-4.3944,-4.435,-4.4587,-4.2831,-4.1437,-4.0283,-3.9229,-3.8362,0.0,0.0,0.0,0.0,-3.8811,-3.8237,-3.7376,-3.6521,-3.56,-3.46,-3.353,-3.3068,-3.3068,0.0,0.0,0.0,0.0,0.0,0.0,0.0,0.0,0.0,0.0,0.0,0.0,0.0,0.0,0.0,0.0,0.0,0.0,0.0,0.0,0.0,0.0,0.0,0.0,0.0,0.0,0.0,-2.5216,-2.6022,0.0,0.0,0.0,0.0,0.0,0.0,0.0,0.0,0.0,0.0,0.0,0.0,0.0,-3.9073,0.0,0.0,0.0,0.0,0.0,0.0,0.0,0.0,0.0,0.0,0.0,0.0,0.0,-4.3057,-4.3204,-4.4048,-4.4599,-4.4925,-4.4766,-4.5077,0.0,-4.5163,-4.5381,-4.5663,-4.5873,-4.5015,-4.4104,-4.3747,-4.2734,-4.2173,-4.2879,-4.2765,0.0,0.0,0.0,0.0,0.0,0.0,0.0,0.0,0.0,0.0,0.0,0.0,0.0,0.0,-4.6488,-4.5788,-4.5374,-4.454,-4.391,-4.3403,-4.391,-4.417,-4.4064,-4.2447,-4.0864,-3.947,-3.872,-3.8033,0.0,0.0,0.0,0.0,-3.8571,-3.7784,-3.6787,-3.6381,-3.5331,-3.4074,-3.336,-3.3068,-3.3068,0.0,0.0,0.0,0.0,0.0,0.0,0.0,0.0,0.0,0.0,0.0,0.0,0.0,0.0,0.0,0.0,0.0,0.0,0.0,0.0,0.0,0.0,0.0,0.0,0.0,-2.3956,-2.4686,-2.5448,-2.7398,-2.8799,-2.961,-3.0865,0.0,0.0,0.0,0.0,0.0,-3.4036,-3.5457,-3.6907,-3.7686,-3.843,0.0,0.0,0.0,0.0,0.0,0.0,0.0,0.0,0.0,0.0,0.0,0.0,0.0,0.0,0.0,0.0,0.0,-4.3497,0.0,0.0,0.0,0.0,-4.5033,-4.5381,0.0,-4.5873,-4.4576,-4.3481,-4.3669,-4.2343,-4.1449,-4.2176,-4.2871,0.0,0.0,0.0,0.0,0.0,0.0,0.0,0.0,0.0,0.0,0.0,0.0,0.0,0.0,-4.5998,-4.5246,-4.5338,-4.4,-4.3369,-4.3403,-4.3415,-4.3327,-4.3224,-4.1685,-4.0198,-3.8676,-3.8478,-3.8003,0.0,0.0,0.0,0.0,-3.8322,-3.7113,-3.5283,-3.5864,-3.4848,-3.3068,-3.3068,-3.3068,-3.3068,0.0,0.0,0.0,0.0,0.0,0.0,0.0,0.0,0.0,0.0,0.0,0.0,0.0,0.0,0.0,0.0,0.0,0.0,0.0,0.0,0.0,0.0,0.0,0.0,0.0,-2.4163,-2.5395,-2.7655,-2.8139,-2.9289,-3.0982,-3.1334,-3.1482,-3.1482,-3.1482,-3.2185,-3.3423,-3.433,-3.5827,-3.7719,-3.843,-3.9174,0.0,0.0,0.0,0.0,-4.0087,-4.0087,0.0,0.0,0.0,0.0,0.0,0.0,0.0,0.0,-4.3204,0.0,0.0,0.0,0.0,0.0,-4.4546,-4.4776,0.0,-4.555,-4.5663,-4.5873,0.0,0.0,0.0,-4.2318,-4.1409,-4.2053,0.0,0.0,0.0,0.0,0.0,0.0,0.0,0.0,0.0,0.0,0.0,0.0,0.0,0.0,0.0,-4.523,-4.4235,-4.3878,-4.3037,-4.2828,-4.3403,-4.338,-4.3039,-4.2466,-4.131,-4.0088,-3.8676,-3.8478,-3.7764,0.0,0.0,0.0,-3.7157,-3.7157,-3.622,-3.4847,-3.5009,-3.4245,-3.3068,-3.3068,-3.3068,-3.3068,0.0,0.0,0.0,0.0,0.0,0.0,0.0,0.0,0.0,0.0,0.0,0.0,0.0,0.0,0.0,0.0,0.0,0.0,0.0,0.0,0.0,0.0,0.0,0.0,0.0,-2.4949,-2.6297,-2.8396,-2.9053,-3.0098,-3.1482,-3.1482,-3.1482,-3.1539,-3.216,-3.2864,-3.3681,-3.4676,-3.6189,-3.7922,-3.8328,0.0,0.0,0.0,0.0,0.0,-4.0087,-4.0087,0.0,-4.0466,-4.1105,-4.1853,0.0,0.0,0.0,0.0,-4.3497,0.0,0.0,0.0,-4.3697,-4.4438,-4.4599,-4.4776,-4.5438,-4.5586,-4.5547,-4.5393,0.0,0.0,0.0,0.0,0.0,0.0,-4.3086,0.0,0.0,0.0,0.0,0.0,0.0,0.0,0.0,0.0,0.0,0.0,0.0,0.0,0.0,-4.4572,-4.3768,-4.2949,-4.2489,-4.2489,-4.2895,-4.2816,-4.2419,-4.1606,-4.07,-3.9468,-3.8116,-3.8271,-3.7674,0.0,0.0,0.0,-3.6733,-3.6474,-3.5746,-3.4706,-3.4714,-3.4058,-3.3093,-3.3366,-3.3477,-3.3503,0.0,0.0,0.0,0.0,0.0,0.0,0.0,0.0,0.0,0.0,0.0,0.0,0.0,0.0,0.0,0.0,0.0,0.0,0.0,0.0,0.0,0.0,0.0,0.0,-2.4452,-2.5764,-2.7116,-2.8565,-2.9974,-3.0971,-3.1482,-3.1571,-3.1687,-3.1739,-3.2917,-3.3547,-3.3853,-3.5091,-3.651,-3.7922,-3.8024,0.0,0.0,0.0,0.0,0.0,0.0,0.0,0.0,-4.0087,-4.0861,-4.181,-4.181,0.0,0.0,0.0,0.0,0.0,-4.3497,-4.3497,-4.3664,-4.4355,-4.4535,-4.4776,-4.54,-4.5568,-4.547,-4.4991,0.0,0.0,0.0,-4.3203,0.0,0.0,0.0,0.0,0.0,0.0,0.0,0.0,0.0,0.0,0.0,0.0,0.0,0.0,0.0,0.0,0.0,-4.3961,-4.3371,-4.217,-4.2219,-4.2132,-4.1755,-4.2014,-4.1699,-4.0735,-3.9869,-3.8696,-3.7285,-3.7943,-3.7614,-3.6537,0.0,0.0,-3.651,-3.6111,-3.5328,-3.4459,-3.4419,-3.3923,-3.323,-3.3776,-3.3979,-3.4034,0.0,0.0,0.0,0.0,0.0,0.0,0.0,0.0,0.0,0.0,0.0,0.0,0.0,0.0,0.0,0.0,0.0,0.0,0.0,0.0,0.0,0.0,0.0,-2.3754,-2.5189,-2.5992,-2.7399,-2.9401,-3.0705,-3.1362,-3.1482,-3.2108,-3.2397,-3.2437,-3.2656,-3.3391,-3.4529,-3.5349,-3.6534,-3.7956,-3.8565,0.0,0.0,0.0,0.0,0.0,0.0,0.0,0.0,-4.0087,-4.0861,-4.181,-4.181,0.0,0.0,0.0,0.0,0.0,-4.3497,-4.3497,-4.3597,-4.3967,-4.4346,-4.4701,-4.5115,-4.54,-4.5624,-4.5719,0.0,0.0,0.0,-4.4101,-4.3503,0.0,0.0,0.0,0.0,0.0,0.0,0.0,0.0,0.0,0.0,0.0,0.0,0.0,0.0,0.0,0.0,-4.301,-4.2112,-4.1373,-4.1982,-4.1379,-3.9433,-4.1123,-4.1371,-4.0062,-3.9087,-3.7901,-3.6656,-3.7285,-3.7165,-3.6567,0.0,-3.7215,-3.5537,-3.6003,-3.5036,-3.33,-3.331,-3.3547,-3.3801,-3.3827,-3.4223,-3.4421,0.0,0.0,0.0,0.0,0.0,0.0,0.0,0.0,0.0,0.0,0.0,0.0,0.0,0.0,0.0,0.0,0.0,0.0,0.0,0.0,0.0,0.0,-2.3825,-2.4786,-2.5938,-2.6576,-2.794,-3.0073,-3.1061,-3.1482,-3.1539,-3.2213,-3.2578,-3.2656,-3.3339,-3.4248,-3.5234,-3.5971,-3.7177,-3.8531,0.0,0.0,0.0,0.0,0.0,0.0,0.0,0.0,0.0,0.0,-4.0861,-4.181,-4.181,0.0,0.0,0.0,0.0,0.0,-4.3497,-4.3497,-4.3563,-4.3912,-4.429,-4.4751,-4.5243,-4.5475,-4.5509,-4.5201,0.0,0.0,0.0,0.0,-4.4549,0.0,0.0,0.0,0.0,0.0,0.0,0.0,0.0,0.0,0.0,0.0,0.0,0.0,0.0,0.0,0.0,0.0,-4.167,-4.0646,-4.0956,-4.0612,-3.9589,-3.9998,-3.9724,-3.8654,-3.847,-3.7883,-3.7015,-3.7644,-3.7307,-3.623,0.0,-3.6315,-3.4445,-3.4687,-3.414,-3.3068,-3.3068,-3.3477,-3.3954,-3.4539,-3.4693,-3.4314,0.0,0.0,0.0,0.0,0.0,0.0,0.0,0.0,0.0,0.0,0.0,0.0,0.0,0.0,0.0,0.0,0.0,0.0,0.0,0.0,0.0,0.0,-2.457,-2.5571,-2.6353,-2.7279,-2.8656,-3.0492,-3.1509,-3.1988,-3.1988,-3.2425,-3.268,-3.2895,-3.4071,-3.5084,-3.6007,-3.6552,-3.7618,-3.9005,0.0,0.0,0.0,0.0,0.0,0.0,0.0,0.0,0.0,0.0,0.0,0.0,0.0,0.0,0.0,-4.3169,-4.3204,-4.3204,-4.3204,-4.3351,-4.3597,-4.3998,-4.429,-4.4638,-4.5323,-4.5475,-4.536,-4.4914,-4.4896,0.0,0.0,-4.5279,0.0,0.0,0.0,0.0,0.0,0.0,0.0,0.0,0.0,0.0,0.0,0.0,0.0,0.0,0.0,0.0,0.0,0.0,-4.14,-4.0138,-4.0267,-4.0127,-3.9542,-3.9123,-3.8459,-3.7653,-3.7842,-3.7584,-3.6985,-3.7644,-3.7157,-3.5769,-3.6518,-3.5635,-3.3725,-3.3883,-3.3649,-3.3068,-3.3068,-3.3345,-3.3745,-3.4799,-3.4719,-3.3743,0.0,0.0,0.0,0.0,0.0,0.0,0.0,0.0,0.0,0.0,0.0,0.0,0.0,0.0,0.0,0.0,0.0,0.0,0.0,0.0,0.0,0.0,0.0,-2.5571,-2.6353,-2.8253,-2.9667,-3.0492,-3.2407,-3.3365,-3.3335,-3.2854,-3.2949,-3.3547,-3.4268,-3.5404,-3.6726,-3.6772,-3.7618,-3.9005,-3.9005,0.0,0.0,0.0,0.0,0.0,0.0,0.0,0.0,0.0,0.0,0.0,0.0,0.0,-4.1687,-4.2223,-4.2396,-4.2396,-4.2396,-4.291,-4.3664,-4.4411,-4.429,-4.4233,-4.4966,-4.5137,-4.5222,-4.5627,-4.5774,0.0,0.0,-4.6674,0.0,0.0,0.0,0.0,0.0,0.0,0.0,0.0,0.0,0.0,0.0,0.0,0.0,0.0,0.0,0.0,0.0,-4.1184,-4.0917,-4.0087,-4.0767,-4.0107,-3.7976,-3.9062,-3.902,-3.7685,-3.7001,-3.6267,-3.5669,-3.6327,-3.6064,-3.5107,-3.6317,-3.5683,-3.3806,-3.4386,-3.3985,-3.3068,-3.3068,-3.295,-3.2889,-3.4074,-3.3647,-3.2271,0.0,0.0,0.0,0.0,0.0,0.0,0.0,0.0,0.0,0.0,0.0,0.0,0.0,0.0,0.0,0.0,0.0,0.0,0.0,0.0,0.0,0.0,0.0,-2.7342,-2.7655,-2.8771,-3.0163,-3.1749,-3.2527,-3.2677,-3.2258,-3.2928,-3.3339,-3.3649,-3.4736,-3.5799,-3.6806,-3.728,-3.8058,-3.9039,-3.9478,-3.9817,0.0,0.0,0.0,0.0,0.0,0.0,0.0,0.0,-4.0967,-4.1595,-4.218,-4.2154,-4.1973,-4.2219,-4.1956,-4.1662,-4.2176,-4.2506,-4.3004,-4.3975,-4.4117,-4.4261,-4.5222,-4.5419,-4.5438,-4.5645,-4.5796,0.0,0.0,0.0,0.0,0.0,0.0,0.0,0.0,0.0,0.0,0.0,0.0,0.0,0.0,0.0,0.0,0.0,0.0,0.0,0.0,-4.0641,-4.0153,-3.9368,-3.9191,-3.845,-3.7084,-3.7456,-3.7248,-3.6338,-3.7278,-3.7315,-3.6686,-3.6956,-3.6394,-3.5218,-3.5667,-3.4923,-3.3392,-3.3623,-3.3632,-3.3665,-3.4375,-3.3816,-3.2841,-3.3993,-3.2971,-3.0987,0.0,0.0,0.0,0.0,0.0,0.0,0.0,0.0,0.0,0.0,0.0,0.0,0.0,0.0,0.0,0.0,0.0,0.0,0.0,0.0,-2.4394,-2.4624,-2.706,-2.8508,-2.8761,-2.9636,-3.0778,-3.2198,-3.2198,-3.2195,-3.2155,-3.3123,-3.3814,-3.4277,-3.5428,-3.6552,-3.7516,-3.8024,-3.8667,-3.9377,-3.9884,-4.0087,0.0,0.0,0.0,0.0,0.0,0.0,0.0,0.0,-4.1161,-4.1611,-4.2135,-4.1978,-4.1606,-4.1556,-4.1148,-4.0891,-4.1699,-4.2103,-4.2603,-4.3871,-4.4175,-4.4455,-4.5362,-4.5532,-4.5457,-4.5586,-4.5742,-4.6035,-4.6424,0.0,0.0,0.0,0.0,0.0,0.0,0.0,0.0,0.0,0.0,0.0,0.0,0.0,0.0,0.0,0.0,0.0,0.0,-4.0269,-3.9714,-3.8908,-3.8189,-3.7381,-3.66,-3.6546,-3.6267,-3.5818,-3.7345,-3.7734,-3.7135,-3.6802,-3.6043,-3.4975,-3.4858,-3.4098,-3.2817,-3.2993,-3.3431,-3.3983,-3.4581,-3.3816,-3.239,-3.2871,-3.1657,-2.9708,0.0,0.0,0.0,0.0,0.0,0.0,0.0,0.0,0.0,0.0,0.0,0.0,0.0,0.0,0.0,0.0,0.0,0.0,0.0,-2.3839,-2.4624,-2.5356,-2.7342,-2.8761,-2.9594,-3.0881,-3.1482,-3.1482,-3.1482,-3.2155,-3.3475,-3.3506,-3.4302,-3.5712,-3.6437,-3.7552,-3.8971,-3.9005,-3.9411,-4.0054,-4.0087,-4.0087,-4.0087,0.0,0.0,0.0,0.0,0.0,0.0,0.0,-4.092,-4.0976,-4.13,-4.0852,-4.0203,-3.9955,-3.99,-4.0084,-4.0891,-4.1699,-4.2664,-4.4213,-4.4599,-4.48,-4.5438,-4.5361,-4.5201,-4.555,-4.579,-4.6222,-4.7245,0.0,0.0,0.0,0.0,0.0,0.0,0.0,0.0,0.0,0.0,0.0,0.0,0.0,0.0,0.0,0.0,0.0,0.0,-4.0087,-3.9714,-3.8908,-3.8189,-3.7381,-3.66,-3.6546,-3.6477,-3.6477,-3.7105,-3.7075,-3.6477,-3.5477,-3.4782,-3.4369,-3.3965,-3.3213,-3.2265,-3.2842,-3.3421,-3.3876,-3.3658,-3.2658,-3.1399,-3.062,-2.9454,-2.8301,0.0,0.0,0.0,0.0,0.0,0.0,0.0,0.0,0.0,0.0,0.0,0.0,0.0,0.0,0.0,0.0,0.0,0.0,0.0,-2.3839,-2.4624,-2.5356,-2.7342,-2.8761,-2.9594,-3.0881,-3.1482,-3.1482,-3.1988,-3.2697,-3.3675,-3.4116,-3.509,-3.6488,-3.7235,-3.7797,-3.8261,-3.8768,-3.9106,-3.9343,-3.9884,-4.0087,-4.0087,0.0,0.0,0.0,0.0,0.0,0.0,0.0,0.0,0.0,-4.2741,-4.1935,-4.0802,-4.0753,-4.0341,-4.0084,-4.0891,-4.1852,0.0,-4.393,0.0,0.0,0.0,-4.5361,-4.5706,-4.6565,-4.7317,-4.7946,-4.8251,0.0,0.0,0.0,0.0,0.0,0.0,0.0,0.0,0.0,0.0,0.0,0.0,0.0,0.0,0.0,0.0,0.0,0.0,-3.9558,-3.8908,-3.8133,-3.7381,-3.6569,-3.5846,-3.628,-3.6237,-3.5818,-3.5751,-3.5987,-3.6477,-3.5477,-3.4739,-3.4293,-3.3459,-3.3027,-3.2893,-3.3846,-3.4059,-3.3884,-3.4089,-3.3048,-3.1413,-3.0641,-2.9454,-2.8301,0.0,0.0,0.0,0.0,0.0,0.0,0.0,0.0,0.0,0.0,0.0,0.0,0.0,0.0,0.0,0.0,0.0,0.0,0.0,0.0,-2.4731,-2.5743,-2.7456,-2.8995,-3.0342,-3.112,-3.1482,-3.1482,-3.1928,-3.2637,-3.3619,-3.4345,-3.5583,-3.7246,-3.7969,-3.8488,-3.8802,-3.9242,-3.9411,-3.9478,-3.9884,-4.0087,-4.0087,0.0,0.0,0.0,0.0,0.0,0.0,0.0,0.0,0.0,-4.2479,-4.1662,-4.0561,-4.023,-4.0136,-4.0288,-4.1071,-4.2114,0.0,-4.4202,-4.4762,-4.5137,-4.5263,0.0,0.0,0.0,-4.7449,-4.7756,-4.8044,0.0,0.0,0.0,0.0,0.0,0.0,0.0,0.0,0.0,0.0,0.0,0.0,0.0,0.0,0.0,0.0,0.0,0.0,-3.9156,-3.8414,-3.7322,-3.6843,-3.6228,-3.5519,-3.5908,-3.5908,-3.5519,-3.4855,-3.4893,-3.5495,-3.4101,-3.3615,-3.3711,-3.2935,-3.2772,-3.3144,-3.4287,-3.4209,-3.3465,-3.357,-3.2551,-3.0912,-2.9876,-2.8993,-2.8301,0.0,0.0,0.0,0.0,0.0,0.0,0.0,0.0,0.0,0.0,-1.8008,0.0,0.0,0.0,0.0,0.0,0.0,0.0,0.0,0.0,-2.5083,-2.6408,-2.7797,-2.949,-3.1452,-3.1482,-3.1482,-3.1482,-3.1482,-3.2186,-3.3599,-3.4421,-3.5904,-3.7933,-3.8611,-3.9368,-4.0087,-4.0003,-4.0003,-4.0087,-4.0087,-4.0087,-4.0087,-4.0087,0.0,0.0,0.0,0.0,0.0,0.0,0.0,0.0,-4.1199,-4.0561,-3.9753,-3.9019,-3.9616,-4.0673,-4.1381,-4.2506,0.0,-4.4821,-4.5137,0.0,-4.555,-4.5719,-4.6082,-4.7009,0.0,-4.653,0.0,0.0,0.0,0.0,0.0,0.0,0.0,0.0,0.0,0.0,0.0,0.0,0.0,0.0,0.0,0.0,0.0,0.0,0.0,-3.8854,-3.8101,-3.6661,-3.6538,-3.6165,-3.5519,-3.5519,-3.5424,-3.5359,-3.4312,-3.3808,-3.3671,-3.1947,-3.1827,-3.283,-3.2377,-3.2541,-3.3144,-3.406,-3.3792,-3.2629,-3.2254,-3.1318,-3.0171,-2.8739,-2.8301,-2.8301,0.0,0.0,0.0,0.0,0.0,0.0,0.0,0.0,0.0,0.0,0.0,0.0,0.0,0.0,0.0,0.0,0.0,0.0,0.0,0.0,-2.6103,-2.7014,-2.9,-3.0503,-3.1452,-3.1482,-3.1482,-3.1482,-3.1482,-3.2516,-3.4457,-3.5205,-3.668,-3.8677,-3.8842,-3.9368,-4.0087,-3.942,-3.9558,-4.0087,-4.0087,-4.0087,-4.0087,-4.0087,-4.0087,0.0,0.0,0.0,0.0,0.0,0.0,0.0,-4.1335,-4.0561,-3.9863,-3.968,-4.0429,-4.1381,-4.153,-4.3139,0.0,0.0,-4.5283,-4.5532,-4.5586,-4.5757,-4.6121,-4.7009,-4.7768,0.0,0.0,0.0,0.0,0.0,0.0,0.0,0.0,0.0,0.0,0.0,0.0,0.0,0.0,0.0,0.0,0.0,0.0,0.0,-3.8962,-3.8358,-3.7616,-3.66,-3.607,-3.5683,-3.5519,-3.5519,-3.5133,0.0,-3.3394,-3.2522,-3.1829,-3.1389,-3.1369,-3.1737,-3.2047,-3.2541,-3.3119,-3.2812,-3.2672,-3.2563,-3.086,-3.024,-3.0171,-2.8739,-2.8301,-2.8301,0.0,0.0,0.0,0.0,0.0,0.0,0.0,0.0,0.0,0.0,0.0,0.0,0.0,0.0,0.0,0.0,0.0,0.0,0.0,0.0,0.0,0.0,-2.9433,-3.0718,-3.1452,-3.1482,-3.1482,-3.1482,-3.1482,-3.2432,-3.4118,-3.4873,-3.639,-3.8414,-3.8745,-3.9368,-4.0087,-3.9662,-3.9714,-4.0087,-4.0087,-4.0087,-4.0087,-4.0087,-4.0087,-4.0087,-4.0087,0.0,0.0,0.0,0.0,0.0,0.0,0.0,-3.9344,-3.9483,-4.0205,-4.1166,0.0,0.0,0.0,-4.5207,0.0,-4.5624,-4.568,-4.5796,-4.6056,-4.6577,0.0,0.0,0.0,0.0,0.0,0.0,0.0,0.0,0.0,0.0,0.0,0.0,0.0,0.0,0.0,0.0,0.0,0.0,0.0,-3.961,-3.8414,-3.8051,-3.7294,-3.6102,-3.5718,-3.5519,-3.5519,-3.5001,-3.4543,-3.3945,-3.2593,-3.1462,-3.057,-3.057,-3.0727,-3.106,-3.1587,-3.2139,-3.2632,-3.2269,-3.1931,-3.1595,-3.0223,-2.9513,-2.9287,-2.8573,-2.8301,-2.8301,0.0,0.0,0.0,0.0,0.0,0.0,0.0,0.0,0.0,0.0,0.0,0.0,0.0,0.0,0.0,0.0,0.0,0.0,0.0,0.0,0.0,0.0,-2.98,-3.0837,-3.1482,-3.1482,-3.1482,-3.1482,-3.1659,-3.2317,-3.3484,-3.4296,-3.5739,-3.7648,-3.8358,-3.9156,-3.9901,-3.9901,-3.9952,-4.0087,-4.0087,-4.0087,-4.0087,-4.0087,-4.0087,-4.0104,-4.0068,-4.0701,-4.1456,-4.0613,0.0,0.0,0.0,0.0,-3.8833,-3.9036,-3.9784,0.0,0.0,0.0,-4.425,-4.532,-4.5624,0.0,-4.5757,-4.5873,-4.5988,0.0,0.0,0.0,0.0,0.0,0.0,0.0,0.0,0.0,0.0,0.0,0.0,0.0,0.0,0.0,0.0,0.0,0.0,0.0,0.0,-3.9262,-3.7879,-3.7706,-3.6935,-3.5554,-3.5519,-3.5424,-3.5198,-3.4409,-3.3808,-3.3533,-3.1756,-3.0545,-2.9804,-2.9804,-3.0105,-3.0633,-3.116,-3.1555,-3.1863,-3.1743,-3.1097,-3.0171,-2.9537,-2.8869,-2.8155,-2.8281,-2.8301,-2.8301,0.0,0.0,0.0,0.0,0.0,0.0,0.0,0.0,0.0,0.0,0.0,0.0,0.0,0.0,0.0,0.0,0.0,0.0,0.0,0.0,0.0,0.0,-3.0866,-3.1394,-3.1482,-3.1482,-3.1482,-3.1482,-3.2108,-3.2766,-3.3484,-3.4296,-3.5478,-3.6783,-3.7557,-3.8358,-3.9069,-3.9069,-3.9473,-4.0087,-4.0087,-4.0087,-4.0087,-4.0087,-4.0087,-4.0086,-3.9856,-4.0219,-4.0571,-3.9584,-3.9618,0.0,0.0,0.0,0.0,-3.908,0.0,0.0,0.0,0.0,-4.4474,0.0,-4.568,-4.5796,0.0,0.0,-4.6065,0.0,0.0,0.0,0.0,0.0,0.0,0.0,0.0,0.0,0.0,0.0,0.0,0.0,0.0,0.0,0.0,0.0,0.0,0.0,-3.942,-3.869,-3.7879,-3.7144,-3.6384,-3.5489,-3.5519,-3.5067,-3.4177,-3.4109,-3.3157,-3.1536,-3.0495,-2.9934,-2.9804,-2.9804,-3.0105,-3.0633,-3.116,-3.1083,-3.0601,-3.0033,-2.9301,-2.8449,-2.7652,-2.7542,-2.7844,-2.8155,-2.8301,-2.8301,0.0,0.0,0.0,0.0,0.0,0.0,0.0,0.0,0.0,0.0,0.0,0.0,0.0,0.0,0.0,0.0,0.0,0.0,0.0,0.0,0.0,0.0,0.0,-3.051,-3.1482,-3.1482,-3.1482,-3.1482,-3.2198,-3.2856,-3.3514,-3.4273,-3.5309,-3.6661,-3.744,-3.8189,-3.8908,-3.9368,-3.9799,-4.0087,-4.0087,-4.0087,-4.002,-3.9614,-3.9715,-4.0052,-3.9859,-4.0088,-4.0465,-3.9874,-3.9761,-3.9785,-3.9143,0.0,0.0,0.0,0.0,0.0,-4.1129,-4.245,-4.3739,0.0,-4.4662,-4.5103,-4.5201,0.0,0.0,0.0,0.0,0.0,0.0,0.0,0.0,0.0,0.0,0.0,0.0,0.0,0.0,0.0,0.0,0.0,0.0,0.0,0.0,0.0,-3.9102,-3.8381,-3.7203,-3.6783,-3.629,-3.5489,-3.5519,-3.5001,-3.4013,-3.3463,-3.2263,-3.0419,-3.0011,-2.9804,-2.9804,-2.9804,-2.9592,-2.9212,-2.9763,-2.9576,-2.8975,-2.8264,-2.8049,-2.8091,-2.7034,-2.7058,-2.7718,-2.7863,-2.8135,-2.8301,0.0,0.0,0.0,0.0,0.0,0.0,0.0,0.0,0.0,0.0,0.0,0.0,0.0,0.0,0.0,0.0,0.0,0.0,0.0,0.0,0.0,0.0,0.0,0.0,-3.1482,-3.1482,-3.1482,-3.1482,-3.2198,-3.2856,-3.3514,-3.4173,-3.518,-3.6384,-3.7354,-3.8076,-3.869,-3.9662,-4.0087,-4.0087,-4.0087,-4.0087,-4.002,-3.9478,-3.9614,-4.0052,-3.9652,-3.9852,-4.0217,-3.9766,-3.9615,0.0,0.0,0.0,0.0,0.0,0.0,0.0,0.0,0.0,-4.2893,-4.3145,-4.3739,-4.4355,0.0,0.0,0.0,0.0,0.0,0.0,0.0,0.0,0.0,0.0,0.0,0.0,0.0,0.0,0.0,0.0,0.0,0.0,0.0,0.0,0.0,0.0,-3.8745,-3.8044,-3.6661,-3.6446,-3.607,-3.5489,-3.5519,-3.4905,-3.3671,-3.2478,-3.1193,-2.9804,-2.9804,-2.9804,-2.9804,-2.9804,-2.9003,-2.7773,-2.8722,-2.848,-2.7417,-2.717,-2.7305,-2.7499,-2.6696,-2.6902,-2.7552,-2.769,-2.799,-2.8301,0.0,0.0,0.0,0.0,0.0,0.0,0.0,0.0,0.0,0.0,0.0,0.0,0.0,0.0,0.0,0.0,0.0,0.0,0.0,0.0,0.0,0.0,0.0,0.0,0.0,-3.1482,-3.1482,-3.1482,-3.2198,-3.2856,-3.3514,-3.4173,-3.4895,-3.5619,-3.7115,-3.7822,-3.7994,-3.9454,0.0,0.0,-4.0087,-4.0087,-4.0087,-4.0054,-4.0054,-3.9985,-3.8986,0.0,0.0,-3.8367,0.0,0.0,0.0,0.0,0.0,0.0,0.0,0.0,0.0,-4.1915,0.0,-4.2992,-4.3436,0.0,0.0,0.0,0.0,0.0,0.0,0.0,0.0,0.0,0.0,0.0,0.0,0.0,0.0,0.0,0.0,0.0,0.0,0.0,0.0,0.0,0.0,0.0,-3.8246,-3.7499,-3.6661,-3.5943,-3.5554,-3.5519,-3.5519,-3.4572,-3.2664,-3.0846,-2.9856,-2.9804,-2.9804,-2.9804,-2.9804,-2.9804,-2.8645,-2.6679,-2.8727,-2.824,-2.6257,-2.7214,-2.69,-2.5858,-2.6229,-2.6701,-2.712,-2.7552,-2.799,-2.8301,0.0,0.0,0.0,0.0,0.0,0.0,0.0,0.0,0.0,0.0,0.0,0.0,0.0,0.0,0.0,0.0,0.0,0.0,0.0,0.0,0.0,0.0,0.0,0.0,0.0,-3.1219,-3.1482,-3.1482,-3.2198,-3.2856,-3.3514,-3.4173,-3.4831,-3.5554,-3.7115,-3.7822,-3.7937,-3.9454,0.0,0.0,0.0,0.0,-4.002,-3.9546,0.0,0.0,0.0,0.0,0.0,0.0,0.0,0.0,0.0,0.0,0.0,0.0,0.0,0.0,0.0,0.0,0.0,-4.0877,-4.1854,-4.2855,0.0,0.0,0.0,0.0,0.0,0.0,0.0,0.0,0.0,0.0,0.0,0.0,0.0,0.0,0.0,0.0,0.0,0.0,0.0,0.0,0.0,0.0,0.0,-3.7235,-3.5943,-3.5619,-3.5198,-3.4543,-3.4543,-3.3602,-3.1756,-3.0419,-2.9804,-2.9804,-2.9804,-2.9397,-2.8737,-2.8737,-2.752,-2.5521,-2.6767,-2.6484,-2.5058,-2.5756,-2.5932,-2.5742,-2.5879,-2.6406,-2.7019,-2.7226,-2.7718,-2.8301,0.0,0.0,0.0,0.0,0.0,0.0,0.0,0.0,0.0,0.0,0.0,0.0,0.0,0.0,0.0,0.0,0.0,0.0,0.0,0.0,0.0,0.0,0.0,0.0,0.0,0.0,0.0,0.0,-3.1988,-3.2647,-3.3514,-3.3933,-3.4622,-3.5554,-3.7115,-3.7822,0.0,0.0,0.0,-4.0087,0.0,0.0,-4.002,0.0,0.0,0.0,0.0,0.0,0.0,0.0,0.0,0.0,0.0,0.0,0.0,0.0,0.0,0.0,-3.9016,0.0,0.0,0.0,0.0,-4.1303,0.0,0.0,0.0,0.0,0.0,0.0,0.0,0.0,0.0,0.0,0.0,0.0,0.0,0.0,0.0,0.0,0.0,0.0,0.0,0.0,0.0,0.0,0.0,0.0,-3.5554,-3.5519,-3.5067,-3.4013,-3.3394,-3.2451,-3.1167,-3.0292,-2.9804,-2.9804,-2.9397,-2.8864,-2.8106,-2.7729,-2.6527,-2.4837,-2.576,-2.5424,-2.4459,-2.5039,-2.5489,-2.5742,-2.5742,-2.6269,-2.7019,-2.6979,-2.7573,-2.8301,0.0,0.0,0.0,0.0,0.0,0.0,0.0,0.0,0.0,0.0,0.0,0.0,0.0,0.0,0.0,0.0,0.0,0.0,0.0,0.0,0.0,0.0,0.0,0.0,0.0,0.0,0.0,0.0,0.0,0.0,0.0,0.0,-3.4295,-3.5589,-3.7115,-3.779,-3.7905,0.0,-4.0087,-4.0087,0.0,-4.0087,-4.0087,0.0,0.0,0.0,-3.9325,-3.9324,0.0,-3.9629,0.0,0.0,0.0,0.0,0.0,0.0,0.0,0.0,0.0,0.0,0.0,0.0,0.0,0.0,0.0,0.0,0.0,0.0,0.0,0.0,0.0,0.0,0.0,0.0,0.0,0.0,0.0,0.0,0.0,0.0,0.0,0.0,0.0,0.0,0.0,0.0,-3.7764,-3.7115,-3.5554,-3.5424,-3.5001,-3.4013,-3.2164,-3.1167,-3.1167,-3.0292,-2.9804,-2.9779,-2.8635,-2.8106,-2.8028,-2.6901,-2.583,-2.4826,-2.5678,-2.5455,-2.4452,-2.5307,-2.5742,-2.5742,-2.5742,-2.6269,-2.7019,-2.6979,-2.7573,-2.8301,0.0,0.0,0.0,0.0,0.0,0.0,0.0,0.0,0.0,0.0,0.0,0.0,0.0,0.0,0.0,0.0,0.0,0.0,0.0,0.0,0.0,0.0,0.0,0.0,0.0,0.0,0.0,0.0,0.0,0.0,0.0,0.0,0.0,0.0,-3.768,-3.8286,-3.7916,-3.9461,0.0,-4.0087,-4.0087,-4.0087,0.0,0.0,0.0,0.0,0.0,-4.0746,-4.118,0.0,-4.1107,-4.1299,0.0,0.0,0.0,0.0,0.0,0.0,-3.7755,0.0,0.0,0.0,0.0,0.0,0.0,0.0,0.0,0.0,0.0,0.0,0.0,0.0,0.0,0.0,0.0,0.0,0.0,0.0,0.0,0.0,0.0,0.0,0.0,0.0,0.0,0.0,-3.7263,-3.6508,-3.5554,-3.4206,-3.3255,-3.3017,-3.1193,-3.0216,-3.0216,-2.9934,-2.9804,-2.9779,-2.8635,-2.768,-2.6874,-2.5802,-2.4872,-2.407,-2.4605,-2.4847,-2.4944,-2.5431,-2.5742,-2.5742,-2.6035,-2.6523,-2.7019,-2.7389,-2.7863,-2.8301,0.0,0.0,0.0,0.0,0.0,0.0,0.0,0.0,0.0,0.0,0.0,0.0,0.0,0.0,0.0,0.0,0.0,0.0,0.0,0.0,0.0,0.0,0.0,0.0,0.0,0.0,0.0,0.0,0.0,0.0,0.0,0.0,0.0,0.0,0.0,0.0,0.0,0.0,0.0,0.0,-4.0087,0.0,0.0,-4.0087,-4.0087,0.0,0.0,0.0,-4.1446,-4.1809,-4.2043,0.0,0.0,0.0,0.0,0.0,0.0,-3.925,-3.7599,-3.7576,0.0,0.0,0.0,0.0,-3.818,-3.8344,0.0,0.0,0.0,0.0,0.0,0.0,0.0,0.0,0.0,0.0,0.0,0.0,0.0,0.0,0.0,0.0,0.0,-3.9368,-3.858,-3.7879,-3.7024,-3.6134,-3.4971,-3.3463,-3.2379,-3.2019,-3.057,-2.9804,-2.9804,-2.9804,-2.9549,-2.9118,-2.798,-2.6854,-2.5788,-2.4643,-2.3887,-2.3545,-2.4165,-2.4559,-2.4849,-2.5489,-2.5742,-2.5742,-2.6249,-2.6705,-2.7055,-2.7516,-2.799,-2.8301,0.0,0.0,0.0,0.0,0.0,0.0,0.0,0.0,0.0,0.0,0.0,0.0,0.0,0.0,0.0,0.0,0.0,0.0,0.0,0.0,0.0,0.0,0.0,0.0,0.0,0.0,0.0,0.0,0.0,0.0,0.0,0.0,0.0,0.0,0.0,0.0,0.0,0.0,0.0,-4.0087,-4.0087,-4.0087,0.0,0.0,-4.0138,-4.0254,-4.078,-4.1024,-4.1251,-4.2422,-4.2447,0.0,0.0,0.0,0.0,0.0,-3.9569,-3.938,-3.7804,-3.7459,-3.7503,0.0,0.0,0.0,-3.7599,-3.7392,-3.7262,0.0,0.0,0.0,0.0,0.0,0.0,0.0,0.0,0.0,0.0,0.0,0.0,0.0,0.0,0.0,-3.9952,-3.9262,-3.8469,-3.7732,-3.6904,-3.5788,-3.4081,-3.3087,-3.2164,-3.1241,-3.0292,-2.9804,-2.9804,-2.9651,-2.9118,-2.8106,-2.6877,-2.5784,-2.4792,-2.3591,-2.3144,-2.3242,-2.4049,-2.4428,-2.4598,-2.5373,-2.5742,-2.5859,-2.6269,-2.6676,-2.7157,-2.7592,-2.8009,-2.8301,0.0,0.0,0.0,0.0,0.0,0.0,0.0,0.0,0.0,0.0,0.0,0.0,0.0,0.0,0.0,0.0,-2.6533,-2.6533,0.0,0.0,0.0,0.0,0.0,0.0,0.0,0.0,0.0,0.0,0.0,0.0,0.0,0.0,0.0,0.0,0.0,0.0,0.0,0.0,0.0,-4.0087,-4.0087,0.0,-4.0087,-4.0087,-4.0368,-4.0827,-4.1385,-4.1937,-4.2462,-4.3142,-4.2736,-4.1946,0.0,0.0,0.0,-3.9738,0.0,0.0,0.0,0.0,0.0,0.0,0.0,0.0,-3.6199,-3.643,-3.6853,0.0,0.0,0.0,0.0,0.0,0.0,0.0,0.0,0.0,0.0,0.0,0.0,0.0,0.0,0.0,-3.9209,-3.8469,-3.7674,-3.6904,-3.6133,-3.5234,-3.4081,-3.3087,-3.2164,-3.1241,-3.0292,-2.9804,-2.9804,-2.8889,-2.8358,-2.8106,-2.6055,-2.4992,-2.4792,-2.3591,-2.3505,-2.4122,-2.4335,-2.4829,-2.5489,-2.5625,-2.5898,-2.6269,-2.6681,-2.7179,-2.7592,-2.8009,-2.8281,-2.8301,0.0,0.0,0.0,0.0,0.0,0.0,0.0,0.0,0.0,0.0,0.0,0.0,0.0,0.0,0.0,0.0,-2.6233,-2.6533,0.0,0.0,0.0,0.0,0.0,0.0,0.0,0.0,0.0,0.0,0.0,0.0,0.0,0.0,0.0,0.0,0.0,0.0,0.0,0.0,-3.9076,-4.0087,-4.0087,0.0,-4.0087,-4.0087,-4.0466,-4.0978,-4.156,-4.2346,-4.3105,-4.3148,-4.293,0.0,0.0,-4.1437,-4.1008,0.0,-4.0498,-4.0584,0.0,0.0,0.0,-3.807,0.0,0.0,0.0,-3.6012,-3.6013,0.0,0.0,0.0,0.0,0.0,0.0,0.0,0.0,0.0,0.0,0.0,0.0,0.0,0.0,0.0,-3.8962,-3.7873,-3.6874,-3.6102,-3.5204,-3.4341,-3.3394,-3.2379,-3.1462,-3.057,-3.0088,-2.9804,-2.9804,-2.8635,-2.7813,-2.7242,-2.5587,-2.4486,-2.3991,-2.3574,-2.372,-2.4142,-2.4564,-2.4961,-2.5373,-2.5625,-2.6132,-2.6741,-2.694,-2.7272,-2.7737,-2.8155,-2.8301,-2.8301,0.0,0.0,0.0,0.0,0.0,0.0,0.0,0.0,0.0,0.0,0.0,0.0,0.0,0.0,0.0,0.0,0.0,0.0,0.0,0.0,0.0,0.0,0.0,-2.7761,0.0,0.0,0.0,0.0,0.0,0.0,0.0,0.0,0.0,0.0,0.0,0.0,0.0,0.0,0.0,-4.0087,0.0,-4.0087,-4.0087,-4.0087,-4.0514,-4.1161,-4.186,-4.2736,-4.3553,-4.3162,-4.3192,-4.3175,-4.1905,-4.1665,0.0,0.0,0.0,0.0,0.0,0.0,0.0,0.0,0.0,-3.7262,0.0,0.0,0.0,0.0,0.0,0.0,0.0,0.0,0.0,0.0,0.0,0.0,0.0,0.0,0.0,0.0,0.0,0.0,0.0,-3.7322,-3.6165,-3.5554,-3.4543,-3.3602,-3.2664,-3.1683,-3.0771,-2.9856,-2.9804,-2.9804,-2.9804,-2.8484,-2.7349,-2.6504,-2.5121,-2.4011,-2.3144,-2.3612,-2.3811,-2.3969,-2.4755,-2.512,-2.5237,-2.5625,-2.6269,-2.6979,-2.696,-2.7302,-2.7863,-2.8155,-2.8301,-2.8301,-1.8008,-1.8008,0.0,0.0,0.0,0.0,0.0,0.0,0.0,0.0,0.0,0.0,0.0,0.0,0.0,0.0,0.0,0.0,-2.5158,0.0,0.0,0.0,0.0,0.0,-3.0956,0.0,0.0,0.0,0.0,0.0,0.0,0.0,0.0,0.0,-3.5493,0.0,0.0,0.0,-3.865,0.0,-4.0087,-4.0087,0.0,-4.0087,-4.0767,-4.1853,-4.2922,-4.3557,-4.3937,0.0,-4.3815,-4.3564,0.0,-4.2125,-4.1662,-4.0985,0.0,0.0,0.0,0.0,0.0,0.0,-3.9138,0.0,0.0,0.0,-3.6266,-3.5386,0.0,0.0,0.0,0.0,0.0,0.0,0.0,0.0,0.0,0.0,0.0,0.0,0.0,0.0,0.0,-3.6538,-3.5619,-3.5519,-3.4543,-3.3602,-3.2664,-3.1683,-3.0771,-2.9856,-2.9804,-2.9804,-2.9804,-2.7729,-2.6597,-2.6488,-2.4326,-2.3201,-2.3144,-2.3612,-2.3984,-2.4334,-2.4889,-2.5353,-2.5625,-2.6132,-2.6543,-2.6979,-2.696,-2.7447,-2.8281,-2.8281,-2.8301,-2.8301,-1.8008,-1.8008,0.0,0.0,0.0,0.0,0.0,0.0,0.0,0.0,0.0,0.0,0.0,0.0,0.0,0.0,0.0,-2.458,0.0,0.0,0.0,0.0,0.0,0.0,0.0,0.0,0.0,0.0,-3.3081,0.0,0.0,0.0,0.0,0.0,-3.5329,0.0,-3.7144,0.0,-3.8428,0.0,0.0,0.0,0.0,-4.0087,-4.0814,-4.1937,-4.3105,-4.3726,-4.4028,0.0,-4.4436,0.0,0.0,0.0,0.0,0.0,0.0,0.0,0.0,0.0,0.0,0.0,0.0,0.0,-3.8392,0.0,-3.6787,0.0,0.0,0.0,0.0,0.0,0.0,0.0,0.0,0.0,0.0,0.0,0.0,0.0,0.0,0.0,0.0,0.0,0.0,0.0,-3.3739,-3.2806,-3.1829,-3.0921,-3.0216,-2.9804,-2.9804,-2.9804,-2.9804,-2.7603,-2.6504,-2.6426,-2.4157,-2.3271,-2.3505,-2.3974,-2.4362,-2.4849,-2.5237,-2.5509,-2.5742,-2.6249,-2.6606,-2.702,-2.7304,-2.7737,-2.8301,-2.8301,-2.8301,-2.8301,-1.8164,0.0,0.0,0.0,0.0,0.0,0.0,0.0,0.0,0.0,0.0,0.0,-2.0742,-2.1346,0.0,0.0,-2.3067,-2.422,0.0,0.0,-2.6674,-2.8224,-2.8323,0.0,0.0,0.0,0.0,0.0,0.0,0.0,0.0,0.0,0.0,0.0,0.0,-3.5824,-3.6964,0.0,-3.8246,-3.8962,-3.9799,-4.0087,-4.0104,-4.0417,-4.1059,-4.1937,-4.3105,-4.3791,-4.4204,-4.4482,-4.4896,0.0,-4.3803,0.0,0.0,0.0,0.0,0.0,-4.096,0.0,0.0,0.0,0.0,0.0,0.0,0.0,0.0,0.0,0.0,0.0,0.0,0.0,0.0,0.0,0.0,0.0,0.0,0.0,0.0,0.0,0.0,0.0,0.0,0.0,0.0,-3.4109,-3.3087,-3.2164,-3.1241,-3.0266,-2.9804,-2.9804,-2.9804,-2.9651,-2.9372,-2.7603,-2.6479,-2.6142,-2.4364,-2.3632,-2.3994,-2.4386,-2.4795,-2.5101,-2.5509,-2.5762,-2.5898,-2.6406,-2.6777,-2.7283,-2.7718,-2.8009,-2.8301,-2.8301,-2.8408,-2.8554,-1.8535,-1.8281,0.0,0.0,0.0,0.0,0.0,0.0,0.0,0.0,0.0,0.0,0.0,0.0,0.0,0.0,0.0,-2.3758,-2.4982,0.0,-2.7179,-2.88,-2.89,-2.9176,0.0,0.0,0.0,0.0,0.0,0.0,0.0,0.0,0.0,0.0,0.0,-3.5738,-3.7764,-3.7822,-3.8246,-3.8962,-3.9799,-4.0087,-4.0204,0.0,-4.1768,-4.1937,-4.3105,0.0,0.0,-4.4599,-4.5033,0.0,0.0,0.0,0.0,0.0,0.0,0.0,0.0,0.0,0.0,-4.0562,0.0,0.0,0.0,0.0,-3.8422,0.0,0.0,0.0,0.0,0.0,0.0,0.0,0.0,0.0,0.0,0.0,0.0,0.0,0.0,0.0,0.0,0.0,0.0,-3.4109,-3.3087,-3.2164,-3.1241,-3.0266,-2.9804,-2.9804,-2.9804,-2.9269,-2.813,-2.7478,-2.653,-2.5438,-2.4682,-2.4338,-2.4398,-2.4883,-2.5063,-2.5101,-2.5509,-2.5995,-2.6406,-2.6798,-2.728,-2.7718,-2.8135,-2.8281,-2.8301,-2.8301,-2.8573,-2.8993,0.0,0.0,0.0,0.0,0.0,0.0,0.0,-2.0566,0.0,0.0,0.0,0.0,0.0,-2.166,-2.2145,0.0,0.0,-2.337,-2.5842,-2.5995,0.0,0.0,0.0,-2.9859,0.0,0.0,0.0,-3.3533,-3.4604,0.0,0.0,0.0,0.0,0.0,0.0,-3.6596,0.0,0.0,0.0,0.0,0.0,-4.0087,-4.0204,0.0,0.0,-4.1937,-4.3105,-4.3974,0.0,-4.4599,-4.4652,-4.4701,-4.4487,-4.353,-4.2437,-4.2265,-4.1632,0.0,0.0,0.0,-4.0716,-4.0562,0.0,0.0,0.0,0.0,0.0,0.0,0.0,0.0,0.0,0.0,0.0,0.0,0.0,0.0,0.0,0.0,0.0,0.0,0.0,0.0,0.0,0.0,0.0,-3.3185,-3.2164,-3.1267,-3.0343,-3.0011,-2.9932,-3.0316,-3.0316,-2.9932,-2.9118,-2.8128,-2.7042,-2.5873,-2.4863,-2.4598,-2.4883,-2.4987,-2.5237,-2.5489,-2.5625,-2.5995,-2.6466,-2.6832,-2.7237,-2.7718,-2.8155,-2.8301,-2.8301,-2.8301,-2.8573,-2.8878,-1.8718,0.0,0.0,0.0,0.0,0.0,0.0,0.0,0.0,0.0,-2.1367,0.0,-2.2051,0.0,-2.2601,0.0,-2.3284,-2.395,-2.6356,-2.6575,0.0,-2.8664,-2.9443,0.0,0.0,0.0,0.0,-3.3533,-3.4476,-3.5133,0.0,0.0,0.0,0.0,0.0,-3.6825,-3.7834,0.0,-3.8908,0.0,0.0,-4.0204,0.0,0.0,-4.181,-4.1937,0.0,-4.3974,-4.4599,-4.4599,-4.4652,-4.4739,-4.4547,-4.3628,-4.2531,-4.2348,-4.1676,-4.0969,-4.0831,-4.0746,0.0,-4.0523,-4.0422,0.0,-4.0356,0.0,0.0,0.0,0.0,0.0,0.0,0.0,0.0,0.0,0.0,0.0,0.0,0.0,0.0,0.0,0.0,0.0,0.0,0.0,-3.3973,-3.2664,-3.2082,-3.1162,0.0,0.0,-3.0213,-3.0598,-3.0341,-2.9874,-2.8964,-2.7964,-2.691,-2.5742,-2.512,-2.4985,-2.5353,-2.5353,-2.5489,-2.5742,-2.5879,-2.6152,-2.6663,-2.7045,-2.7466,-2.799,-2.8155,-2.8301,-2.8301,-2.8301,-2.8672,-2.9056,0.0,0.0,0.0,0.0,-2.0273,0.0,0.0,0.0,-2.125,0.0,-2.1641,-2.207,-2.25,-2.2539,-2.2695,-2.3193,-2.4211,0.0,-2.64,-2.7522,0.0,0.0,-2.9779,-2.9804,-2.9804,0.0,0.0,-3.2593,-3.3533,-3.4543,-3.5489,0.0,0.0,0.0,-3.6021,0.0,-3.7953,-3.8665,-3.8962,-3.9016,-3.9799,-4.0417,-4.0967,-4.1595,-4.181,-4.1979,-4.3142,-4.3974,-4.4624,-4.4624,-4.5017,-4.5432,-4.4761,-4.402,-4.3287,-4.2618,-4.179,-4.1016,-4.0924,-4.0793,-4.0677,-4.0585,0.0,0.0,0.0,0.0,-3.9452,0.0,0.0,0.0,0.0,0.0,0.0,0.0,0.0,0.0,0.0,0.0,0.0,0.0,0.0,0.0,0.0,-3.5424,-3.4543,-3.2735,-3.2528,-3.1676,0.0,0.0,-3.0598,-3.0701,-3.0033,-2.9141,-2.8,-2.7233,-2.6269,-2.512,-2.5489,-2.5742,-2.5742,-2.5742,-2.5742,-2.5762,-2.6249,-2.6603,-2.706,-2.7493,-2.799,-2.8301,-2.8301,-2.8301,-2.8301,-2.8301,-2.8906,-2.9408,-1.8082,-1.9411,-2.0391,0.0,-2.0215,-2.0195,0.0,0.0,0.0,0.0,-2.209,-2.2519,-2.293,-2.2988,-2.3355,-2.4276,-2.4617,0.0,0.0,0.0,0.0,-2.8505,-2.9365,-2.9804,-2.9804,-3.0696,0.0,-3.2593,-3.3533,-3.4543,-3.5489,0.0,0.0,0.0,0.0,0.0,-3.953,-3.9698,-3.9799,-3.9799,-4.0003,-4.0417,0.0,0.0,-4.2062,-4.258,-4.352,-4.4213,-4.465,-4.4896,-4.4822,-4.4739,-4.5355,-4.455,-4.353,-4.4114,-4.3112,-4.1828,-4.1784,-4.1193,-4.07,-4.1316,-4.1244,-4.1167,0.0,0.0,0.0,0.0,0.0,0.0,0.0,0.0,0.0,0.0,0.0,0.0,0.0,0.0,0.0,0.0,0.0,0.0,0.0,-3.4206,-3.317,-3.264,-3.1303,-3.0495,-3.0419,0.0,0.0,-3.1785,-3.165,-3.07,-2.9023,-2.8818,-2.7606,-2.5509,-2.5625,-2.5742,-2.5742,-2.5742,-2.5879,-2.6269,-2.6386,-2.6863,-2.7532,-2.767,-2.799,-2.8301,-2.8301,-2.8301,-2.8427,-2.9013,-2.9439,-2.929,-1.8546,0.0,0.0,-2.0566,0.0,0.0,-2.082,0.0,0.0,-2.1836,-2.2246,0.0,-2.2832,-2.3027,-2.3387,-2.3953,-2.4532,0.0,-2.64,0.0,0.0,-2.8846,-2.9443,-2.9804,-2.9804,-3.0343,0.0,-3.1947,0.0,0.0,-3.4427,0.0,0.0,0.0,0.0,-3.7677,-3.9175,-3.9817,-4.0087,-4.0087,-4.0087,0.0,0.0,-4.1682,-4.2306,-4.3142,-4.3967,-4.4401,-4.465,-4.4988,-4.4997,-4.4932,-4.5278,-4.4744,-4.4019,-4.4329,-4.3595,-4.2675,-4.2686,-4.214,-4.1739,-4.2239,-4.2011,-4.1775,-4.2215,-4.1852,-4.1496,0.0,0.0,0.0,0.0,0.0,0.0,0.0,0.0,0.0,0.0,0.0,0.0,0.0,0.0,0.0,0.0,-3.4109,-3.3045,-3.2666,-3.1261,-3.0467,0.0,0.0,0.0,-3.2184,-3.1963,-3.0961,-2.946,-2.8881,-2.7606,-2.5742,-2.5742,-2.5742,-2.5742,-2.5879,-2.6152,-2.6446,-2.6802,-2.726,-2.7718,-2.7863,-2.8135,-2.8301,-2.8301,-2.8301,-2.8301,-2.8447,-2.8494,-2.8108,0.0,0.0,0.0,0.0,0.0,0.0,0.0,-2.1367,0.0,-2.1914,0.0,-2.2598,-2.2598,-2.293,-2.3144,-2.3144,0.0,-2.5294,-2.64,-2.7522,-2.8609,-2.9779,-2.9804,-2.9804,-2.9804,-2.9804,0.0,0.0,0.0,-3.2122,-3.312,0.0,0.0,0.0,0.0,0.0,0.0,-3.9362,-3.9986,-4.0087,-4.0087,-4.0767,-4.181,-4.181,-4.2505,-4.3597,-4.4355,-4.4599,-4.4676,-4.5033,-4.5381,-4.5509,-4.4991,-4.4846,-4.4744,-4.4212,-4.3825,-4.3549,-4.3582,-4.3355,-4.3124,-4.3167,-4.2709,-4.2272,-4.2335,-4.1853,-4.1592,-4.2219,-4.1325,-4.0659,0.0,0.0,0.0,0.0,0.0,0.0,0.0,0.0,0.0,0.0,0.0,0.0,0.0,0.0,-3.35,-3.2653,-3.1602,-3.0903,0.0,0.0,0.0,-3.2314,-3.1614,-3.0649,-2.9535,0.0,-2.7053,-2.5879,-2.5742,-2.5762,-2.5879,-2.6269,-2.6408,-2.6567,-2.7369,-2.7718,-2.7844,-2.8155,-2.8301,-2.8301,-2.8301,-2.8155,-2.799,-2.7138,-2.6641,-2.6236,0.0,0.0,0.0,0.0,0.0,-2.1367,-2.1719,-2.207,-2.2324,-2.2383,-2.2773,-2.3027,-2.3027,-2.3086,-2.3144,-2.3144,-2.4125,0.0,0.0,0.0,0.0,-2.9779,-2.9804,-2.9804,-2.9804,-2.9804,-3.0292,0.0,-3.1422,-3.2122,-3.312,0.0,0.0,0.0,0.0,0.0,-3.8823,-3.9057,0.0,-4.0087,-4.0087,-4.0767,-4.181,-4.181,-4.2505,-4.3597,-4.4355,-4.4599,-4.4701,-4.5303,-4.555,-4.5586,-4.568,-4.5686,-4.5726,-4.5813,-4.5195,-4.4453,-4.4453,-4.3816,-4.3188,-4.3598,-4.3392,-4.3175,-4.3548,-4.3347,-4.299,-4.2703,-4.206,-4.1414,-4.1126,0.0,0.0,0.0,0.0,0.0,0.0,0.0,0.0,0.0,0.0,0.0,0.0,0.0,0.0,0.0,0.0,0.0,0.0,0.0,0.0,0.0,-3.1773,0.0,0.0,0.0,-2.7329,-2.6798,-2.6015,-2.6132,-2.6798,-2.6523,-2.6783,-2.7458,-2.7603,-2.7863,-2.8155,-2.8281,-2.8301,-2.8301,-2.8301,-2.7718,-2.6723,-2.5522,-2.4482,-2.3554,0.0,0.0,0.0,0.0,0.0,0.0,0.0,-2.2559,0.0,-2.2539,-2.2695,-2.2812,-2.2812,-2.3008,-2.3144,-2.3144,-2.3627,-2.4638,-2.64,-2.6953,-2.8028,-2.9702,-2.9804,0.0,-2.9804,-2.9804,-3.0292,-3.1167,-3.1124,-3.1579,0.0,0.0,0.0,0.0,0.0,-3.6776,0.0,0.0,0.0,-4.0087,-4.0087,-4.0767,-4.181,-4.181,-4.2505,-4.3597,-4.4355,-4.4599,-4.4726,-4.5381,-4.5586,-4.5624,-4.5834,-4.5918,-4.5959,-4.6204,-4.5859,-4.5318,-4.5317,-4.4855,-4.4418,-4.4454,-4.4241,-4.3966,-4.4013,-4.3758,-4.3321,-4.2808,-4.2221,-4.1552,-4.0625,-4.0303,0.0,0.0,0.0,0.0,0.0,0.0,0.0,0.0,0.0,0.0,0.0,0.0,0.0,0.0,0.0,0.0,0.0,0.0,0.0,0.0,0.0,0.0,0.0,0.0,0.0,-2.6956,-2.652,-2.6602,-2.6976,-2.7061,-2.7253,-2.7718,-2.7883,-2.8135,-2.8301,-2.8301,-2.8301,-2.8301,-2.8301,-2.7573,-2.6387,-2.5172,-2.3991,-2.2849,0.0,-1.8953,0.0,0.0,-2.1434,0.0,-2.2101,-2.2679,-2.3027,-2.2695,-2.2637,-2.2637,-2.2637,-2.2949,-2.3144,-2.3144,-2.3144,-2.4059,-2.6318,-2.6483,-2.7464,-2.9702,-2.9804,-2.9804,-2.9804,-2.9804,-3.0139,0.0,-3.0821,-3.1138,0.0,0.0,0.0,0.0,0.0,0.0,0.0,0.0,-3.9952,-4.0138,-4.0204,-4.0908,-4.181,-4.1937,-4.2619,-4.3597,-4.4355,-4.4599,-4.4726,-4.5381,-4.5586,-4.5624,-4.5834,-4.5918,-4.5959,-4.6204,-4.6093,-4.5901,-4.5912,-4.5757,-4.5475,-4.5115,-4.48,-4.4493,-4.4004,-4.3693,-4.3321,-4.2655,-4.1937,-4.115,-4.0254,-3.9952,0.0,0.0,0.0,0.0,0.0,0.0,0.0,0.0,0.0,0.0,0.0,0.0,0.0,0.0,0.0,-3.0291,-3.1371,-3.144,-3.1479,0.0,0.0,-3.0606,-2.8723,0.0,-2.8028,-2.7242,-2.7102,-2.7045,-2.7282,-2.7552,-2.7737,-2.7863,-2.8155,-2.8301,-2.8301,-2.8301,-2.8301,-2.8281,-2.8009,-2.7157,-2.601,-2.4817,-2.3583,-2.2413,0.0,0.0,0.0,0.0,0.0,0.0,0.0,-2.2138,-2.3125,-2.3086,-2.3086,-2.3086,-2.3086,-2.3125,-2.3144,-2.3144,-2.3144,-2.4059,-2.6318,-2.6483,-2.7464,-2.9702,-2.9804,-2.9804,-2.9804,-2.9804,-2.9856,0.0,-3.0967,-3.1254,-3.0798,-3.1886,0.0,0.0,0.0,0.0,0.0,-3.874,-3.9478,-4.0154,-4.0625,-4.1241,-4.1853,-4.2382,-4.2958,-4.3597,-4.4355,-4.4599,-4.4726,-4.5381,-4.5586,-4.5624,-4.5834,-4.5918,-4.5959,-4.6204,-4.6093,-4.5901,-4.5912,-4.5757,-4.5438,-4.4825,-4.4624,-4.4438,-4.3693,-4.3495,-4.3178,-4.2103,-4.1047,-4.0204,-4.0138,-3.9473,-3.8745,0.0,0.0,0.0,0.0,0.0,0.0,0.0,0.0,0.0,0.0,0.0,0.0,0.0,0.0,-3.0291,-3.1371,-3.144,-3.1884,-3.2907,0.0,-3.0283,-3.0473,-2.8223,-2.7496,-2.8192,-2.737,-2.737,-2.8192,-2.7806,-2.7863,-2.8281,-2.8281,-2.8301,-2.8301,-2.8301,-2.8301,-2.8155,-2.7138,-2.5916,-2.4676,-2.3521,-2.2272,-2.1249,0.0,0.0,0.0,0.0,0.0,0.0,0.0,-2.2202,-2.3144,-2.3144,-2.3144,-2.3144,-2.3144,-2.3144,-2.3144,-2.3144,-2.3144,-2.38,-2.5378,-2.6152,-2.7221,-2.8688,-2.9443,-2.9804,-2.9804,-2.9804,-3.0062,0.0,0.0,-3.1805,-3.2122,-3.2809,0.0,0.0,0.0,-3.6918,-3.8025,-3.9194,-3.9817,-4.0154,-4.0685,-4.1251,-4.1853,-4.2462,-4.2705,-4.2934,-4.4168,-4.4285,-4.4007,-4.5208,-4.5586,-4.5624,-4.5834,-4.5918,-4.593,-4.6112,-4.6037,-4.5901,-4.5835,-4.5719,-4.5438,-4.4776,-4.4599,-4.4411,-4.3664,-4.325,-4.2808,-4.1979,-4.0908,-4.0087,-4.0087,-3.942,-3.8635,0.0,0.0,0.0,0.0,0.0,0.0,0.0,0.0,0.0,0.0,0.0,0.0,0.0,0.0,-3.0598,-3.1397,-3.1017,-3.132,-3.2475,0.0,-2.9502,-3.013,-2.8573,-2.799,-2.8301,-2.799,-2.799,-2.8281,-2.8135,-2.8155,-2.8301,-2.8301,-2.8301,-2.8301,-2.8301,-2.7737,-2.6905,-2.6616,-2.5241,-2.3349,-2.3062,-2.2117,-2.1109,-1.6879,0.0,-1.6916,0.0,-1.9192,-2.0004,-2.0712,-2.1765,-2.2687,-2.3057,-2.3144,-2.3144,-2.3144,-2.3144,-2.3144,-2.3144,-2.3144,-2.3541,-2.4702,-2.588,-2.6953,-2.8004,-2.9184,0.0,-2.9804,-2.9804,-3.0139,-3.0771,-3.1541,0.0,-3.2691,0.0,0.0,0.0,-3.6451,-3.7501,-3.8355,-3.9564,-4.0087,-4.0154,-4.0874,-4.1385,-4.1895,-4.2655,-4.2885,-4.2913,-4.3895,-4.4033,-4.3976,-4.4921,-4.5393,-4.568,-4.5834,-4.5926,-4.5967,-4.6046,-4.6003,-4.5866,-4.5841,-4.5719,-4.5438,-4.4776,-4.4599,-4.4411,-4.3664,-4.3105,-4.2462,-4.1725,-4.0767,-4.0087,-4.0087,-3.9262,-3.8414,-3.7879,0.0,0.0,0.0,0.0,0.0,0.0,-3.6241,-3.5301,-3.4221,0.0,0.0,0.0,0.0,0.0,-3.1592,-3.0964,0.0,0.0,0.0,0.0,0.0,-2.872,-2.8301,-2.8301,-2.8301,-2.8301,-2.8301,-2.8301,-2.8301,-2.8301,-2.8301,-2.8301,-2.8301,-2.8301,-2.7469,-2.6187,-2.6039,-2.4585,-2.2567,-2.2413,-2.1823,-2.1109,-1.5765,-1.5591,-1.5484,-1.5778,-1.6842,-1.8133,-1.9314,-2.0567,-2.1747,-2.295,-2.3144,-2.3144,-2.3144,-2.3144,-2.3144,-2.3144,-2.3144,-2.3541,-2.4702,-2.588,-2.6953,0.0,0.0,-2.9804,-2.9804,-2.9804,-2.9804,-2.9779,0.0,0.0,-3.164,0.0,-3.4849,-3.5667,-3.7123,-3.8189,-3.8962,-3.9765,-4.0087,-4.0204,-4.1331,-4.181,-4.1937,-4.3069,-4.3693,-4.3916,-4.3461,-4.408,-4.5006,-4.4497,-4.497,-4.5796,-4.5873,-4.5988,-4.6113,-4.6113,-4.5988,-4.5873,-4.5834,-4.5719,-4.5438,-4.4776,-4.4599,-4.4411,-4.3664,-4.3105,-4.2342,-4.1161,-4.0514,-4.0087,-4.0087,-3.8832,-3.7822,-3.7822,0.0,0.0,0.0,0.0,0.0,0.0,-3.837,-3.7271,-3.4682,0.0,0.0,0.0,0.0,0.0,0.0,0.0,0.0,-3.1854,-3.0326,0.0,-2.954,-2.872,-2.8301,-2.8301,-2.8301,-2.8301,-2.8301,-2.8301,-2.8301,-2.8301,-2.8301,-2.8301,-2.8301,-2.8301,-2.7628,-2.6388,-2.5171,-2.3992,-2.2708,-2.1543,-2.1109,-2.1109,-1.5805,-1.5752,-1.5725,-1.5818,-1.6857,-1.8149,-1.9314,-2.0477,-2.1747,-2.295,-2.3144,-2.3144,-2.3144,-2.3144,-2.3144,0.0,-2.3144,-2.3212,0.0,-2.5484,-2.6648,-2.6953,-2.8791,-2.9804,-2.9804,-2.9804,-2.9804,-2.9804,0.0,0.0,0.0,-3.4901,-3.5859,-3.7123,-3.761,-3.8502,-3.9714,-4.0003,-4.0087,-4.017,-4.0726,-4.099,-4.1044,-4.1614,-4.2068,-4.2454,-4.3062,-4.3748,-4.4378,-4.4976,-4.5488,-4.5885,-4.588,-4.5979,-4.606,-4.5975,-4.594,-4.5873,-4.5719,-4.5477,-4.5159,-4.4726,-4.4373,-4.4095,-4.3597,-4.2772,-4.1768,-4.0577,-4.0204,-3.9952,-3.9368,-3.8469,-3.7648,-3.7084,-3.7048,0.0,0.0,0.0,0.0,0.0,-3.6733,-3.5552,0.0,-3.275,0.0,0.0,0.0,0.0,0.0,0.0,0.0,0.0,-2.9725,0.0,-3.0023,-2.8866,-2.8301,-2.8301,-2.8301,-2.8301,-2.8301,-2.8301,-2.8301,-2.8301,-2.8301,-2.8301,-2.8233,-2.716,-2.6041,-2.4852,-2.3693,-2.2413,-2.1389,-2.1122,-2.1109,-2.1109,-1.5832,-1.5832,-1.5832,-1.5832,-1.6857,-1.8149,-1.9314,-2.0477,-2.1747,-2.295,-2.3144,-2.3144,-2.3144,-2.3144,0.0,-2.3144,-2.3144,-2.3144,-2.3144,-2.5231,-2.6483,-2.6483,-2.8633,-2.9804,-2.9804,-2.9804,0.0,-2.9804,-3.1683,-3.3602,-3.5519,-3.5519,-3.6321,-3.7822,-3.7822,-3.8668,-4.0087,-4.0087,-3.9918,-3.9763,-4.0342,-4.0424,-4.0263,-4.085,-4.1385,-4.1863,-4.2586,-4.3171,-4.3752,-4.4781,-4.524,-4.5517,-4.5802,-4.6037,-4.613,-4.5963,-4.5906,-4.5873,-4.5624,-4.5361,-4.5011,-4.4701,-4.429,-4.3812,-4.3032,-4.2306,-4.1464,-4.0353,-4.0087,-3.985,-3.9016,-3.8302,-3.7531,-3.6722,-3.6823,-3.7075,-3.7037,0.0,0.0,0.0,0.0,0.0,0.0,-3.3014,-3.261,0.0,0.0,0.0,0.0,0.0,0.0,-3.2169,-2.9434,0.0,-2.9581,-2.872,-2.8301,-2.8301,-2.8301,-2.8301,-2.8301,-2.8301,-2.8301,-2.8301,-2.8301,-2.8301,-2.8233,-2.6655,-2.5459,-2.4316,-2.298,-2.1839,-2.0829,-2.1096,-2.1109,-2.1109,-1.5832,-1.5832,0.0,0.0,-1.6763,0.0,-1.9314,-2.0477,-2.1658,-2.295,-2.3144,-2.3144,-2.3144,-2.3144,-2.3144,-2.3144,0.0,0.0,0.0,-2.5231,-2.6483,-2.6483,-2.8633,-2.9804,-2.9804,-2.9804,-2.9856,-3.0011,-3.1756,-3.3602,-3.5519,-3.5519,-3.6321,-3.7706,-3.7764,-3.8613,-4.0003,-4.0087,-3.9648,-3.9069,-4.0097,-4.007,-3.9522,-4.0557,-4.1386,-4.2033,-4.207,-4.2574,-4.3316,-4.4124,-4.4586,-4.4922,-4.5647,-4.6093,-4.6239,-4.5974,-4.5906,-4.5873,-4.5624,-4.5361,-4.4988,-4.4701,-4.4261,-4.3582,-4.2149,-4.181,-4.1464,-4.0353,-4.0087,-3.985,-3.8962,-3.8246,-3.7531,-3.6661,-3.652,-3.6507,-3.6492,0.0,0.0,0.0,0.0,0.0,0.0,-3.4564,-3.4126,0.0,0.0,0.0,0.0,0.0,-3.0928,-3.1529,-2.9434,-2.8301,-2.8301,-2.8301,-2.8301,-2.8301,-2.8301,-2.8301,-2.8301,-2.8301,-2.8301,-2.8301,-2.8301,-2.8301,-2.8213,-2.6627,-2.5422,-2.4499,-2.2926,-2.1894,-2.1109,-2.1109,-2.1109,-2.1109,0.0,0.0,-1.5832,-1.5832,-1.6008,-1.6936,-1.9131,-1.977,-2.0674,-2.2862,-2.3144,-2.3144,-2.3144,-2.3144,-2.3144,-2.3144,-2.3144,-2.3144,-2.3144,-2.5231,-2.6483,-2.6483,-2.8633,-2.9804,-2.9804,-2.9804,-3.0495,-3.1974,-3.2379,-3.3602,-3.5519,-3.5519,-3.6006,-3.6904,-3.7531,-3.8302,-3.9209,-3.985,-3.9648,-3.9035,-3.9503,-3.9217,-3.8631,-3.9067,-4.0077,-4.1264,-4.1868,-4.2938,-4.4162,-4.5009,-4.5432,-4.5632,-4.5841,-4.6012,-4.6113,-4.5959,-4.5906,-4.5873,-4.5624,-4.518,-4.4701,-4.4624,-4.4125,-4.3283,-4.2103,-4.181,-4.1464,-4.0353,-4.0087,-3.9662,-3.8302,-3.7937,-3.7354,-3.5943,-3.616,-3.6507,-3.6492,-3.6909,0.0,0.0,-3.5507,-3.4936,-3.3589,-3.3503,-3.3366,0.0,0.0,0.0,0.0,-3.2112,-3.0957,-3.1444,-2.9434,-2.8301,-2.8301,-2.8301,-2.8301,-2.8301,-2.8301,-2.8301,-2.8301,-2.8301,-2.8301,-2.8301,-2.8301,-2.8301,-2.8125,-2.5683,-2.4696,-2.4488,-2.2047,-2.1118,-2.1109,-2.1109,-2.1109,-2.1109,-1.5832,-1.5832,-1.5832,-1.5832,-1.6292,-1.7311,-1.9222,-1.9951,-2.1033,-2.2862,-2.3144,-2.3144,-2.3144,-2.3144,-2.3144,-2.3144,-2.3144,-2.3144,-2.3144,-2.5231,-2.6483,-2.6483,-2.8633,-2.9804,-2.9804,-2.9804,-3.0495,-3.1947,-3.2379,-3.3394,-3.4839,-3.5294,-3.607,-3.7144,-3.7648,-3.8414,-3.9506,-3.9901,-3.9608,-3.8836,-3.9238,-3.888,-3.8186,-3.8547,-3.937,-4.0472,-4.1666,-4.2557,-4.3431,-4.5124,-4.5526,-4.5423,-4.5866,-4.6052,-4.6078,-4.5944,-4.5896,-4.5834,-4.5624,-4.5099,-4.4519,-4.4184,-4.359,-4.2884,-4.2021,-4.1595,-4.115,-4.0303,-3.9799,-3.9209,-3.8051,-3.7785,-3.7249,-3.5714,-3.6022,-3.638,-3.6081,-3.6231,0.0,-3.4963,-3.4782,-3.4375,-3.3528,-3.323,-3.3341,-3.3801,-3.3639,0.0,-3.5003,-3.2544,-3.1261,-3.1891,-2.9581,-2.8301,-2.8301,-2.8301,-2.8301,-2.8301,-2.8301,-2.8301,-2.8301,-2.8301,-2.8301,-2.8301,-2.7568,-2.7243,-2.7064,-2.44,-2.345,-2.3433,-2.1516,-2.0855,-2.1109,-2.1109,-2.1109,-2.1109,-1.5832,-1.5832,-1.5832,-1.5832,-1.6669,-1.787,-1.9039,-2.0206,-2.148,-2.2668,-2.295,-2.3144,-2.3144,-2.3144,-2.3144,-2.3144,-2.3144,-2.3144,-2.3144,-2.5231,-2.6483,-2.6483,-2.8633,-2.9804,-2.9804,-2.9804,-3.0343,-3.1389,-3.2236,-3.3185,-3.4245,-3.5133,-3.6258,-3.7616,-3.7636,-3.8482,-3.9901,-3.9952,-3.9412,-3.8633,-3.9188,-3.8785,-3.7962,-3.8523,-3.9175,-4.0019,-4.16,-4.2179,-4.2547,-4.4987,-4.5384,-4.5025,-4.583,-4.6085,-4.6034,-4.5928,-4.5834,-4.5757,-4.5624,-4.5099,-4.4438,-4.3697,-4.3105,-4.2537,-4.1937,-4.134,-4.0733,-4.0204,-3.942,-3.869,-3.7937,-3.7647,-3.6998,-3.5709,-3.5992,-3.6104,-3.5484,0.0,-3.5293,-3.4328,-3.4375,-3.4264,-3.3801,-3.3481,-3.3582,-3.4538,-3.4244,-3.4336,-3.5192,-3.2875,-3.1667,-3.2019,-2.9581,-2.8301,-2.8301,-2.8301,-2.8301,-2.8301,-2.8301,-2.8301,-2.8301,-2.8301,-2.8174,-2.7853,-2.6591,-2.5952,-2.5547,-2.3043,-2.2201,-2.2393,-2.1218,-2.0895,-2.1109,-2.1109,-2.1109,-2.1109,-1.5832,-1.5832,-1.5832,-1.5832,-1.5927,-1.648,-1.7777,-1.9039,-2.0223,-2.1391,-2.2492,-2.3144,-2.3144,-2.3144,-2.3144,-2.3144,-2.3144,-2.3144,-2.3144,-2.5231,-2.6483,-2.6483,-2.8633,-2.9804,-2.9804,-2.9804,-3.0646,-3.2379,-3.2522,-3.3533,-3.5294,-3.5424,-3.5943,-3.6751,-3.6838,-3.7695,-3.909,-3.9127,-3.8935,-3.8633,-3.9188,-3.8785,-3.7995,-3.8744,-3.9713,-4.0858,-4.2053,-4.314,-4.4124,-4.5372,-4.5761,-4.5742,-4.6028,-4.6002,-4.5936,-4.5896,-4.5757,-4.5624,-4.5586,-4.5099,-4.4438,-4.3697,-4.3105,-4.2537,-4.1937,-4.134,-4.0733,-4.0204,-3.942,-3.869,-3.7937,-3.7238,-3.6445,-3.5649,-3.5609,-3.5514,-3.5056,0.0,-3.4355,-3.3869,-3.3503,-3.3341,-3.3205,-3.3531,-3.3826,-3.3979,-3.4329,-3.4397,-3.3829,-3.2324,-3.1238,-3.068,-2.914,-2.8301,-2.8301,-2.8301,-2.8301,-2.8301,-2.8301,-2.8301,-2.8301,-2.8301,-2.7618,-2.6372,-2.6173,-2.5406,-2.4128,-2.296,-2.2424,-2.2423,-2.1438,-2.1069,-2.1109,-2.1109,-2.1109,-2.1109,-1.5832,-1.5832,-1.5832,-1.5832,-1.5832,-1.6197,-1.7498,-1.8133,-1.8948,-2.0206,-2.1391,-2.212,-2.212,-2.2687,-2.3144,-2.3144,-2.3144,-2.3144,-2.3144,-2.5231,-2.6483,-2.6483,-2.8633,-2.9804,-2.9804,-2.9804,-3.0495,-3.1829,-3.2307,-3.3325,-3.4677,-3.5228,-3.6133,-3.7231,-3.6883,-3.7536,-3.9008,-3.9282,-3.9064,-3.8544,-3.9455,-3.9229,-3.8396,-3.8924,-3.9577,-4.0367,-4.1487,-4.2354,-4.3124,-4.4145,-4.4846,-4.5282,-4.546,-4.5692,-4.5911,-4.5889,-4.5611,-4.5283,-4.5099,-4.4663,-4.4087,-4.3284,-4.2619,-4.2062,-4.1429,-4.0874,-4.0417,-4.0154,-3.9156,-3.8319,-3.8302,-3.7654,-3.6919,-3.6586,-3.6828,0.0,0.0,-3.5111,-3.4549,-3.3794,-3.3341,-3.3205,-3.3503,-3.3784,-3.4155,-3.4685,-3.4991,-3.4768,-3.4004,-3.2712,-3.1387,-3.0298,-2.9013,-2.8301,-2.8301,-2.8301,-2.8301,-2.8301,-2.8301,-2.8301,-2.8301,-2.8301,-2.7511,-2.6063,-2.5278,-2.4033,-2.2788,-2.1683,-2.1399,-2.1474,-2.1186,-2.1109,-2.1109,-2.1109,-2.1109,-2.1109,-1.5832,-1.5832,-1.5832,-1.5832,-1.5832,-1.6103,-1.7138,-1.7498,-1.8056,-1.8948,-2.0387,-2.1302,-2.1302,-2.2403,-2.3144,-2.3144,-2.3144,-2.3144,-2.3144,-2.5231,-2.6483,-2.6483,-2.8633,-2.9804,-2.9804,-2.9804,-3.0343,-3.1536,-3.2236,-3.3185,-3.438,-3.4984,-3.6075,-3.7534,-3.6582,-3.711,-3.8783,-3.9124,-3.8901,-3.8412,-3.9478,-3.9436,-3.875,-3.9063,-3.9477,-4.0065,-4.1053,-4.1701,-4.2261,-4.3129,-4.4003,-4.4759,-4.491,-4.5405,-4.5911,-4.5889,-4.5456,-4.4919,-4.4676,-4.429,-4.3781,-4.2922,-4.2262,-4.1639,-4.1024,-4.048,-4.0087,-3.985,-3.8854,-3.8089,-3.8451,-3.7895,-3.7368,-3.7368,0.0,0.0,0.0,-3.5488,-3.4865,-3.3665,-3.3316,-3.3341,-3.3827,-3.3964,-3.4439,-3.5387,-3.5367,-3.4887,-3.398,-3.2552,-3.1209,-2.9876,-2.8866,-2.8301,-2.8301,-2.8301,-2.8301,-2.8301,-2.8301,-2.8301,-2.8301,-2.796,-2.6952,-2.5516,-2.3933,-2.2565,-2.1408,-2.0575,-2.0401,-2.0708,-2.1002,-2.1109,-2.1109,-2.1109,-2.1109,-2.1109,-1.5832,-1.5832,-1.5832,-1.5832,-1.5832,-1.5832,-1.5927,-1.6951,-1.7684,-1.7777,-1.9861,-2.1302,-2.1302,-2.2403,-2.3144,-2.3144,-2.3144,-2.3144,-2.3144,-2.5231,-2.6483,-2.6483,-2.8633,-2.9804,-2.9804,-2.9804,-3.0722,-3.2522,-3.2593,-3.3533,-3.5359,-3.4861,-3.5339,-3.671,-3.5336,-3.5985,-3.797,-3.7782,-3.7923,-3.8341,-3.8868,-3.8928,-3.878,-3.9352,-4.0071,-4.0904,-4.1512,-4.2338,-4.3107,-4.3316,-4.4025,-4.4809,-4.4822,-4.5312,-4.5872,-4.5835,-4.5235,-4.465,-4.4624,-4.429,-4.3781,-4.2922,-4.2262,-4.1639,-4.1024,-4.048,-3.9901,-3.9156,-3.8821,-3.8483,-3.781,-3.7506,-3.7368,-3.7368,0.0,0.0,-3.5549,-3.5328,-3.4727,-3.3341,-3.3093,-3.3341,-3.3827,-3.4375,-3.4882,-3.5506,-3.4887,-3.3861,-3.2488,-3.1192,-2.9876,-2.8447,-2.8301,-2.8301,-2.8301,-2.8301,-2.8301,-2.8301,-2.8301,-2.8301,-2.8281,-2.6933,-2.5371,-2.3933,-2.2363,-2.1104,-1.9932,-2.0107,-2.0401,-2.0708,-2.1002,-2.1109,-2.1109,-2.1109,-2.1109,-2.1109,-1.5832,-1.5832,-1.5832,-1.5832,-1.5832,-1.5832,-1.5832,-1.6197,-1.648,-1.648,-1.8672,-2.0206,-2.0206,-2.1943,-2.3144,-2.3144,-2.3144,-2.3144,-2.3144,-2.4553,-2.6378,-2.8474,-2.9365,-2.9804,-2.9804,-2.9804,-3.054,-3.1971,-3.1971,-3.2766,-3.4262,-3.3993,-3.4664,-3.6062,-3.5016,-3.5593,-3.7271,-3.7791,-3.7862,-3.7745,-3.9009,-3.9191,-3.878,-3.9377,-3.9807,-4.0163,-4.0781,-4.1277,-4.1671,-4.1776,-4.2808,-4.4059,-4.4044,-4.4916,-4.5819,-4.5458,-4.5004,-4.4572,-4.429,-4.3974,-4.3422,-4.2386,-4.1979,-4.1552,-4.0625,-4.0254,-3.9901,-3.9102,-3.8886,-3.867,-3.8279,-3.8131,-3.8159,-3.8522,0.0,-3.7248,-3.6014,-3.5298,-3.4427,-3.323,-3.3068,-3.3205,-3.3366,-3.4159,-3.4477,-3.3789,-3.4147,-3.3405,-3.1207,-2.9826,-2.8846,-2.8301,-2.8301,-2.8301,-2.8301,-2.8301,-2.8301,-2.8301,-2.8301,-2.8301,-2.8281,-2.6825,-2.5261,-2.371,-2.2251,-2.0988,-2.008,-2.0187,-2.0521,-2.0949,-2.1069,-2.1109,-2.1109,-2.1109,-2.1109,-2.1109,-1.5832,-1.5832,-1.5832,-1.5832,-1.5832,-1.5832,-1.5832,-1.5832,-1.5832,-1.5832,-1.7933,-1.9497,-1.9497,-2.1566,-2.2949,-2.2949,-2.2812,-2.2754,-2.2754,-2.4053,-2.6206,-2.9106,-2.9624,-2.9704,-2.9528,-2.9528,-3.0077,-3.1364,-3.1364,-3.2085,-3.3484,-3.3275,-3.3959,-3.5326,-3.4622,-3.5102,-3.6491,-3.7551,-3.7707,-3.7356,-3.8919,-3.9258,-3.8884,-3.9402,-3.9687,-3.9819,-4.03,-4.06,-4.0776,-4.1092,-4.2273,-4.3651,-4.3878,-4.48,-4.5686,-4.5094,-4.4776,-4.4519,-4.4004,-4.356,-4.2995,-4.2062,-4.1682,-4.1286,-4.0303,-3.9901,-3.9506,-3.869,-3.8643,-3.8653,-3.8275,-3.8513,-3.8873,-3.932,-3.8542,-3.7434,-3.6324,-3.533,-3.4264,-3.3205,-3.3068,-3.3179,-3.3341,-3.3816,-3.3752,-3.3031,-3.3021,-3.2085,-2.9794,-2.8846,-2.8301,-2.8301,-2.8301,-2.8301,-2.8301,-2.8301,-2.8301,-2.8301,-2.8301,-2.8067,-2.7511,-2.6045,-2.4599,-2.3055,-2.1591,-2.069,-2.0241,-2.0334,-2.0668,-2.1109,-2.1109,-2.1109,-2.1109,-2.1109,-2.1109,-2.1109,-1.5832,-1.5832,-1.5832,-1.5832,-1.5832,-1.5832,-1.5832,-1.5832,-1.5832,-1.5832,-1.7933,-1.9497,-1.948,-2.1328,-2.2519,-2.2519,-2.2129,-2.1894,-2.1894,-2.3844,-2.5903,-2.7956,-2.9184,-2.9503,-2.8925,-2.8925,-2.9554,-3.0798,-3.0798,-3.1724,-3.3455,-3.2796,-3.3253,-3.4537,-3.3886,-3.435,-3.5667,-3.6746,-3.7173,-3.7285,-3.8303,-3.8855,-3.9133,-3.9462,-3.9797,-4.0158,-4.0406,-4.0639,-4.093,-4.1801,-4.2783,-4.3734,-4.4461,-4.5131,-4.5457,-4.48,-4.4599,-4.4465,-4.373,-4.3105,-4.2577,-4.1937,-4.134,-4.0733,-4.0204,-3.9506,-3.869,-3.7937,-3.8215,-3.8385,-3.7533,-3.8462,-3.9409,-3.9409,-3.847,-3.7404,-3.6342,-3.5331,-3.4264,-3.3205,-3.3068,-3.3341,-3.3827,-3.3179,-3.2931,-3.3433,-3.1462,-2.9728,-2.8408,-2.8301,-2.8301,-2.8301,-2.8301,-2.8301,-2.8301,-2.8301,-2.8281,-2.8301,-2.8301,-2.7511,-2.6045,-2.4488,-2.2927,-2.1487,-2.0358,-1.996,-2.0254,-2.0548,-2.0842,-2.1109,-2.1109,-2.1109,-2.1109,-2.1109,-2.1109,-2.1109,-1.5832,-1.5832,-1.5832,-1.5832,-1.5832,-1.5832,-1.5832,-1.5832,-1.5832,-1.5832,-1.6999,-1.8202,-1.8921,-2.0095,-2.1287,-2.2395,-2.2402,-2.2324,-2.2324,-2.4015,-2.5295,-2.588,-2.7648,-2.8524,-2.8348,-2.8348,-2.8886,-3.0097,-3.0097,-3.0807,-3.2108,-3.1928,-3.2548,-3.3886,-3.3694,-3.435,-3.5667,-3.6746,-3.7173,-3.7285,-3.8303,-3.8855,-3.9133,-3.9462,-3.9797,-4.0158,-4.0521,-4.0716,-4.0924,-4.1917,-4.2851,-4.3838,-4.5079,-4.5355,-4.518,-4.4751,-4.4401,-4.4058,-4.3631,-4.2772,-4.2021,-4.1853,-4.134,-4.0733,-4.0204,-3.9506,-3.869,-3.7937,-3.7836,-3.7769,-3.7429,-3.8102,-3.8894,-3.9307,-3.7899,-3.6571,-3.6231,-3.4702,-3.3477,-3.3179,-3.3068,-3.3341,-3.3827,-3.3179,-3.2515,-3.209,-3.0075,-2.872,-2.8301,-2.8301,-2.8301,-2.8301,-2.8301,-2.8301,-2.8301,-2.8301,-2.7726,-2.6717,-2.6717,-2.5936,-2.4488,-2.2927,-2.204,-2.1487,-2.0358,-1.996,-2.0254,-2.0548,-2.0842,-2.1109,-2.1109,-2.1109,-2.1109,-2.1109,-2.1109,-2.1109,-1.5832,-1.5832,-1.5832,-1.5832,-1.5832,-1.5832,-1.5832,-1.5832,-1.5792,-1.5671,-1.693,-1.8087,-1.8578,-1.9791,-2.1097,-2.2142,-2.2109,-2.2012,-2.2012,-2.3524,-2.4511,-2.4691,-2.6505,-2.7544,-2.777,-2.777,-2.836,-2.9463,-2.9463,-3.0182,-3.1539,-3.1796,-3.2516,-3.3598,-3.3871,-3.4703,-3.5985,-3.6825,-3.7285,-3.7542,-3.8368,-3.8942,-3.9314,-3.951,-3.9882,-4.0286,-4.0592,-4.0974,-4.1466,-4.2422,-4.3498,-4.4607,-4.547,-4.5419,-4.5011,-4.4701,-4.4318,-4.3875,-4.332,-4.2501,-4.1768,-4.1473,-4.1013,-4.048,-4.0154,-3.9262,-3.8358,-3.7879,-3.7653,-3.751,-3.7449,-3.8182,-3.8763,-3.8763,-3.7288,-3.609,-3.5685,-3.4126,-3.3068,-3.3068,-3.3068,-3.3205,-3.3528,-3.2396,-3.1201,-3.0072,-2.8993,-2.8301,-2.8301,-2.8301,-2.8301,-2.8301,-2.8301,-2.8301,-2.8301,-2.7726,-2.6933,-2.6045,-2.548,-2.4378,-2.2927,-2.204,-2.1259,-2.073,-2.0128,-2.0067,-2.0267,-2.0681,-2.0949,-2.1109,-2.1109,-2.1109,-2.1109,-2.1109,-2.1109,-2.1109,-1.5832,-1.5832,-1.5832,-1.5832,-1.5832,-1.5818,-1.5792,-1.5792,-1.5685,-1.5391,-1.7296,-1.8562,-1.8407,-1.9916,-2.1267,-2.1797,-2.1465,-2.123,-2.123,-2.2615,-2.3727,-2.41,-2.5612,-2.6691,-2.7193,-2.7218,-2.7816,-2.9002,-2.9002,-2.9875,-3.1539,-3.2272,-3.2949,-3.3649,-3.4268,-3.5261,-3.6416,-3.6981,-3.747,-3.7928,-3.8496,-3.9045,-3.958,-3.958,-3.9984,-4.0523,-4.0754,-4.1376,-4.2266,-4.3203,-4.453,-4.5796,-4.5624,-4.5361,-4.4988,-4.4701,-4.429,-4.3749,-4.2922,-4.2262,-4.1682,-4.1024,-4.048,-4.0087,-4.0003,-3.8832,-3.7764,-3.7706,-3.7435,-3.7292,-3.741,-3.84,-3.8924,-3.7929,-3.691,-3.5823,-3.4835,-3.3801,-3.3068,-3.3068,-3.3068,-3.3068,-3.3043,-3.1134,-2.9351,-2.7854,-2.8135,-2.8301,-2.8301,-2.8301,-2.8301,-2.8301,-2.8301,-2.8301,-2.8301,-2.6717,-2.5936,-2.5936,-2.4378,-2.2814,-2.1358,-2.1358,-2.0716,-1.9439,-1.9987,-2.0254,-2.0321,-2.0882,-2.1109,-2.1109,-2.1109,-2.1109,-2.1109,-2.1109,-2.1109,-2.1109,-1.5832,-1.5832,-1.5832,-1.5832,-1.5832,-1.5752,-1.5524,-1.5484,-1.5391,-1.5097,-1.6053,-1.7056,-1.7842,-1.883,-1.9986,-2.1247,-2.1289,-2.123,-2.123,-2.2615,-2.357,-2.3682,-2.5489,-2.6584,-2.671,-2.664,-2.74,-2.9002,-2.9002,-2.9875,-3.1539,-3.2272,-3.2949,-3.3649,-3.4268,-3.5261,-3.6416,-3.6981,-3.747,-3.7928,-3.8496,-3.9045,-3.958,-3.958,-3.9984,-4.06,-4.1463,-4.1931,-4.2343,-4.3869,-4.5025,-4.5796,-4.5624,-4.5201,-4.4701,-4.4624,-4.4125,-4.3495,-4.2846,-4.2262,-4.1682,-4.1024,-4.048,-3.9952,-3.9315,-3.8469,-3.7648,-3.6964,-3.6379,-3.6214,-3.7211,-3.7664,-3.787,-3.7768,-3.6878,-3.5889,-3.4873,-3.3801,-3.3068,-3.3068,-3.3068,-3.2907,-3.2339,-3.079,-2.9331,-2.829,-2.8281,-2.8301,-2.8301,-2.8301,-2.8301,-2.8301,-2.8301,-2.8301,-2.8301,-2.5608,-2.4267,-2.4267,-2.2814,-2.1259,-1.9924,-1.9924,-1.9829,-1.972,-2.008,-2.0361,-2.0615,-2.0962,-2.1109,-2.1109,-2.1109,-2.1109,-2.1109,-2.1109,-2.1109,-2.0716,-1.5832,-1.5832,-1.5832,-1.5832,-1.5832,-1.5725,-1.5444,-1.5391,-1.5244,-1.4803,-1.6051,-1.7059,-1.7482,-1.8905,-2.0096,-2.0819,-2.1113,-2.1292,-2.1527,-2.2767,-2.3745,-2.4181,-2.5652,-2.6533,-2.6533,-2.6533,-2.7297,-2.9002,-2.9002,-2.9875,-3.1539,-3.2571,-3.3235,-3.3649,-3.464,-3.5698,-3.6786,-3.7058,-3.765,-3.8332,-3.8737,-3.9171,-3.9641,-3.9775,-4.0406,-4.1309,-4.1902,-4.2624,-4.3546,-4.4846,-4.547,-4.5645,-4.5419,-4.5011,-4.4572,-4.4373,-4.3749,-4.2995,-4.2422,-4.1853,-4.1206,-4.0672,-4.0036,-3.942,-3.9016,-3.8302,-3.7557,-3.6783,-3.6285,-3.6225,-3.7201,-3.7267,-3.7099,-3.707,-3.6166,-3.5141,-3.4101,-3.3477,-3.3068,-3.3068,-3.3068,-3.2586,-3.1269,-2.9949,-2.8879,-2.8077,-2.8155,-2.8301,-2.8301,-2.8301,-2.8301,-2.8301,-2.8301,-2.796,-2.7276,-2.4931,-2.3487,-2.2702,-2.1259,-2.0141,-1.9372,-1.9372,-1.9533,-1.9813,-2.0107,-2.0401,-2.0695,-2.0989,-2.1109,-2.1109,-2.1109,-2.1109,-2.1109,-2.1109,-2.0589,-1.9419,-1.5832,-1.5832,-1.5832,-1.5832,-1.5832,-1.5712,-1.5378,-1.5324,-1.511,-1.4522,-1.6369,-1.7598,-1.7367,-1.9274,-2.0566,-2.0566,-2.0898,-2.1332,-2.1983,-2.2914,-2.3963,-2.4945,-2.5955,-2.6533,-2.6533,-2.6645,-2.7471,-2.9002,-2.9002,-2.9875,-3.1539,-3.2917,-3.3598,-3.3649,-3.5005,-3.6207,-3.7173,-3.7173,-3.7791,-3.8719,-3.898,-3.9364,-3.9853,-4.0172,-4.1109,-4.2225,-4.2454,-4.3548,-4.5016,-4.5658,-4.5757,-4.555,-4.5201,-4.4872,-4.4508,-4.4117,-4.3385,-4.2577,-4.1979,-4.134,-4.078,-4.0254,-3.9506,-3.8854,-3.8745,-3.8133,-3.7381,-3.6569,-3.6468,-3.6667,-3.7292,-3.7097,-3.6677,-3.6294,-3.5359,-3.4375,-3.323,-3.3068,-3.3068,-3.3068,-3.2746,-3.1841,-3.0281,-2.9106,-2.8301,-2.7863,-2.8135,-2.8301,-2.8301,-2.8301,-2.8301,-2.8301,-2.8067,-2.7384,-2.6155,-2.4267,-2.2814,-2.1586,-2.0155,-1.9372,-1.9372,-1.9372,-1.9546,-1.988,-2.0134,-2.0428,-2.0775,-2.1002,-2.1109,-2.1109,-2.1109,-2.1109,-2.1109,-2.0716,-1.9419,-1.7216,-1.5832,-1.5832,-1.5832,-1.5832,-1.5832,-1.5645,-1.511,-1.5017,-1.4816,-1.4215,-1.6035,-1.7318,-1.7253,-1.9274,-2.0566,-2.0566,-2.0625,-2.1071,-2.1962,-2.2914,-2.3963,-2.4945,-2.5955,-2.6533,-2.6533,-2.7162,-2.8065,-2.9002,-2.9002,-2.9875,-3.1539,-3.2917,-3.3598,-3.3649,-3.5005,-3.6207,-3.7173,-3.7173,-3.7791,-3.8719,-3.898,-3.9764,-4.0745,-4.103,-4.1951,-4.3142,-4.4033,-4.4957,-4.5765,-4.5789,-4.5719,-4.555,-4.5201,-4.4872,-4.4508,-4.4117,-4.3385,-4.2577,-4.1979,-4.134,-4.078,-4.0254,-3.9506,-3.8745,-3.8076,-3.7322,-3.6569,-3.5782,-3.6144,-3.6667,-3.7292,-3.7066,-3.6693,-3.6307,-3.5319,-3.4375,-3.323,-3.3068,-3.3068,-3.3068,-3.121,-3.0047,-3.0563,-2.8551,-2.7466,-2.8155,-2.8281,-2.8301,-2.8301,-2.8301,-2.8301,-2.8301,-2.706,-2.6264,-2.6155,-2.3263,-2.1813,-2.1586,-2.0155,-1.9372,-1.9372,-1.9372,-1.9666,-2.0174,-2.0214,-2.0548,-2.1056,-2.1096,-2.1109,-2.1109,-2.1109,-2.1109,-2.0982,-1.9419,-1.6818,-1.397,-1.5832,-1.5832,-1.5832,-1.5832,-1.5698,-1.5444,-1.503,-1.483,-1.4563,-1.4135,-1.5959,-1.7334,-1.7334,-1.9274,-2.0566,-2.0566,-2.0566,-2.1242,-2.2765,-2.3209,-2.4181,-2.5791,-2.6233,-2.6533,-2.6533,-2.7297,-2.8103,-2.9002,-2.9504,-3.0329,-3.1539,-3.2917,-3.3598,-3.3649,-3.5005,-3.6207,-3.7173,-3.7173,-3.8043,-3.9412,-3.9933,-4.0691,-4.1614,-4.2144,-4.3017,-4.4158,-4.5115,-4.5658,-4.5877,-4.5825,-4.5591,-4.5263,-4.4919,-4.4561,-4.4146,-4.3487,-4.2774,-4.2062,-4.1429,-4.0874,-4.0285,-3.9577,-3.8854,-3.8076,-3.7322,-3.6816,-3.6405,-3.6144,-3.6295,-3.6637,-3.6979,-3.6451,-3.5787,-3.5451,-3.4538,-3.3639,-3.3179,-3.3068,-3.2797,-3.213,-3.065,-2.9676,-2.96,-2.8277,-2.7592,-2.8281,-2.8301,-2.8301,-2.8301,-2.8301,-2.796,-2.706,-2.6499,-2.5261,-2.3599,-2.2251,-2.1145,-2.0371,-1.9707,-1.9372,-1.9372,-1.9372,-1.9679,-2.0227,-2.0227,-2.0561,-2.1109,-2.1109,-2.1109,-2.0982,-2.0068,-1.9024,-1.7988,-1.6302,-1.4614,-1.3193]}]]